[[{"header":{"parameterUnit":"m.s-1","parameterCategory":1,"la1":30.6,"la2":29.2853,"lo1":-89.7004,"lo2":-87.6739,"dy":0.0162,"dx":0.0183,"nx":112,"ny":82,"refTime":"2024-10-16T12:00:00:Z","depth":0,"parameterNumber":2,"parameterNumberName":"U-component_of_WINDS"},"data":[0.0,0.0,0.0,0.0,0.0,0.0,0.0,0.0,0.0,0.0,0.0,0.0,0.0,0.0,0.0,0.0,0.0,0.0,0.0,0.0,0.0,0.0,0.0,0.0,0.0,0.0,0.0,0.0,0.0,0.0,0.0,0.0,0.0,0.0,0.0,0.0,0.0,0.0,0.0,0.0,0.0,0.0,0.0,0.0,0.0,0.0,0.0,0.0,0.0,0.0,0.0,0.0,0.0,0.0,0.0,0.0,0.0,0.0,0.0,0.0,0.0,0.0,0.0,0.0,0.0,0.0,0.0,0.0,0.0,0.0,0.0,0.0,0.0,0.0,0.0,0.0,0.0,0.0,0.0,0.0,0.0,0.0,0.0,0.0,0.0,0.0,0.0,0.0,0.0,0.0,0.0,2.1656,2.1581,2.2063,2.36,2.2057,2.0591,1.9631,0.0,0.0,0.0,0.0,0.0,0.0,0.0,0.0,0.0,0.0,0.0,0.0,0.0,0.0,0.0,0.0,0.0,0.0,0.0,0.0,0.0,0.0,0.0,0.0,0.0,0.0,0.0,0.0,0.0,0.0,0.0,0.0,0.0,0.0,0.0,0.0,0.0,0.0,0.0,0.0,0.0,0.0,0.0,0.0,0.0,0.0,0.0,0.0,0.0,0.0,0.0,0.0,0.0,0.0,0.0,0.0,0.0,0.0,0.0,0.0,0.0,0.0,0.0,0.0,0.0,0.0,0.0,0.0,0.0,0.0,0.0,0.0,0.0,0.0,0.0,0.0,0.0,0.0,0.0,0.0,0.0,0.0,0.0,0.0,0.0,0.0,0.0,0.0,0.0,0.0,0.0,0.0,0.0,0.0,0.0,0.0,0.0,0.0,0.0,0.0,0.0,0.0,0.0,0.0,2.176,2.2916,2.1916,2.1418,2.2092,2.1172,2.041,1.9943,0.0,0.0,0.0,0.0,0.0,0.0,0.0,0.0,0.0,0.0,0.0,0.0,0.0,0.0,0.0,0.0,0.0,0.0,0.0,0.0,0.0,0.0,0.0,0.0,0.0,0.0,0.0,0.0,0.0,0.0,0.0,0.0,0.0,0.0,0.0,0.0,0.0,0.0,0.0,0.0,0.0,0.0,0.0,0.0,0.0,0.0,0.0,0.0,0.0,0.0,0.0,0.0,0.0,0.0,0.0,0.0,0.0,0.0,0.0,0.0,0.0,0.0,0.0,0.0,0.0,0.0,0.0,0.0,0.0,0.0,0.0,0.0,0.0,0.0,0.0,0.0,0.0,0.0,0.0,0.0,0.0,0.0,0.0,0.0,0.0,0.0,0.0,0.0,0.0,0.0,0.0,0.0,0.0,0.0,0.0,0.0,0.0,0.0,0.0,0.0,0.0,0.0,0.0,2.1916,2.2908,2.3467,2.2536,2.2008,2.2256,2.1275,2.0347,1.9607,1.9118,0.0,0.0,0.0,0.0,0.0,0.0,0.0,0.0,0.0,0.0,0.0,0.0,0.0,0.0,0.0,0.0,0.0,0.0,0.0,0.0,0.0,0.0,0.0,0.0,0.0,0.0,0.0,0.0,0.0,0.0,0.0,0.0,0.0,0.0,0.0,0.0,0.0,0.0,0.0,0.0,0.0,0.0,0.0,0.0,0.0,0.0,0.0,0.0,0.0,0.0,0.0,0.0,0.0,0.0,0.0,0.0,0.0,0.0,0.0,0.0,0.0,0.0,0.0,0.0,0.0,0.0,0.0,0.0,0.0,0.0,0.0,0.0,0.0,0.0,0.0,0.0,0.0,0.0,0.0,0.0,0.0,0.0,0.0,0.0,0.0,0.0,0.0,0.0,0.0,0.0,0.0,0.0,0.0,0.0,0.0,0.0,0.0,0.0,0.0,0.0,0.0,0.0,2.284,2.3147,2.3242,2.2714,2.2346,2.2334,2.1222,2.0071,1.9043,1.8311,0.0,0.0,0.0,0.0,0.0,0.0,0.0,0.0,0.0,0.0,0.0,0.0,0.0,0.0,0.0,0.0,0.0,0.0,0.0,0.0,0.0,0.0,0.0,0.0,0.0,0.0,0.0,0.0,0.0,0.0,0.0,0.0,0.0,0.0,0.0,0.0,0.0,0.0,0.0,0.0,0.0,0.0,0.0,0.0,0.0,0.0,0.0,0.0,0.0,0.0,0.0,0.0,0.0,0.0,0.0,0.0,0.0,0.0,0.0,0.0,0.0,0.0,0.0,0.0,0.0,0.0,0.0,0.0,0.0,0.0,0.0,0.0,0.0,0.0,0.0,0.0,0.0,0.0,0.0,0.0,0.0,0.0,0.0,0.0,0.0,0.0,0.0,0.0,0.0,0.0,0.0,0.0,0.0,0.0,0.0,0.0,0.0,0.0,0.0,0.0,0.0,0.0,2.1623,2.1709,2.1907,2.1715,2.1507,2.132,2.0308,1.9302,1.8404,1.7376,0.0,0.0,0.0,0.0,0.0,0.0,0.0,0.0,0.0,0.0,0.0,0.0,0.0,0.0,0.0,0.0,0.0,0.0,0.0,0.0,0.0,0.0,0.0,0.0,0.0,0.0,0.0,0.0,0.0,0.0,0.0,0.0,0.0,0.0,0.0,0.0,0.0,0.0,0.0,0.0,0.0,0.0,0.0,0.0,0.0,0.0,0.0,0.0,0.0,0.0,0.0,0.0,0.0,0.0,0.0,0.0,0.0,0.0,0.0,0.0,0.0,0.0,0.0,0.0,0.0,0.0,0.0,0.0,0.0,0.0,0.0,0.0,0.0,0.0,0.0,0.0,0.0,0.0,0.0,0.0,0.0,0.0,0.0,0.0,0.0,0.0,0.0,0.0,0.0,0.0,0.0,0.0,0.0,0.0,0.0,0.0,0.0,0.0,0.0,0.0,0.0,0.0,2.2653,2.2842,0.0,2.2362,2.2048,2.109,2.0637,1.9749,1.8205,0.0,0.0,0.0,0.0,0.0,0.0,0.0,0.0,0.0,0.0,0.0,0.0,0.0,0.0,0.0,0.0,0.0,0.0,0.0,0.0,0.0,0.0,0.0,0.0,0.0,0.0,0.0,0.0,0.0,0.0,0.0,0.0,0.0,0.0,0.0,0.0,0.0,0.0,0.0,0.0,0.0,0.0,0.0,0.0,0.0,0.0,0.0,0.0,0.0,0.0,0.0,0.0,0.0,0.0,0.0,0.0,0.0,0.0,0.0,0.0,0.0,0.0,0.0,0.0,0.0,0.0,0.0,0.0,0.0,0.0,0.0,0.0,0.0,0.0,0.0,0.0,0.0,0.0,0.0,0.0,0.0,0.0,0.0,0.0,0.0,0.0,0.0,0.0,0.0,0.0,0.0,0.0,0.0,0.0,0.0,0.0,0.0,0.0,0.0,0.0,0.0,0.0,2.1895,2.2853,2.319,0.0,2.2512,2.212,2.1075,2.0603,1.9698,1.8105,0.0,0.0,0.0,0.0,0.0,0.0,0.0,0.0,0.0,0.0,0.0,0.0,0.0,0.0,0.0,0.0,0.0,0.0,0.0,0.0,0.0,0.0,0.0,0.0,0.0,0.0,0.0,0.0,0.0,0.0,0.0,0.0,0.0,0.0,0.0,0.0,0.0,0.0,0.0,0.0,0.0,0.0,0.0,0.0,0.0,0.0,0.0,0.0,0.0,0.0,0.0,0.0,0.0,0.0,0.0,0.0,0.0,0.0,0.0,0.0,0.0,0.0,0.0,0.0,0.0,0.0,0.0,0.0,0.0,0.0,0.0,0.0,0.0,0.0,0.0,0.0,0.0,0.0,0.0,0.0,0.0,0.0,0.0,0.0,0.0,0.0,0.0,0.0,0.0,0.0,0.0,0.0,0.0,0.0,0.0,0.0,0.0,0.0,0.0,0.0,0.0,0.0,2.0969,2.175,2.2279,2.2502,2.1922,2.1431,2.121,2.0059,1.8945,0.0,0.0,0.0,0.0,0.0,0.0,0.0,0.0,0.0,0.0,0.0,0.0,0.0,0.0,0.0,0.0,0.0,0.0,0.0,0.0,0.0,0.0,0.0,0.0,0.0,0.0,0.0,0.0,0.0,0.0,0.0,0.0,0.0,0.0,0.0,0.0,0.0,0.0,0.0,0.0,0.0,0.0,0.0,0.0,0.0,0.0,0.0,0.0,0.0,0.0,0.0,0.0,0.0,0.0,0.0,0.0,0.0,0.0,0.0,0.0,0.0,0.0,0.0,0.0,0.0,0.0,0.0,0.0,0.0,0.0,0.0,0.0,0.0,0.0,0.0,0.0,0.0,0.0,0.0,0.0,0.0,0.0,0.0,0.0,0.0,0.0,0.0,0.0,0.0,0.0,0.0,0.0,0.0,0.0,0.0,0.0,0.0,0.0,0.0,0.0,0.0,0.0,0.0,0.0,2.2612,2.2856,2.2927,2.2482,2.1936,2.1269,2.0859,1.9883,1.8108,0.0,0.0,0.0,0.0,0.0,0.0,0.0,0.0,0.0,0.0,0.0,0.0,0.0,0.0,0.0,0.0,0.0,0.0,0.0,0.0,0.0,0.0,0.0,0.0,0.0,0.0,0.0,0.0,0.0,0.0,0.0,0.0,0.0,0.0,0.0,0.0,0.0,0.0,0.0,0.0,0.0,0.0,0.0,0.0,0.0,0.0,0.0,0.0,0.0,0.0,0.0,0.0,0.0,0.0,0.0,0.0,0.0,0.0,0.0,0.0,0.0,0.0,0.0,0.0,0.0,0.0,0.0,0.0,0.0,0.0,0.0,0.0,0.0,0.0,0.0,0.0,0.0,0.0,0.0,0.0,0.0,0.0,0.0,0.0,0.0,0.0,0.0,0.0,0.0,0.0,0.0,0.0,0.0,0.0,0.0,0.0,0.0,0.0,0.0,0.0,0.0,0.0,2.2678,2.3273,2.3552,2.3396,2.3006,2.2459,2.1776,2.1385,2.043,1.8633,0.0,0.0,0.0,0.0,0.0,0.0,0.0,0.0,0.0,0.0,0.0,0.0,0.0,0.0,0.0,0.0,0.0,0.0,0.0,0.0,0.0,0.0,0.0,0.0,0.0,0.0,0.0,0.0,0.0,0.0,0.0,0.0,0.0,0.0,0.0,0.0,0.0,0.0,0.0,0.0,0.0,0.0,0.0,0.0,0.0,0.0,0.0,0.0,0.0,0.0,0.0,0.0,0.0,0.0,0.0,0.0,0.0,0.0,0.0,0.0,0.0,0.0,0.0,0.0,0.0,0.0,0.0,0.0,0.0,0.0,0.0,0.0,0.0,0.0,0.0,0.0,0.0,0.0,0.0,0.0,0.0,0.0,0.0,0.0,0.0,0.0,0.0,0.0,0.0,0.0,0.0,0.0,0.0,0.0,0.0,0.0,0.0,0.0,0.0,0.0,0.0,0.0,2.2852,2.3803,2.4277,2.3887,2.3435,2.2964,2.2537,2.1776,2.0762,1.9434,0.0,0.0,0.0,0.0,0.0,0.0,0.0,0.0,0.0,0.0,0.0,0.0,0.0,0.0,0.0,0.0,0.0,0.0,0.0,0.0,0.0,0.0,0.0,0.0,0.0,0.0,0.0,0.0,0.0,0.0,0.0,0.0,0.0,0.0,0.0,0.0,0.0,0.0,0.0,0.0,0.0,0.0,0.0,0.0,0.0,0.0,0.0,0.0,0.0,0.0,0.0,0.0,0.0,0.0,0.0,0.0,0.0,0.0,0.0,0.0,1.6457,0.0,0.0,0.0,0.0,0.0,0.0,0.0,0.0,0.0,0.0,0.0,0.0,0.0,0.0,0.0,0.0,0.0,0.0,0.0,0.0,0.0,0.0,0.0,0.0,0.0,0.0,0.0,0.0,0.0,0.0,0.0,0.0,0.0,0.0,0.0,0.0,0.0,0.0,0.0,0.0,0.0,2.3912,2.4261,2.4352,2.4297,2.3906,2.334,2.2578,2.2323,2.1523,1.9883,0.0,0.0,0.0,0.0,0.0,0.0,0.0,0.0,0.0,0.0,0.0,0.0,0.0,0.0,0.0,0.0,0.0,0.0,0.0,0.0,0.0,0.0,0.0,0.0,0.0,0.0,0.0,0.0,0.0,0.0,0.0,0.0,0.0,0.0,0.0,0.0,0.0,0.0,0.0,0.0,0.0,0.0,0.0,0.0,0.0,0.0,0.0,0.0,0.0,0.0,0.0,0.0,0.0,0.0,0.0,0.0,0.0,0.0,0.0,0.0,0.0,1.7323,0.0,0.0,0.0,0.0,0.0,0.0,0.0,0.0,0.0,0.0,0.0,0.0,0.0,0.0,0.0,0.0,0.0,0.0,0.0,0.0,0.0,0.0,0.0,0.0,0.0,0.0,0.0,0.0,0.0,0.0,0.0,0.0,0.0,0.0,0.0,0.0,0.0,0.0,0.0,0.0,2.4293,2.4762,2.4937,2.4746,2.4355,2.3828,2.3184,2.2754,2.2031,2.0937,2.0059,0.0,0.0,0.0,0.0,0.0,0.0,0.0,0.0,0.0,0.0,0.0,0.0,0.0,0.0,0.0,0.0,0.0,0.0,0.0,0.0,0.0,0.0,0.0,0.0,0.0,0.0,0.0,0.0,0.0,0.0,0.0,0.0,0.0,0.0,0.0,0.0,0.0,0.0,0.0,0.0,0.0,0.0,0.0,0.0,0.0,0.0,0.0,0.0,0.0,0.0,0.0,0.0,0.0,2.0306,2.0336,2.0216,2.0276,2.0185,1.9944,1.9383,1.9044,1.8858,0.0,0.0,0.0,0.0,0.0,0.0,0.0,0.0,0.0,0.0,0.0,0.0,0.0,0.0,0.0,0.0,0.0,0.0,0.0,0.0,0.0,0.0,0.0,0.0,0.0,2.5932,2.5542,0.0,0.0,0.0,0.0,0.0,0.0,0.0,0.0,0.0,0.0,0.0,0.0,2.4473,2.521,2.5542,2.5141,2.4746,2.4355,2.3926,2.322,2.2656,2.2267,2.1133,2.0254,0.0,0.0,0.0,0.0,0.0,0.0,0.0,0.0,0.0,0.0,0.0,0.0,0.0,0.0,0.0,0.0,0.0,0.0,0.0,0.0,0.0,0.0,0.0,0.0,0.0,0.0,0.0,0.0,0.0,0.0,0.0,0.0,1.8899,1.9081,0.0,0.0,0.0,0.0,0.0,0.0,0.0,0.0,0.0,0.0,0.0,0.0,0.0,0.0,2.0101,2.0953,2.1145,2.0628,2.148,2.1627,2.1054,2.1333,2.1465,2.1422,2.132,0.0,1.9224,1.9328,0.0,0.0,0.0,0.0,0.0,0.0,0.0,0.0,0.0,0.0,0.0,0.0,0.0,0.0,0.0,0.0,0.0,0.0,0.0,0.0,0.0,0.0,2.4413,2.6385,2.683,2.6752,0.0,2.5347,2.4254,2.4098,0.0,0.0,0.0,0.0,0.0,0.0,0.0,0.0,2.4945,2.5406,2.5542,2.5141,2.5043,2.4828,2.4352,2.4215,2.3984,2.3555,2.3049,2.2404,2.1602,2.1113,0.0,0.0,0.0,0.0,0.0,0.0,0.0,0.0,0.0,0.0,0.0,0.0,0.0,0.0,0.0,0.0,0.0,0.0,0.0,0.0,0.0,0.0,0.0,0.0,0.0,0.0,0.0,0.0,0.0,1.8865,1.9574,1.9335,1.9342,1.9166,0.0,0.0,0.0,0.0,0.0,0.0,0.0,0.0,0.0,2.0587,2.0862,2.1185,2.154,2.2127,2.2318,2.2037,2.2506,2.255,2.2271,2.2212,2.2315,2.2476,2.2125,2.1657,2.1115,2.0685,2.0128,1.9594,0.0,0.0,0.0,0.0,0.0,1.9945,2.0457,0.0,0.0,0.0,0.0,0.0,0.0,0.0,0.0,0.0,0.0,0.0,0.0,0.0,0.0,2.6305,2.7242,2.7734,2.7734,2.6953,2.6094,0.0,2.5254,2.4703,2.3728,0.0,0.0,0.0,0.0,0.0,2.541,2.5581,2.564,2.5469,2.5239,2.5024,2.4805,2.4551,2.4313,2.416,2.375,2.3362,2.2969,2.2518,2.1971,0.0,0.0,0.0,0.0,0.0,0.0,0.0,0.0,0.0,0.0,0.0,0.0,0.0,0.0,0.0,0.0,0.0,0.0,0.0,0.0,0.0,0.0,0.0,0.0,0.0,0.0,0.0,0.0,1.9546,2.0035,1.9691,2.003,2.0001,0.0,0.0,0.0,0.0,0.0,0.0,2.0514,2.0873,2.1344,2.1803,2.2052,2.2447,2.2988,2.3237,2.3354,2.3354,2.3354,2.3354,2.3354,2.3106,2.3135,2.3325,2.2871,2.2798,2.2915,2.1789,2.1014,2.0575,2.0488,2.034,2.0221,2.0764,2.0969,2.1057,2.1628,2.1818,2.1745,2.1262,0.0,2.0706,1.9989,0.0,0.0,0.0,0.0,2.1176,2.291,0.0,2.5545,2.6948,2.797,2.8613,2.8613,2.8406,2.7897,0.0,2.6797,2.642,2.5156,0.0,0.0,0.0,0.0,2.5874,2.5874,2.5874,2.5835,2.5693,2.543,2.5234,2.5234,2.4941,2.4723,2.4723,2.4453,2.4238,2.4144,2.3809,2.3259,0.0,0.0,0.0,0.0,0.0,0.0,0.0,0.0,0.0,0.0,0.0,0.0,0.0,0.0,0.0,0.0,0.0,0.0,0.0,0.0,0.0,0.0,0.0,0.0,0.0,0.0,0.0,0.0,0.0,0.0,2.0619,2.1218,0.0,0.0,0.0,0.0,2.1042,2.1115,2.1525,2.2402,2.2491,2.2798,2.3457,2.3486,2.3662,2.4013,2.4027,2.4027,2.4027,2.4027,2.4027,2.4027,2.4013,2.4013,2.406,2.4031,2.4031,2.3881,2.2315,2.1657,2.1584,2.1276,2.1145,2.1174,2.1525,2.1642,2.1701,2.2037,2.2154,2.2154,2.2155,2.1686,2.1174,2.113,2.0896,0.0,0.0,2.2238,2.3783,2.5324,2.6679,2.7919,2.9157,2.9512,2.954,2.954,2.952,2.9129,0.0,2.6979,2.6387,2.6309,0.0,2.5835,2.623,2.6328,2.6348,2.6348,2.6348,2.6191,2.5757,2.5698,2.5679,2.5679,2.5659,2.5615,2.5615,2.562,2.5425,2.5043,2.5004,2.4769,2.4274,2.3084,0.0,0.0,0.0,0.0,0.0,0.0,0.0,0.0,0.0,0.0,0.0,0.0,0.0,0.0,0.0,0.0,0.0,0.0,0.0,0.0,0.0,0.0,0.0,0.0,0.0,0.0,0.0,0.0,2.2228,2.2652,0.0,2.1818,2.1745,2.1832,2.2066,2.2506,2.2886,2.3237,2.3457,2.3764,2.4236,2.425,2.4412,2.4734,2.4734,2.4734,2.4734,2.4734,2.4734,2.4734,2.4529,2.4543,2.4719,2.4294,2.4236,2.4368,2.3591,2.3106,2.293,2.3018,2.293,2.2784,2.3106,2.3237,2.3252,2.3369,2.343,2.334,2.2915,2.2345,2.1832,2.1832,2.1759,2.173,2.2037,2.2379,2.306,2.4647,2.5812,2.6882,2.8154,2.9019,2.9598,2.9598,2.9598,2.9461,2.9012,2.8679,2.8288,2.7715,2.7949,2.7969,2.733,2.7467,2.7422,2.6855,2.6562,2.623,2.5757,2.5693,2.5693,2.5693,2.5693,2.5693,2.5693,2.5693,2.564,2.5484,2.5508,2.5293,2.4867,2.4418,2.3516,0.0,0.0,0.0,0.0,0.0,0.0,0.0,0.0,0.0,0.0,0.0,0.0,0.0,0.0,0.0,0.0,0.0,0.0,0.0,0.0,0.0,0.0,0.0,0.0,0.0,0.0,2.3189,2.3091,2.3691,2.3793,2.3018,2.3149,2.3281,2.3281,2.3676,2.4001,2.4118,2.4324,2.4543,2.4763,2.4763,2.4866,2.5086,2.5086,2.5086,2.5086,2.5086,2.5086,2.5086,2.4866,2.488,2.5071,2.4631,2.4573,2.4749,2.4529,2.4324,2.4118,2.4118,2.3954,2.3793,2.4031,2.4118,2.4118,2.4118,2.4118,2.4045,2.3574,2.3164,2.2828,2.2828,2.2828,2.2871,2.3062,2.3284,2.3841,2.5375,2.6546,2.7635,2.8992,2.9767,3.0234,3.0234,3.0146,3.0048,3.0048,2.9813,2.9422,2.8855,2.9227,2.9305,2.8464,2.8418,2.8242,2.7539,2.709,2.6627,2.5991,2.5932,2.5874,2.5693,2.5693,2.5693,2.5693,2.5693,2.5693,2.5693,2.5562,2.5371,2.5102,2.5082,2.4021,2.18,0.0,0.0,0.0,0.0,0.0,0.0,0.0,0.0,0.0,0.0,0.0,0.0,0.0,0.0,0.0,0.0,0.0,0.0,0.0,0.0,0.0,0.0,0.0,2.2201,2.3042,2.3545,2.3252,2.4368,2.4763,2.3779,2.428,2.4646,2.4631,2.4631,2.4763,2.5071,2.5086,2.5086,2.5086,2.5086,2.5086,2.5086,2.5086,2.5086,2.5086,2.5086,2.5086,2.5086,2.5086,2.5086,2.5086,2.5086,2.5086,2.5086,2.5086,2.5086,2.5027,2.4397,2.4148,2.4148,2.4148,2.4148,2.4148,2.4148,2.4101,2.4133,2.4133,2.4118,2.4118,2.4118,2.4118,2.4118,2.4151,2.5028,2.6328,2.7788,2.9137,3.0458,3.1875,3.1836,3.1513,3.1513,3.1211,3.0937,3.0937,3.0263,2.9676,2.9637,2.9637,2.9637,2.9618,2.9238,0.0,2.8359,2.7956,2.7389,2.6504,2.6431,2.623,2.5796,2.5732,2.5757,2.5713,2.5737,2.5737,2.5737,2.5352,2.5141,2.516,2.5137,2.4095,2.2044,0.0,0.0,0.0,0.0,0.0,0.0,0.0,0.0,0.0,0.0,0.0,0.0,0.0,0.0,0.0,0.0,0.0,0.0,0.0,0.0,0.0,0.0,2.365,2.3569,2.4368,2.5106,2.552,2.5886,2.6003,2.5725,2.5652,2.552,2.5286,2.5271,2.5198,2.51,2.5086,2.5086,2.5086,2.5086,2.5086,2.5086,2.5086,2.5086,2.5086,2.5086,2.5086,2.5086,2.5086,2.5086,2.5086,2.5086,2.5086,2.5086,2.5086,2.5086,2.5071,2.4895,2.4822,2.4822,2.4822,2.4822,2.4822,2.4822,2.4675,2.447,2.447,2.4309,2.4118,2.4118,2.4118,2.4299,2.535,2.5864,2.6679,2.9026,2.9914,3.0501,3.1875,3.2101,3.2022,3.2022,3.1925,3.1846,3.1846,3.1651,3.1279,3.0654,3.0527,3.0439,3.0078,0.0,0.0,2.8418,2.8184,2.7793,2.6934,2.6836,2.6771,2.6654,2.6635,2.6518,0.0,2.6211,2.6211,2.6211,2.6094,2.6172,2.6465,2.5812,2.471,0.0,0.0,0.0,0.0,0.0,0.0,0.0,0.0,0.0,0.0,0.0,0.0,0.0,0.0,0.0,0.0,0.0,0.0,0.0,0.0,0.0,0.0,2.4145,2.4935,2.5081,2.5579,2.6076,2.6457,2.6617,2.6647,2.6515,2.6339,2.6091,2.5719,2.5705,2.5652,2.5511,2.5496,2.5496,2.5496,2.5496,2.5496,2.5496,2.5496,2.5496,2.5496,2.5315,2.5257,2.5242,2.5144,2.5086,0.0,2.5086,2.5086,2.5086,2.5086,2.5086,0.0,0.0,0.0,0.0,0.0,2.5086,2.5086,2.5086,2.4968,2.4807,2.4807,2.4675,2.4529,2.4529,2.4529,2.4811,2.6191,2.6582,2.7214,2.9946,3.0657,3.1002,3.2367,3.2559,3.2452,3.2452,3.2316,3.2198,3.2198,0.0,0.0,3.1534,3.1269,3.1055,3.0781,3.043,2.9922,0.0,2.8973,2.8601,2.7864,2.7812,2.7734,2.7559,2.7383,0.0,0.0,0.0,2.6641,2.6641,2.6836,0.0,0.0,0.0,0.0,0.0,0.0,0.0,0.0,2.1627,2.2684,0.0,0.0,0.0,0.0,0.0,0.0,0.0,0.0,0.0,0.0,0.0,0.0,0.0,0.0,0.0,0.0,2.5549,2.6296,2.6617,2.6661,2.6647,2.6617,2.6866,2.6925,2.6647,2.6617,2.6457,2.6091,2.6076,2.6061,2.6018,0.0,0.0,0.0,0.0,2.6018,2.6018,2.6018,2.6018,2.6018,2.569,2.5559,2.5544,2.5301,2.5203,2.5203,2.5203,2.5203,2.5203,2.5203,2.5203,2.5188,2.5115,2.5086,2.5086,2.5086,2.5086,0.0,0.0,0.0,0.0,2.5086,2.5086,2.5086,2.5086,2.5221,2.5611,2.6953,2.7436,2.8196,3.0854,3.1547,3.1835,3.3082,3.3144,3.2871,3.2871,3.2609,3.2335,3.2335,3.2335,3.2335,3.2335,3.1914,3.1582,3.1582,3.0918,0.0,3.0351,3.0009,2.9579,2.9121,0.0,0.0,2.8535,2.8249,2.8034,2.7976,2.7578,2.7357,2.7357,2.7793,2.8406,2.9094,2.9609,2.8998,2.7179,2.7539,2.6479,2.408,2.2231,2.3362,0.0,0.0,0.0,0.0,0.0,0.0,0.0,0.0,0.0,0.0,0.0,0.0,0.0,0.0,0.0,2.5622,2.6559,2.7305,2.759,2.7634,2.7531,2.732,2.7349,2.7401,2.7291,2.7327,2.7042,2.6457,2.6413,2.6296,2.5997,2.6018,0.0,2.6018,2.6018,2.6018,2.6018,2.6018,2.6018,2.6018,0.0,0.0,2.588,2.5857,2.5827,2.5827,2.5827,2.5827,2.5827,2.5827,2.5827,2.5783,2.5291,2.5086,2.5086,2.5086,2.5086,2.5086,2.5086,2.5086,2.5086,2.5086,2.5086,2.5086,2.5086,2.588,0.0,2.8394,2.9589,3.0854,3.2556,3.2987,3.3051,3.3323,3.3328,3.3269,3.3269,3.3211,3.3184,3.3184,3.3184,3.3184,3.3184,3.2539,3.2081,3.2081,3.1925,3.169,3.1309,3.0898,3.0449,3.0,2.9941,2.9922,2.9824,3.0098,3.0098,2.9726,2.9629,2.959,2.959,3.0019,3.0351,3.0508,3.1299,3.0541,2.8118,2.8637,2.8361,2.7356,2.6179,2.6627,0.0,0.0,0.0,0.0,0.0,0.0,0.0,0.0,0.0,0.0,0.0,2.4101,2.4905,0.0,2.6237,2.6845,2.7488,2.8008,2.8131,2.8291,2.8242,2.7773,2.7715,2.7715,2.7715,2.7715,2.7546,2.721,2.7195,2.7122,2.6962,2.6947,2.6947,2.6947,2.6947,2.6874,2.6749,2.6749,2.6661,2.65,2.6339,2.6266,2.6252,2.6091,2.6018,2.6018,2.6018,2.6018,2.6018,2.6018,2.6018,2.5988,2.5666,2.5432,2.5286,2.5286,2.5232,2.5086,2.5086,2.5086,2.5221,2.588,2.61,2.6234,2.692,2.7618,2.8427,2.9867,3.0757,3.1611,3.3019,3.3386,3.3386,3.3386,3.3386,3.3386,3.3386,3.3386,3.3386,3.3386,3.3386,3.3386,3.3386,3.3066,3.2734,3.2519,3.2335,3.212,3.1875,3.166,3.1475,3.124,3.1221,3.1221,3.1221,3.1191,3.1016,3.0566,3.0547,3.0644,3.0859,3.1289,3.1738,3.2148,3.2824,3.2289,3.0508,3.0786,3.0507,2.9757,2.9969,3.0273,0.0,0.0,0.0,0.0,0.0,0.0,0.0,0.0,2.4101,2.4998,2.5652,2.6304,2.713,2.7364,2.7627,2.8101,2.8467,2.87,2.8759,2.9017,2.8988,2.8437,2.8262,2.8189,2.8189,2.8189,2.816,2.8101,2.8043,2.8014,2.8014,2.7941,2.7911,2.7911,2.7911,2.7794,2.7569,2.7569,2.7437,2.7174,2.691,2.6749,2.6676,2.6427,2.6266,2.6208,2.6208,2.6208,2.6208,2.6208,2.6208,2.6208,2.6208,2.6003,2.5676,2.5617,2.5461,2.5276,2.5276,2.548,2.5907,2.699,2.7511,2.7978,2.9107,2.9635,3.0095,3.1219,3.1755,3.2206,3.3366,3.364,3.364,3.364,3.364,3.364,3.364,3.3594,3.3555,3.3555,3.3445,3.3386,3.3386,3.3386,3.3269,3.2969,3.2637,3.2452,3.2452,3.2374,3.2316,3.2316,3.2316,3.2355,3.2433,3.209,3.1777,3.1523,3.1426,3.1601,3.2109,3.2433,3.2891,3.3652,3.4101,3.3858,3.2823,3.2897,3.2591,3.1966,3.3092,3.335,2.1672,2.1803,2.2286,2.3459,2.4016,2.4661,0.0,0.0,2.6676,2.7108,2.7656,2.8101,2.8218,2.8739,2.9134,2.9208,2.9525,2.9848,3.0141,3.0214,3.0199,3.0126,2.9613,2.9222,2.9222,2.9222,2.909,2.8812,2.8496,2.835,2.835,2.8072,2.7911,2.7911,2.7911,2.7897,2.7868,2.7868,2.7838,2.7809,2.7765,2.7604,2.7401,2.7371,2.7159,2.6881,2.6881,2.6881,2.6881,2.6881,2.6881,2.6881,2.6881,2.6676,2.6354,2.6026,2.5944,2.5915,2.5915,2.6792,2.7987,2.8125,2.9068,3.0139,3.0308,3.1235,3.2256,3.2423,3.335,3.4355,3.4518,3.4551,3.4551,3.4551,3.4551,3.4551,3.4551,3.4258,3.4036,3.4036,3.3691,3.3386,3.3386,3.3386,3.3367,3.3328,3.3289,3.3281,3.3281,3.2949,3.2734,3.2734,3.2734,3.2871,3.3242,3.3211,3.3359,3.3723,3.3359,3.3496,3.4316,3.4055,3.4114,3.4551,3.5019,3.4724,3.3668,3.4016,3.4331,3.4573,3.4752,3.4454,2.2974,2.3488,2.4016,2.4543,2.5349,2.6208,2.7071,2.7569,2.7978,2.8514,2.8944,2.9266,2.9266,2.9672,2.998,0.0,3.0364,3.0759,3.089,3.0905,3.0832,3.0642,3.0378,3.0071,2.9731,2.9701,2.9643,2.9511,2.9339,2.9266,2.9266,2.9134,2.8973,2.8783,2.8783,2.8608,2.8204,2.8189,2.8101,2.7911,2.7911,2.7838,2.7721,2.7721,2.7583,2.7276,2.7276,2.7159,2.6983,2.6983,2.6983,2.7013,2.7203,2.7796,2.831,2.6843,2.6179,2.6018,2.6018,2.7002,2.8443,2.9268,3.0513,3.1863,3.27,3.335,3.3832,3.3832,3.4261,3.4707,3.4707,3.4707,3.4707,3.4707,3.4707,3.4707,3.4707,3.457,3.4434,3.4434,3.4297,3.416,3.416,3.416,3.416,3.416,3.3699,3.3386,3.3386,3.323,3.3164,3.3164,3.3164,3.3223,3.3367,3.3386,3.3613,3.4075,3.3938,3.4062,3.4668,3.4531,3.4648,3.5098,3.5527,3.5651,3.547,3.5889,3.6289,3.6689,3.6461,3.6325,2.4148,2.4734,2.5247,2.5862,2.6822,2.7759,2.8207,2.8842,2.9471,2.9837,3.0141,3.0331,3.0419,3.0566,3.0683,3.0771,3.1139,3.1446,3.1446,3.1446,3.1329,3.0993,3.0964,3.0744,3.0188,3.017,3.0199,3.0302,3.0141,3.0082,3.0129,2.9994,2.9789,2.9555,2.9555,2.9295,2.8842,2.87,2.854,2.8306,2.8218,2.8131,2.8043,2.7955,2.778,2.7613,2.7613,2.7726,2.7929,2.7929,2.8185,2.8638,2.8885,2.9661,3.0494,2.8841,2.8085,2.7869,2.7869,2.8879,3.0334,3.1358,3.2593,3.3928,3.507,3.5332,3.5273,3.5391,3.541,3.541,3.541,3.541,3.541,3.541,3.541,3.541,3.541,3.5234,3.5059,3.5059,3.4863,3.4707,3.4707,3.4707,3.4707,3.4707,3.418,3.3769,3.3769,3.3769,3.3769,3.3769,3.3769,3.3769,3.3769,3.3769,3.3965,3.4446,3.4349,3.4492,3.5039,3.5059,3.5273,3.5742,3.6152,3.6582,3.7012,3.7324,3.7695,3.8105,3.7793,3.7812,2.488,2.5071,2.5613,2.7751,2.8827,2.9511,3.0155,3.1049,3.1607,3.1315,3.1256,3.1359,3.1681,3.149,3.1388,3.1695,3.1768,3.1783,3.1783,3.1783,3.1666,3.1329,3.13,3.1168,0.0,3.0746,3.092,3.1242,3.0727,3.0507,3.0773,3.0203,2.9906,2.9892,2.9892,2.9877,2.9862,2.954,2.9339,2.9364,2.9017,2.871,2.8379,2.8057,2.7911,2.7897,2.7897,2.8807,3.0304,3.0304,3.1211,3.2623,3.264,3.2677,3.2713,3.2623,3.2606,3.2589,3.2589,3.3568,3.479,3.4844,3.5633,3.6645,3.709,3.6934,3.6734,3.7109,3.7226,3.7226,3.7226,3.7226,3.7226,3.7226,3.7226,3.7226,3.7226,3.6562,3.5942,3.5942,3.5293,3.4707,3.4707,3.4707,3.4707,3.4707,3.4668,3.4668,3.4668,3.4668,3.4668,3.4668,3.4668,3.4668,3.4668,3.4668,3.4863,3.5332,3.4922,3.5078,3.5937,3.5942,3.6191,3.6656,3.7051,3.7461,3.7855,3.7874,3.8125,3.8591,3.8571,3.8591,2.552,2.6632,2.7788,2.8549,2.9544,3.0451,3.089,3.1242,3.1446,3.1329,3.1139,3.0949,3.0903,3.092,3.1095,3.1417,3.1841,3.2193,3.2412,3.2251,3.1915,3.1373,3.2311,0.0,0.0,0.0,0.0,3.1285,3.111,3.1124,3.1446,3.1271,3.0949,3.051,3.1629,3.2009,3.164,3.2608,3.3117,3.3117,3.2718,3.232,3.1902,3.2108,3.1934,3.1509,3.1776,3.1932,3.1999,3.1999,3.2292,3.282,3.3042,3.377,3.4757,3.499,3.5724,3.6271,3.3706,3.3783,3.4989,3.4989,3.5949,3.7109,3.7246,3.7207,3.7109,3.7266,3.7305,3.7305,3.7305,3.7305,3.7305,3.7305,3.7305,3.7305,3.7305,3.707,3.6875,3.6875,3.6621,3.6426,3.6426,3.6426,3.6426,3.6426,3.543,3.4707,3.4707,3.4707,3.4707,3.4707,3.4707,3.4707,3.4707,3.4707,3.4902,3.5371,3.5508,3.584,3.6426,3.6719,3.6934,3.709,3.7809,3.8223,3.8359,3.8945,3.9316,3.9453,3.9453,3.9453,2.6749,2.7861,2.8915,2.9734,3.0554,3.1256,3.1578,3.1666,3.1622,3.1505,3.1037,3.0627,3.058,3.0598,3.104,3.2261,3.2345,3.2819,3.4349,3.382,3.3312,3.3451,3.442,3.4948,0.0,0.0,0.0,3.3161,3.3353,3.3524,3.37,3.3758,3.3582,3.3146,3.4038,3.4359,3.3982,3.4773,3.5101,3.5003,3.4741,3.4444,3.4183,3.4479,3.4363,3.3899,3.4019,3.4154,3.422,3.4079,3.4355,3.4902,3.5263,3.6017,3.7012,3.737,3.8172,3.8649,3.5852,3.5484,3.6298,3.6298,3.6833,3.7559,3.7715,3.7637,3.7559,3.7715,3.7871,3.7988,3.7988,3.8105,3.8184,3.8027,3.7988,3.793,3.7793,3.7637,3.7519,3.7519,3.7402,3.7305,3.7305,3.7305,3.7305,3.7305,3.6348,3.5566,3.543,3.541,3.541,3.541,3.5527,3.5625,3.5625,3.5625,3.5762,3.6055,3.6328,3.6601,3.691,3.7305,3.7598,3.7754,3.8437,3.8923,3.908,3.9766,4.0117,4.0117,4.0117,4.0117,2.8388,2.8769,2.9095,3.1271,3.1827,3.1929,3.2222,3.2338,3.2264,3.1897,3.1143,3.0595,3.0751,3.0686,3.1478,3.4013,3.338,3.3812,3.7361,3.6316,3.5759,0.0,0.0,0.0,0.0,0.0,0.0,3.6815,0.0,3.7283,3.7176,3.7301,3.7325,3.7349,3.7005,3.6798,3.6781,3.6138,3.5647,3.5271,3.5271,3.5271,3.5253,3.5271,3.5271,3.5236,3.4851,3.5574,3.692,3.6533,3.7293,3.8691,3.9082,3.9238,3.9297,3.9726,3.9902,3.9766,3.8945,3.8689,3.8669,3.865,3.832,3.8066,3.8457,3.8281,3.8047,3.8476,3.8887,3.9199,3.9238,3.957,3.9785,3.9336,3.9238,3.9121,3.8767,3.832,3.7991,3.7952,3.7656,3.7363,3.7383,3.7383,3.7363,3.7363,3.7344,3.7187,3.6792,3.6734,3.6734,3.6734,3.7051,3.7305,3.7305,3.7305,3.7305,3.7305,3.7324,3.7324,3.7324,3.7754,3.8184,3.863,3.9043,3.9492,3.9922,4.0371,4.0586,4.0586,4.0567,4.0567,2.8754,3.0071,3.1388,3.171,3.2163,3.2485,3.2324,3.2787,3.3024,3.2135,3.2308,3.2149,3.0506,3.2168,0.0,3.3491,3.5117,0.0,3.84,3.821,0.0,3.8125,0.0,3.9855,3.9299,4.0685,0.0,0.0,3.8908,3.774,3.7929,3.7946,3.7869,3.7661,3.8784,3.9267,3.906,3.9816,3.9807,3.9088,3.9088,3.8936,3.8652,3.8955,3.8917,3.8652,3.8841,3.8994,3.9086,3.899,3.9214,3.957,3.9668,3.9726,3.9726,3.9844,3.9902,3.9863,3.9648,3.9551,3.9492,3.916,3.8965,3.8828,3.8633,3.8532,3.8496,3.8926,3.9121,3.9277,3.9629,3.9805,3.9863,3.9746,3.9726,3.9687,3.959,3.9473,3.9297,3.8945,3.8535,3.834,3.8652,3.8457,3.8278,3.8278,3.7969,3.7617,3.7187,3.7148,3.7148,3.7148,3.7226,3.7305,3.7305,3.7305,3.7305,3.7305,3.7598,3.7773,3.7773,3.8476,3.8926,3.9043,3.9805,4.0234,4.0371,4.1113,4.1484,4.1484,4.1797,4.1738,2.9968,3.1095,3.209,3.2193,3.2979,3.3545,3.2752,3.3307,3.3628,3.2317,3.2396,3.2258,3.0778,3.2818,3.4744,0.0,0.0,0.0,4.1031,4.0776,4.0622,0.0,4.2007,0.0,4.1921,4.2787,4.3242,0.0,4.1358,4.0365,4.0359,4.0523,4.0523,4.0388,4.1155,4.1367,4.0993,4.1515,4.1562,4.1074,4.0898,4.0684,4.0469,4.0703,4.0684,4.0449,0.0,4.0352,4.0156,3.9961,3.9902,3.9922,4.0098,4.0176,4.0195,4.0391,4.0449,4.0449,4.0449,4.0449,4.0351,3.9707,3.9375,3.9199,3.916,3.9004,3.8945,3.9375,3.9629,3.9844,4.0098,4.0312,4.041,4.0215,4.0176,4.0117,3.9941,3.9902,3.9824,3.9551,3.9316,3.9238,3.9473,3.9316,3.916,3.916,3.8945,3.8711,3.8476,3.793,3.7578,3.7578,3.7734,3.7851,3.7851,3.7851,3.7851,3.7851,3.8262,3.8496,3.8496,3.9141,3.959,3.9785,4.0449,4.0898,4.1094,4.1953,4.2363,4.2363,4.2598,4.2578,3.1544,3.2243,3.2722,3.2998,3.4155,3.4832,3.3442,3.3846,3.4086,3.2506,3.2146,3.198,3.1458,3.3282,3.5463,3.7206,0.0,4.03,4.3974,4.3467,4.3326,4.4884,4.4785,4.4551,4.4492,4.4121,4.3887,4.3887,4.3828,4.3613,4.3183,4.3496,4.3711,4.3711,4.3359,4.2949,4.2519,4.2148,4.1933,4.1875,4.1523,4.1387,4.1387,4.1387,4.1348,4.1269,0.0,0.0,4.0586,4.0215,4.0059,4.0098,4.0469,4.0567,4.0644,4.1035,4.1211,4.1211,4.1211,4.1211,4.1074,4.0234,3.9707,3.9453,3.9785,3.9609,3.9394,3.9844,4.0234,4.0489,4.0586,4.0879,4.1113,4.0703,4.0567,4.0508,4.0137,4.0019,4.0,4.0059,3.998,3.9922,3.9961,3.9941,3.9902,3.9902,3.9902,3.9902,3.9902,3.8887,3.8184,3.8184,3.8516,3.875,3.875,3.875,3.875,3.875,3.9101,3.9297,3.9297,3.9726,4.0176,4.0605,4.1035,4.1465,4.1894,4.2695,4.3127,4.3127,4.3125,4.3166,3.2549,3.4377,3.6675,3.4941,3.5577,3.6231,3.4578,3.4426,3.4234,3.2943,3.32,3.3402,3.2463,3.5002,3.7363,3.7552,4.0233,4.2914,4.4661,4.5016,4.5245,0.0,4.5508,4.5312,0.0,0.0,0.0,0.0,0.0,4.4082,4.3613,4.3672,4.3711,4.3711,4.3633,4.3398,4.2969,4.2891,4.2676,4.2324,4.2246,4.2207,4.2207,4.2207,4.2031,4.168,0.0,0.0,4.1055,4.0976,4.0957,4.0996,4.1035,4.1055,4.1113,4.1191,4.1211,4.1211,4.1211,4.1211,4.1094,4.0586,4.0351,4.0234,3.998,3.9844,3.9863,4.0293,4.0469,4.0605,4.0976,4.1152,4.1191,4.1113,4.1055,4.1074,4.1015,4.0664,4.0527,4.0879,4.0371,4.0,4.0351,4.0117,3.9902,3.9902,3.9902,3.9902,3.9902,3.9687,3.9551,3.9551,3.9629,3.9668,3.9668,3.9668,3.9668,3.9668,3.9726,3.9766,3.9766,4.0195,4.0625,4.1093,4.1484,4.1894,4.2324,4.2832,4.3127,4.3127,4.3437,4.3418,3.5579,3.6642,3.7879,3.6631,3.7024,3.717,3.5041,3.4957,3.4859,3.3129,3.3475,3.3869,3.31,3.55,3.7543,3.7451,4.0048,4.2617,4.4121,4.4726,4.5254,4.5918,4.5801,4.5586,0.0,0.0,0.0,0.0,0.0,4.4531,4.4082,4.3828,4.3711,4.3711,4.3711,4.3613,4.3398,4.3183,4.2969,4.2754,4.2539,4.2382,4.2382,4.2382,4.2284,4.2129,4.2129,0.0,4.1816,4.1816,4.1699,4.1504,4.1504,4.1367,4.1211,4.1211,4.1211,4.125,4.1426,4.1504,4.1504,4.1465,4.1035,4.0489,4.0547,4.041,4.0312,4.0742,4.0859,4.0918,4.1152,4.1211,4.1211,4.1211,4.1211,4.1211,4.1211,4.1016,4.0918,4.1172,4.1016,4.0879,4.0859,4.0879,4.082,4.0586,4.0605,4.0605,4.0605,4.0605,4.0391,3.9941,3.9902,3.9902,3.9902,3.9902,3.9902,3.9902,4.0098,4.0215,4.0215,4.084,4.1289,4.1504,4.2129,4.2558,4.2773,4.3203,4.3398,4.3418,4.3613,4.3594,3.8348,3.8792,3.9137,3.8261,3.8428,3.8202,3.5629,3.5385,3.5176,3.3203,3.332,3.3769,3.3711,3.5449,3.7031,3.75,3.9512,4.166,4.3457,4.4258,4.5117,4.6289,4.623,0.0,4.6137,0.0,0.0,0.0,0.0,0.0,4.4433,4.4043,4.3808,4.3711,4.3711,4.3711,4.3711,4.3379,4.3223,4.3203,4.2871,4.2695,4.2695,4.2695,4.2616,4.2558,4.2558,0.0,0.0,4.2382,4.2187,4.1933,4.1933,4.1738,4.1445,4.1445,4.1445,4.1484,4.1816,4.1933,4.1992,4.2324,4.164,4.0859,4.1211,4.0996,4.0742,4.1191,4.1348,4.1367,4.1426,4.1445,4.1445,4.1445,4.1445,4.1445,4.1445,4.1445,4.1445,4.1445,4.1699,4.1836,4.1504,4.1719,4.1816,4.1484,4.1445,4.1445,4.1445,4.1445,4.1191,4.0508,4.0273,4.0215,4.0293,4.0312,4.0332,4.043,4.0742,4.0899,4.0899,4.1582,4.1973,4.207,4.2734,4.3125,4.3223,4.3555,4.3711,4.3711,4.3711,4.3711,3.8985,4.0614,4.2611,4.0138,3.9888,3.9619,3.7093,3.5641,3.4434,3.3086,3.2851,3.3262,3.4375,3.5117,3.6211,3.818,3.9648,4.1308,4.3418,4.4785,4.5879,4.6733,0.0,0.0,4.7402,0.0,0.0,0.0,0.0,0.0,4.4453,4.4355,4.4141,4.3711,4.3711,4.3711,4.3711,4.3672,4.3652,4.3652,4.3613,4.3594,4.3594,4.3594,4.3379,4.3068,0.0,0.0,0.0,4.2382,4.2362,4.2323,4.2323,4.2304,4.2265,4.2265,4.2265,4.2284,4.2323,4.2323,4.2343,4.2382,4.209,4.1699,4.1738,4.1445,4.123,4.1621,4.1738,4.1836,4.2207,4.2265,4.2265,4.2265,4.2265,4.2265,4.2265,4.2265,4.2265,4.2265,4.2304,4.2323,4.2324,4.2304,4.2323,4.2324,4.2265,4.2265,4.2265,4.2265,4.2245,4.2167,4.1504,4.1211,4.1582,4.1621,4.1777,4.2168,4.2187,4.2206,4.2206,4.2284,4.2558,4.2949,4.3087,4.3262,4.3652,4.3691,4.3711,4.3711,4.3711,4.3711,4.144,4.2404,4.3332,4.1709,4.0896,3.9844,3.7301,3.5859,3.4668,3.3125,3.2988,3.3418,3.418,3.4687,3.5508,3.7203,3.8086,3.9336,4.1484,4.2695,4.3945,4.5543,4.6387,0.0,0.0,0.0,0.0,0.0,0.0,0.0,4.4824,4.4531,4.418,4.3711,4.3711,4.3711,4.3711,4.3711,4.3711,4.3711,4.3711,4.3711,4.3711,4.3711,4.3613,4.3457,0.0,0.0,0.0,4.3183,4.3047,4.2812,4.2812,4.2656,4.2382,4.2382,4.2382,4.2421,4.2734,4.2812,4.2871,4.3105,4.291,4.2519,4.2266,4.207,4.1973,4.2129,4.2168,4.2207,4.2343,4.2382,4.2382,4.2382,4.2382,4.2382,4.2382,4.2382,4.2382,4.2382,4.2637,4.2734,4.244,4.2637,4.2734,4.2421,4.2382,4.2382,4.2382,4.2382,4.2382,4.2382,4.2129,4.1992,4.2168,4.2168,4.2246,4.2382,4.2382,4.2382,4.2382,4.2676,4.2891,4.3107,4.332,4.3535,4.3711,4.3711,4.3711,4.3711,4.3711,4.3711,4.2676,4.3203,4.334,4.2617,4.1328,3.9687,3.7262,3.5932,3.4726,3.3125,3.3125,3.3594,3.416,3.4492,3.5137,3.6499,3.7129,3.8242,4.041,4.1562,4.293,4.498,0.0,0.0,0.0,0.0,0.0,0.0,0.0,0.0,0.0,4.4824,4.4316,4.373,4.3711,4.3711,4.3711,4.3711,4.3711,4.3711,4.3711,4.3711,4.3711,4.3711,4.3711,4.3711,0.0,0.0,0.0,4.3711,4.3535,4.3262,4.3262,4.3086,4.2772,4.2772,4.2772,4.2851,4.3164,4.3262,4.3301,4.3613,4.3496,4.3183,4.2754,4.2519,4.2421,4.2578,4.2715,4.2772,4.2772,4.2772,4.2772,4.2772,4.2772,4.2772,4.2772,4.2772,4.2772,4.2772,4.3047,4.3164,4.2851,4.3066,4.3164,4.2851,4.2772,4.2772,4.2772,4.2772,4.2754,4.2637,4.2617,4.2617,4.2617,4.2617,4.2676,4.2793,4.2772,4.2772,4.2772,4.3105,4.3262,4.3262,4.3555,4.3711,4.3711,4.3711,4.3711,4.3711,4.3711,4.3711,4.1973,4.2754,4.2969,4.2539,4.1152,3.9336,3.7203,3.5678,3.4336,3.3066,3.3125,3.3691,3.4531,3.4687,3.5137,3.6499,3.7363,3.8672,4.0898,4.2305,4.3711,0.0,0.0,4.6641,0.0,0.0,0.0,0.0,0.0,0.0,0.0,4.5254,4.4609,4.373,4.3711,4.3711,4.3711,4.3711,4.3711,4.3711,4.3711,4.3711,4.3711,4.3711,4.3711,0.0,0.0,0.0,0.0,4.3711,4.3711,4.3691,4.3691,4.3691,4.3691,4.3691,4.3691,4.3691,4.3691,4.3691,4.3691,4.3711,4.3691,4.3613,4.3203,4.2773,4.2519,4.2949,4.3359,4.3691,4.3691,4.3691,4.3691,4.3691,4.3691,4.3691,4.3691,4.3691,4.3691,4.3691,4.3691,4.3691,4.3691,4.3691,4.3691,4.3691,4.3691,4.3691,4.3691,4.3691,4.3535,4.3166,4.3066,4.3066,4.3066,4.3066,4.3242,4.3672,4.3691,4.3691,4.3691,4.3691,4.3691,4.3691,4.3711,4.3711,4.3711,4.3711,4.3711,4.3711,4.3711,4.3711,3.8848,3.9668,4.0176,3.918,3.8516,3.7715,3.6152,3.5703,3.5234,3.3945,3.4004,3.4473,3.5059,3.5176,3.5781,3.7711,3.8203,3.9023,4.0937,4.2305,4.3613,4.5058,4.6641,4.7715,0.0,0.0,0.0,0.0,0.0,0.0,0.0,4.5254,4.4766,4.4199,4.3867,4.3711,4.3711,4.3711,4.3711,4.3711,4.3711,4.3711,4.3711,4.3711,0.0,0.0,0.0,0.0,0.0,4.3711,4.3711,4.3711,4.3711,4.3711,4.3711,4.3711,4.3711,4.3711,4.3711,4.3711,4.3711,4.3711,4.3711,4.3691,4.3555,4.3418,4.332,4.3476,4.3183,4.2969,4.3555,4.3262,4.2969,4.3574,4.3476,4.3359,4.3633,4.3711,4.3711,4.3711,4.3711,4.3711,4.3711,4.3711,4.3711,4.3711,4.3711,4.3711,4.3711,4.3711,4.3652,4.3516,4.3496,4.3398,4.3105,4.3127,4.3262,4.3672,4.3711,4.3711,4.3711,4.3711,4.3711,4.3711,4.3711,4.3867,4.418,4.3867,4.3711,4.3711,4.3711,4.3711,3.6719,3.7754,3.8496,3.7539,3.7187,3.6777,3.5644,3.5469,3.5254,3.431,3.4414,3.4844,3.5312,3.5391,3.5937,3.7614,3.8125,3.8945,4.0684,4.2168,0.0,4.5312,0.0,0.0,0.0,0.0,0.0,0.0,0.0,0.0,0.0,4.5351,4.4902,4.4648,4.4023,4.3711,4.3711,4.3711,4.3711,4.3711,4.3711,4.3711,4.3711,4.3711,0.0,0.0,0.0,0.0,0.0,4.3711,4.3711,4.3711,4.3711,4.3711,4.3711,4.3711,4.3711,4.3711,4.3711,4.3711,4.3711,4.3711,4.3594,4.3496,4.3652,4.3711,4.3711,4.3711,4.332,4.2988,4.3379,4.3066,4.2812,4.334,4.3262,4.3183,4.3613,4.3711,4.3711,4.3711,4.3711,4.3711,4.3711,4.3711,4.3711,4.3711,4.3711,4.3711,4.3711,4.3711,4.3633,4.3476,4.3457,4.3359,4.3105,4.3223,4.3418,4.3691,4.3711,4.3711,4.3711,4.3867,4.3965,4.3965,4.4121,4.4336,4.4629,4.418,4.3867,4.3711,4.3711,4.3711,0.0,3.668,3.7539,3.709,3.6699,3.6265,3.543,3.4961,0.0,3.4231,3.4453,3.4902,3.543,3.5488,3.5762,3.6773,3.7559,3.8635,4.0372,4.2187,0.0,0.0,4.7129,0.0,0.0,0.0,0.0,0.0,0.0,0.0,0.0,4.5488,4.4977,4.4977,4.416,4.3711,4.3711,4.3711,4.3711,4.3711,4.3711,4.3711,4.3711,4.3711,0.0,0.0,0.0,0.0,0.0,4.3711,4.3711,4.3711,4.3711,4.3711,4.3711,4.3711,4.3711,4.3711,4.3711,4.3711,4.3711,4.3711,4.3437,4.3203,4.3594,4.3672,4.3633,4.3691,4.3652,4.3535,4.3203,4.3127,4.3087,4.3146,4.3105,4.3183,4.3613,4.3711,4.3711,4.3711,4.3711,4.3711,4.3711,4.3711,4.3711,4.3711,4.3711,4.3711,4.3711,4.3711,4.3555,4.3164,4.3125,4.3125,4.3125,4.3457,4.3672,4.3711,4.3711,4.3711,4.375,4.416,4.4414,4.4433,4.4863,4.4996,4.498,4.4629,4.4199,4.3711,4.3711,4.3711,3.3291,0.0,3.4805,3.4043,3.4023,3.4141,0.0,3.4316,3.4668,3.457,3.4922,3.5566,3.6641,3.6309,3.6582,3.8789,3.9297,4.0039,4.1699,4.4043,0.0,4.7578,0.0,0.0,0.0,0.0,0.0,0.0,0.0,0.0,0.0,4.5488,4.4977,4.4977,4.416,4.3711,4.3711,4.3711,4.3711,4.3711,4.3711,4.3711,4.3711,4.3711,0.0,0.0,0.0,0.0,4.3711,4.3711,4.3711,4.3711,4.3711,4.3711,4.3711,4.3711,4.3711,4.3711,4.3711,4.3711,4.3711,4.3711,4.3633,4.3574,4.3672,4.3242,4.2811,4.3516,4.3242,4.2851,4.3418,4.3066,4.2734,4.3398,4.3301,4.3183,4.3613,4.3711,4.3711,4.3711,4.3711,4.3711,4.3711,4.3711,4.3711,4.3711,4.3711,4.3711,4.3711,4.3711,4.3672,4.3574,4.3555,4.3555,4.3555,4.3359,4.3359,4.3691,4.3711,4.3867,4.4219,4.4336,4.4551,4.4863,4.5312,4.5195,4.4551,4.4766,4.4473,4.3711,4.3711,4.3711,3.2889,3.382,3.4512,3.3848,3.4004,3.4336,3.4336,3.4512,3.4707,3.4707,3.5215,3.5957,3.6836,3.6797,3.7266,3.9258,3.9922,4.0996,4.326,4.5289,4.6914,4.7812,0.0,0.0,0.0,0.0,0.0,0.0,0.0,0.0,0.0,4.5683,4.5234,4.4996,4.4375,4.3926,4.3711,4.3711,4.3711,4.3711,4.3711,4.3711,4.3711,4.3711,0.0,0.0,0.0,0.0,4.3711,4.3711,4.3711,4.3711,4.3711,4.3711,4.3711,4.3711,4.3711,4.3711,4.3711,4.3711,4.3711,4.3711,4.3711,4.3711,4.3711,4.3379,4.3105,4.3574,4.3379,4.3086,4.334,4.3066,4.2851,4.3301,4.3242,4.3183,4.3613,4.3711,4.3711,4.3711,4.3711,4.3711,4.3711,4.3711,4.3711,4.3711,4.3711,4.3711,4.3711,4.3711,4.3711,4.3711,4.3711,4.3711,4.3711,4.3496,4.3457,4.3691,4.3711,4.3906,4.4375,4.459,4.498,4.5605,4.584,4.5547,4.4687,4.5117,4.4883,4.4023,4.4219,4.4316,3.3562,3.4674,3.5508,3.4785,3.5059,3.5449,3.5312,3.498,3.4726,3.4785,3.5449,3.623,3.6968,3.7344,3.8066,3.9551,4.0586,4.2148,4.5019,4.6348,4.7207,4.776,0.0,0.0,0.0,0.0,0.0,0.0,0.0,0.0,0.0,4.5976,4.5566,4.5137,4.4707,4.4277,4.3808,4.373,4.3711,4.3711,4.3711,4.3711,4.3711,4.3711,4.3711,0.0,0.0,0.0,4.3711,4.3711,4.3711,4.3711,4.3711,4.3711,4.3711,4.3711,4.3711,4.3711,4.3711,4.3711,4.3711,4.3711,4.3711,4.3711,4.3711,4.3711,4.3711,4.3711,4.3711,4.3633,4.3262,4.3183,4.3183,4.3183,4.3183,4.3262,4.3633,4.3711,4.3711,4.3711,4.3711,4.3711,4.3711,4.3711,4.3711,4.3711,4.3711,4.3711,4.3711,4.3711,4.3711,4.3711,4.3711,4.3711,4.3711,4.3769,4.3789,4.3711,4.3711,4.3945,4.4473,4.4961,4.5566,4.6289,4.6308,4.5918,4.5117,4.5508,4.5273,4.4492,4.4863,4.4977,3.5079,3.6248,3.6543,3.4681,3.5059,3.5723,3.498,3.4746,3.4805,3.5215,3.5684,3.6601,3.8476,3.8867,3.9687,4.209,4.3516,4.5,0.0,0.0,4.7773,0.0,0.0,0.0,0.0,0.0,0.0,0.0,0.0,0.0,0.0,0.0,4.6016,4.5586,4.5156,4.4726,4.4297,4.3906,4.3711,4.3711,4.3711,4.3711,4.3711,4.3711,4.3711,0.0,0.0,4.3711,4.3711,4.3711,4.3711,4.3711,4.3711,4.3711,4.3711,4.3711,4.3711,4.3711,4.3711,4.3711,4.3711,4.3711,4.3711,4.3711,4.3711,4.3711,4.3711,4.3711,4.3711,4.3691,4.3633,4.3613,4.3613,4.3613,4.3613,4.3633,4.3691,4.3711,4.3711,4.3711,4.3711,4.3711,4.3711,4.3711,4.3711,4.3711,4.3711,4.3711,4.3711,4.3711,4.3711,4.3711,4.3711,4.3711,4.3711,4.4062,4.4121,4.373,4.3711,4.4062,4.486,4.5683,4.6172,4.6308,4.6308,4.6055,4.5566,4.5644,4.541,4.4922,4.4957,4.4977,3.4654,3.5936,3.6777,3.6016,3.6777,3.7637,3.7226,3.6777,3.6504,3.6719,3.7109,3.791,3.9609,4.0293,4.1465,4.4104,0.0,4.6074,4.709,0.0,0.0,0.0,0.0,0.0,0.0,0.0,0.0,0.0,0.0,0.0,0.0,0.0,4.6348,4.5703,4.5488,4.5176,4.4746,4.4297,4.3945,4.3711,4.3711,4.3711,4.3711,4.3711,4.3711,4.3711,0.0,4.3711,4.3711,4.3711,4.3711,4.3711,4.3711,4.3711,4.3711,4.3711,4.3711,4.3711,4.3711,4.3711,4.3711,4.3711,4.3711,4.3711,4.3711,4.3711,4.3711,4.3711,4.3711,4.3711,4.3711,4.3711,4.3711,4.3711,4.3711,4.3711,4.3711,4.3711,4.3711,4.3711,4.3711,4.3711,4.3711,4.3711,4.3711,4.3711,4.3711,4.3711,4.3711,4.3926,4.4082,4.4082,4.4277,4.4414,4.4414,4.4609,4.4648,4.4433,4.4414,4.4707,4.5351,4.5976,4.6308,4.6308,4.6308,4.6094,4.5727,4.5898,4.5801,4.5371,4.5605,4.5723,3.4368,3.5619,3.6851,3.7441,3.8262,3.9004,3.9414,3.8769,3.8184,3.8594,3.8945,3.9551,4.0742,4.1914,4.3398,4.5488,4.6348,4.6855,0.0,0.0,0.0,0.0,0.0,0.0,0.0,0.0,0.0,0.0,0.0,0.0,0.0,0.0,4.6699,4.584,4.582,4.5566,4.4996,4.4707,4.4316,4.3867,4.375,4.3711,4.3711,4.3711,4.3711,4.3711,4.3711,4.3711,4.3711,4.3711,4.3711,4.3711,4.3711,4.3711,4.3711,4.3711,4.3711,4.3711,4.3711,4.3711,4.3711,4.3711,4.3711,4.3711,4.3711,4.3711,4.3711,4.3711,4.3789,4.3848,4.373,4.3711,4.3711,4.3711,4.3711,4.3711,4.3711,4.3711,4.3711,4.3711,4.3711,4.3711,4.3711,4.3711,4.3711,4.3711,4.3711,4.3711,4.3711,4.4023,4.4277,4.4394,4.4687,4.4961,4.5156,4.5035,4.5074,4.5312,4.5234,4.5332,4.5707,4.6074,4.6308,4.6308,4.6308,4.6152,4.582,4.6152,4.6133,4.584,4.6152,4.6308,3.5497,3.6269,3.7007,3.822,3.8242,3.8401,4.0021,3.9453,3.9021,4.0644,4.0996,4.125,4.2129,4.3984,4.5586,4.6172,4.7285,4.8086,0.0,0.0,0.0,0.0,0.0,0.0,0.0,0.0,0.0,0.0,0.0,0.0,0.0,0.0,0.0,4.6289,4.625,4.5859,4.4996,4.4957,4.4766,4.4336,4.3906,4.3711,4.3711,4.3711,4.3711,4.3711,4.3711,4.3711,4.3711,4.3711,4.3711,4.3711,4.3711,4.3711,4.3711,4.3711,4.3711,4.3711,4.3711,4.3711,4.3711,4.3711,4.3711,4.3711,4.3711,4.3711,4.3711,4.3711,4.4023,4.4258,4.3808,4.3711,4.3711,4.3711,4.3711,4.3711,4.3711,4.3711,4.3711,4.3711,4.3711,4.3711,4.3711,4.3711,4.3711,4.3711,4.3711,4.3711,4.3711,4.373,4.3926,4.4355,4.4433,4.4766,4.5566,4.5254,4.5371,4.6172,4.584,4.5644,4.5727,4.6074,4.6308,4.6308,4.6308,4.6289,4.625,4.6289,4.6289,4.625,4.6289,4.6308,3.4583,3.5918,3.7246,3.7988,3.8672,3.9531,4.0976,4.1348,4.1797,4.3262,4.3359,4.3359,4.3884,4.4941,4.5898,4.6582,4.7324,4.791,0.0,0.0,0.0,0.0,0.0,0.0,0.0,0.0,0.0,0.0,0.0,0.0,0.0,0.0,0.0,4.6328,4.6055,4.5762,4.543,4.4902,4.4551,4.4394,4.3926,4.3711,4.3711,4.3711,4.3711,4.3711,4.3711,4.3711,4.373,4.4023,4.3965,4.3711,4.3711,4.3711,4.3711,4.3711,4.3711,4.3711,4.3711,4.3711,4.3711,4.3711,4.3711,4.3711,4.3711,4.3711,4.3769,4.4062,4.4258,4.4355,4.418,4.4336,4.4453,4.4199,4.4141,4.4062,4.3769,4.3711,4.3789,4.4082,4.3906,4.3789,4.4082,4.3887,4.3711,4.3711,4.3711,4.3808,4.4101,4.4355,4.4687,4.5156,4.5172,4.529,4.5599,4.5222,4.5086,4.5412,4.5594,4.5801,4.6055,4.6211,4.6308,4.6308,4.6308,4.6308,4.6308,4.6308,4.6308,4.6308,4.6308,4.6308,3.457,3.6055,3.7637,3.8184,3.9316,4.0703,4.2266,4.2851,4.3535,4.5098,4.498,4.4687,4.4938,4.5371,0.0,0.0,0.0,0.0,0.0,0.0,0.0,0.0,0.0,0.0,0.0,0.0,0.0,0.0,0.0,0.0,0.0,0.0,0.0,0.0,4.6016,4.5742,4.5469,4.4883,4.4453,4.418,4.3848,4.3711,4.3711,4.3711,4.3711,4.3711,4.3711,4.3711,4.373,4.4199,4.4219,4.3906,4.3769,4.3711,4.3711,4.3711,4.3711,4.3711,4.3711,4.3711,4.3711,4.3711,4.3711,4.3711,4.3711,4.3711,4.3808,4.4258,4.4492,4.4629,4.4766,4.4805,4.4707,4.4277,4.4297,4.4277,4.3808,4.3828,4.3984,4.4141,4.3926,4.3848,4.4316,4.4141,4.3965,4.4101,4.4121,4.4155,4.434,4.4716,4.511,4.5452,4.54,4.5387,4.5387,4.5078,4.4902,4.4902,4.525,4.5648,4.607,4.6221,4.6308,4.6308,4.6308,4.6308,4.6308,4.6308,4.6308,4.6308,4.6308,4.6308,3.5898,3.6899,3.8125,3.8984,4.0215,4.1758,4.3906,4.373,4.3752,4.5879,4.5625,4.4996,4.4996,4.5391,0.0,0.0,0.0,0.0,0.0,0.0,0.0,0.0,0.0,0.0,0.0,0.0,0.0,0.0,0.0,0.0,0.0,0.0,0.0,0.0,4.6289,4.5879,4.4996,4.5019,4.457,4.3711,4.3711,4.3711,4.3711,4.3711,4.3711,4.3711,4.3711,4.3711,4.375,4.4199,4.4394,4.4355,4.3887,4.3711,4.3711,4.3711,4.3711,4.3711,4.3711,4.3711,4.3711,4.3711,4.3711,4.3711,4.3711,4.3711,4.3808,4.4277,4.4707,4.5137,4.5566,4.5039,4.4297,4.3828,4.4062,4.4277,4.3808,4.4062,4.4258,4.3789,4.3711,4.3848,4.4316,4.4394,4.4551,4.4918,4.4977,4.4807,4.4356,4.4698,4.4982,4.4996,4.4919,4.4902,4.4902,4.4902,4.4902,4.4902,4.4902,4.5122,4.5563,4.6046,4.6308,4.6308,4.6308,4.6308,4.6308,4.6308,4.6308,4.6308,4.6308,4.6308,3.4785,3.625,3.803,3.8613,4.0879,4.3281,4.4551,4.5098,4.5703,4.6953,4.6758,4.6226,4.5976,4.6269,0.0,0.0,0.0,0.0,0.0,0.0,0.0,0.0,0.0,0.0,0.0,0.0,0.0,0.0,0.0,0.0,0.0,0.0,0.0,0.0,4.6016,4.5586,4.4996,4.4726,4.4277,4.3711,4.3711,4.3711,4.3711,4.4043,4.4023,4.373,4.4043,4.4199,4.4199,4.4336,4.4394,4.4355,4.3887,4.3711,4.3711,4.3711,4.3711,4.3711,4.3711,4.3711,4.3711,4.3711,4.3711,4.3769,4.4082,4.4199,4.4355,4.5098,4.5391,4.5508,4.5644,4.5488,4.5195,4.4746,4.4512,4.4277,4.3808,4.3808,4.3965,4.416,4.3926,4.3848,4.4316,4.4394,4.4433,4.457,4.4844,4.4966,4.4804,4.4875,4.493,4.4932,4.4605,4.4415,4.4415,4.4104,4.3926,4.3926,4.4237,4.4636,4.5078,4.5255,4.5343,4.5343,4.5651,4.5826,4.5826,4.5826,4.5826,4.5783,4.5475,4.5475,3.6348,3.7773,3.9492,4.0605,4.2441,4.4394,4.5937,4.6426,4.6699,4.7207,4.6973,4.666,4.6562,4.6894,0.0,0.0,0.0,0.0,0.0,0.0,0.0,0.0,0.0,0.0,0.0,0.0,0.0,0.0,0.0,0.0,0.0,0.0,0.0,0.0,4.6055,4.5644,4.4996,4.4766,4.4336,4.3711,4.3711,4.3711,4.373,4.418,4.4258,4.3984,4.4277,4.4492,4.4629,4.4473,4.4609,4.4844,4.4219,4.3984,4.3984,4.3984,4.3867,4.3711,4.3711,4.3711,4.3711,4.3711,4.3711,4.3789,4.4258,4.4394,4.457,4.543,4.5727,4.5766,4.5879,4.5534,4.5118,4.5035,4.4824,4.457,4.4297,4.4219,4.4233,4.4337,4.412,4.4039,4.4273,4.4307,4.4408,4.4562,4.464,4.476,4.4941,4.4618,4.4415,4.4592,4.4193,4.3926,4.3926,4.3678,4.3499,4.3499,4.3767,4.406,4.4326,4.4681,4.4902,4.4902,4.5166,4.5343,4.5343,4.5343,4.5343,4.5343,4.5034,4.5034,3.9277,4.041,4.1641,4.3848,4.457,4.5351,4.7676,4.7598,4.6987,4.6948,4.666,4.6484,4.6914,4.7344,0.0,0.0,0.0,0.0,0.0,0.0,0.0,0.0,0.0,0.0,0.0,0.0,0.0,0.0,0.0,0.0,0.0,0.0,0.0,0.0,4.6308,4.5898,4.5098,4.5035,4.4648,0.0,4.3769,4.3769,4.3789,4.4199,4.4394,4.4394,4.4433,4.4648,4.4941,4.459,4.4922,4.5527,4.4726,4.4414,4.4453,4.4414,4.4141,4.3769,4.3711,4.3711,4.3711,4.375,4.373,4.3808,4.4355,4.4492,4.4629,4.5488,4.5723,4.582,4.6167,4.5295,4.4461,4.4904,4.4911,4.4853,4.4849,4.481,4.4706,4.4237,4.4194,4.4138,4.4087,4.4133,4.4366,4.4845,4.4503,4.437,4.4769,4.406,4.3678,4.4104,4.3748,4.3499,4.3499,4.3499,4.3499,4.3499,4.3499,4.3499,4.3499,4.4326,4.4769,4.4769,4.4813,4.4857,4.4857,4.4857,4.4857,4.4857,4.4813,4.4813,3.8164,3.9473,4.1269,4.3769,4.5898,4.7539,4.8086,4.8066,4.7832,4.75,4.709,4.6933,4.7363,4.7793,0.0,0.0,0.0,0.0,0.0,0.0,0.0,0.0,0.0,0.0,0.0,0.0,0.0,0.0,0.0,0.0,0.0,0.0,0.0,4.6308,4.6308,4.6055,4.5547,4.5527,4.5098,0.0,4.4258,4.4258,4.4258,4.4355,4.4394,4.4414,4.4746,4.4746,4.4551,4.4785,4.5,4.5117,4.4609,4.459,4.4844,4.4512,4.4336,4.4199,4.3828,4.3711,4.3769,4.4141,4.4004,4.3926,4.5058,4.5156,4.5058,4.5937,4.6172,4.6104,4.5832,4.5309,4.4871,4.4911,4.4181,4.3533,4.3814,4.3666,4.3395,4.331,4.3268,4.3263,4.3273,4.3779,4.4366,4.4845,4.4503,4.4237,4.4326,4.3837,4.3544,4.3633,4.3544,4.3499,4.3499,4.3499,4.3499,4.3499,4.3499,4.3499,4.3499,4.3678,4.3811,4.3811,4.4149,4.437,4.437,4.437,4.437,4.4326,4.3971,4.3971,3.8535,4.0117,4.2069,4.4922,4.6914,4.8203,4.8203,4.8203,4.8027,4.7402,4.7246,4.7305,4.7539,0.0,0.0,0.0,0.0,0.0,0.0,0.0,0.0,0.0,0.0,0.0,0.0,0.0,0.0,0.0,0.0,0.0,0.0,4.666,4.6308,4.6308,4.6308,4.6113,4.5683,4.5469,4.5039,4.4394,4.4394,4.4394,4.4394,4.4394,4.4394,4.4414,4.4629,4.4609,4.4433,4.4801,4.5156,4.5312,4.5098,4.5137,4.5293,4.4863,4.457,4.4336,4.3867,4.3711,4.3789,4.4258,4.4238,4.4238,4.5351,4.5508,4.5426,4.5852,4.5958,4.587,4.5387,4.4666,4.4144,4.4486,4.3763,4.3235,4.4049,4.3595,4.3055,4.3262,4.3313,4.3227,4.3012,4.3447,4.3951,4.4219,4.4015,4.3837,4.3837,4.3678,4.3499,4.3499,4.3499,4.3499,4.3499,4.3499,4.3499,4.3499,4.3499,4.3499,4.3499,4.3499,4.3499,4.3499,4.3748,4.3837,4.3837,4.3837,4.3837,4.3837,4.3633,4.3633,3.8926,4.0957,4.3143,4.5874,4.7246,4.7891,4.7969,4.7988,4.7812,4.7123,4.7266,4.7461,4.7461,0.0,0.0,0.0,0.0,0.0,0.0,0.0,0.0,0.0,0.0,0.0,0.0,0.0,0.0,0.0,0.0,0.0,4.6909,4.6523,4.6269,4.6191,4.6269,4.6055,4.5566,4.5273,4.4883,4.4394,4.4316,4.4277,4.4277,4.4277,4.4277,4.4277,4.4355,4.4394,4.4433,4.4801,4.5273,4.5727,4.5727,4.5727,4.5625,4.5176,4.4766,4.4336,4.3867,4.3711,4.3789,4.4258,4.4355,4.4433,4.5207,4.5422,4.5375,4.54,4.5404,4.5291,4.4883,4.3884,4.3149,4.3825,4.3304,4.306,4.4354,4.3657,4.2894,4.3317,4.3379,4.3285,4.3037,4.3261,4.3499,4.3499,4.3499,4.3518,4.3591,4.3536,4.3518,4.3591,4.3536,4.3499,4.3499,4.3499,4.3499,4.3499,4.3499,4.3499,4.3499,4.3499,4.3499,4.3499,4.3499,4.3499,4.3499,4.3499,4.3499,4.3499,4.3499,4.3499,3.7363,4.0254,4.3359,4.4902,4.5918,4.666,4.6967,4.7045,4.7168,4.7441,4.7246,4.6967,0.0,0.0,0.0,0.0,0.0,0.0,0.0,0.0,0.0,0.0,0.0,0.0,0.0,0.0,0.0,0.0,0.0,0.0,4.6909,4.6523,4.6133,4.5781,4.6113,4.5918,4.5117,4.543,4.5195,4.4394,4.3984,4.3789,4.3789,4.3789,4.3789,4.3828,4.4219,4.4394,4.4433,4.4801,4.5273,4.5727,4.5727,4.5727,4.5625,4.5176,4.4766,4.4336,4.3867,4.3711,4.3789,4.4258,4.4121,4.3882,4.4358,4.423,4.4029,4.4385,4.4464,4.4472,4.4321,4.3665,4.2988,4.3059,4.2186,4.1787,4.3328,4.272,4.1984,4.2401,4.2474,4.267,4.3324,4.3463,4.3499,4.3499,4.3499,4.3628,4.3958,4.3701,4.3628,4.3958,4.3701,4.3499,4.3499,4.3499,4.3499,4.3499,4.3499,4.3499,4.3499,4.3499,4.3499,4.3499,4.3499,4.3499,4.3499,4.3499,4.3499,4.3499,4.3499,4.3499,3.8047,4.0176,4.2187,4.4453,4.5312,4.5703,4.6133,4.6406,4.6504,4.6211,4.6367,4.6641,0.0,0.0,0.0,0.0,0.0,0.0,0.0,0.0,0.0,0.0,0.0,0.0,0.0,0.0,0.0,0.0,0.0,4.7031,4.6601,4.6406,4.6113,4.5727,4.6094,4.5898,4.4996,4.5215,4.5,4.4394,4.3926,4.3848,4.4082,4.3828,4.3711,4.3711,4.3926,4.4004,4.4043,4.4492,4.4785,4.498,4.5215,4.5469,4.5625,4.5176,4.4902,4.4645,4.3926,4.3532,4.3375,4.3568,4.3484,4.3384,4.3828,4.4014,4.3985,4.3663,4.3909,4.4115,4.3593,4.3061,4.2685,4.2854,4.1984,4.1488,4.2839,4.2381,4.1867,4.2534,4.2644,4.2846,4.3389,4.3499,4.3499,4.3499,4.3499,4.3554,4.3738,4.3609,4.3554,4.3738,4.3591,4.3499,4.3499,4.3499,4.3499,4.3499,4.3499,4.3499,4.3499,4.3499,4.3499,4.3499,4.3499,4.3499,4.3499,4.3499,4.3499,4.3499,4.3499,4.3499,3.7812,3.9141,4.0215,4.3027,4.3965,4.4375,4.5019,4.541,4.5527,0.0,4.5527,4.6074,0.0,0.0,0.0,0.0,0.0,0.0,0.0,0.0,0.0,0.0,0.0,0.0,0.0,0.0,0.0,0.0,0.0,4.6699,4.6172,4.625,4.6016,4.5371,4.5859,4.5664,4.4707,4.4645,4.4531,4.4219,4.3867,4.3887,4.4199,4.3867,4.3711,4.3711,4.3711,4.3711,4.373,4.4199,4.4394,4.4433,4.4863,4.5156,4.5312,4.4853,4.4616,4.4395,4.3645,4.3151,4.2917,4.2846,4.2856,4.2871,4.3131,4.3485,4.3682,4.3019,4.3354,4.3723,4.321,4.27,4.2424,4.281,4.2057,4.1506,4.2406,4.2252,4.2161,4.2791,4.2901,4.3048,4.3426,4.3499,4.3499,4.3499,4.3499,4.3536,4.3628,4.3554,4.3536,4.3628,4.3554,4.3499,4.3499,4.3499,4.3499,4.3499,4.3499,4.3499,4.3499,4.3499,4.3499,4.3499,4.3499,4.3499,4.3499,4.3499,4.3499,4.3499,4.3499,4.3499,3.5019,3.623,3.7438,3.9609,4.1074,4.2285,4.3516,4.3828,4.4062,4.4863,4.5058,4.5055,0.0,0.0,0.0,0.0,0.0,0.0,0.0,0.0,0.0,0.0,0.0,0.0,0.0,0.0,0.0,0.0,0.0,4.6562,4.5742,4.6094,4.5742,4.4512,4.5273,4.5078,4.3789,4.3769,4.3769,4.373,4.3711,4.3711,4.373,4.3711,4.3711,4.3711,4.3711,4.3711,4.373,4.4199,4.4394,4.4433,4.4863,4.4805,4.4411,4.3952,4.3514,4.3125,4.2648,4.2462,4.2444,4.2421,4.244,4.2356,4.1938,4.2068,4.2393,4.2352,4.2626,4.303,4.3371,4.2876,4.2424,4.281,4.2296,4.1666,4.1739,4.2351,4.2865,4.2901,4.2901,4.3048,4.3426,4.3499,4.3499,4.3499,4.3499,4.3628,4.3995,4.3719,4.3646,4.4013,4.3719,4.3499,4.3499,4.3499,4.3499,4.3499,4.3499,4.3499,4.3499,4.3499,4.3499,4.3499,4.3499,4.3499,4.3499,4.3499,4.3499,4.3499,4.3499,4.3499,3.4134,3.5176,3.6309,3.8164,3.9609,4.084,4.1855,4.2715,4.3398,4.3711,4.4238,4.4629,0.0,0.0,0.0,0.0,0.0,0.0,0.0,0.0,0.0,0.0,0.0,0.0,0.0,0.0,0.0,0.0,0.0,0.0,4.6094,4.623,4.5976,4.5234,4.5551,4.5176,4.416,4.3848,4.3711,4.3711,4.3711,4.3711,4.3711,4.3711,4.3546,4.3297,4.3297,4.3297,4.3317,4.3491,4.3382,4.3151,4.3262,4.3396,4.3492,4.3304,4.3166,4.2968,4.2547,4.2209,4.1923,4.1649,4.1565,4.1523,4.1378,4.159,4.1916,4.1892,4.2406,4.2938,4.3103,4.292,4.2663,4.2553,4.2516,4.2479,4.2479,4.2718,4.2993,4.3224,4.3279,4.3316,4.3463,4.3499,4.3499,4.3499,4.3499,4.3554,4.3683,4.3573,4.3554,4.3701,4.3573,4.3499,4.3499,4.3499,4.3499,4.3499,4.3499,4.3499,4.3499,4.3499,4.3499,4.3499,4.3499,4.3499,4.3499,4.3499,4.3499,4.3499,4.3499,4.3499,3.3195,3.4212,3.5391,3.7246,3.8379,3.9434,4.1035,4.1816,4.2383,4.2969,4.3535,4.4004,0.0,0.0,0.0,0.0,0.0,0.0,0.0,0.0,0.0,0.0,0.0,0.0,0.0,0.0,0.0,0.0,0.0,0.0,4.6094,4.623,4.6035,4.5469,4.5312,4.4902,4.418,4.3867,4.3711,4.3711,4.3711,4.3628,4.3504,4.3504,4.3256,4.286,4.3013,4.2994,4.286,4.286,4.2694,4.2402,4.2402,4.2572,4.2757,4.2631,4.2547,4.2504,4.21,4.1745,4.1462,4.1187,4.1102,4.1102,4.1102,4.1488,4.1886,4.1886,4.2454,4.3122,4.3122,4.3122,4.3012,4.2608,4.2828,4.3122,4.3122,4.3122,4.3151,4.3444,4.3499,4.3499,4.3499,4.3499,4.3499,4.3499,4.3499,4.3499,4.3499,4.3499,4.3499,4.3499,4.3499,4.3499,4.3499,4.3499,4.3499,4.3499,4.3499,4.3499,4.3499,4.3499,4.3499,4.3499,4.3499,4.3499,4.3499,4.3499,4.3499,4.3499,4.3499,4.3499,0.0,0.0,0.0,3.666,3.7207,3.8027,4.0996,4.1035,4.0957,4.2656,4.3068,4.3164,0.0,0.0,0.0,0.0,0.0,0.0,0.0,0.0,0.0,0.0,0.0,0.0,0.0,0.0,0.0,0.0,0.0,4.6133,4.5766,4.6074,4.5918,4.5035,4.4629,4.4199,4.373,4.3711,4.3691,4.3691,4.3691,4.3463,4.309,4.3068,4.2818,4.2379,4.2776,4.272,4.236,4.2379,4.2379,4.236,4.236,4.236,4.2318,4.184,4.1695,4.1612,4.1229,4.1102,4.1102,4.1102,4.1102,4.1102,4.1102,4.1653,4.2296,4.2271,4.2839,4.3463,4.3481,4.3499,4.3389,4.303,4.325,4.3499,4.3499,4.3499,4.3499,4.3499,4.3499,4.3499,4.3499,4.3481,4.3481,4.3499,4.3481,4.3481,4.3499,4.3499,4.3499,4.3499,4.3499,4.3499,4.3499,4.3499,4.3499,4.3499,4.3499,4.3499,4.3499,4.3499,4.3499,4.3499,4.3499,4.3499,4.3499,4.3499,4.3499,4.3499,4.3499,4.3499,3.1758,0.0,0.0,0.0,0.0,0.0,0.0,3.8848,3.9609,4.1387,4.1739,4.2051,0.0,0.0,0.0,0.0,0.0,0.0,0.0,0.0,0.0,0.0,0.0,0.0,0.0,0.0,0.0,0.0,4.6133,4.625,4.6133,4.623,4.6055,4.5508,4.5078,4.4648,4.4219,4.3867,4.3555,4.3262,4.3286,4.3019,4.2565,4.2602,4.236,4.1882,4.1994,4.1826,4.1499,4.2092,4.1994,4.1439,4.1439,4.1439,4.1439,4.1313,4.1271,4.1252,4.1145,4.1102,4.1102,4.1102,4.1102,4.1102,4.1102,4.1268,4.1561,4.2149,4.2436,4.2747,4.3334,4.3499,4.3463,4.3353,4.3408,4.3499,4.3499,4.3499,4.3499,4.3499,4.3499,4.3499,4.3499,4.3243,4.3151,4.3444,4.3224,4.3151,4.3463,4.3499,4.3499,4.3499,4.3499,4.3499,4.3499,4.3499,4.3499,4.3499,4.3499,4.3499,4.3499,4.3499,4.3499,4.3499,4.3499,4.3499,4.3499,4.3499,4.3499,4.3499,4.3499,4.3499,0.0,0.0,0.0,0.0,0.0,0.0,3.7676,3.834,3.9158,0.0,4.1426,4.1719,0.0,0.0,0.0,0.0,0.0,0.0,0.0,0.0,0.0,0.0,0.0,0.0,0.0,0.0,0.0,4.541,4.5625,4.5859,4.6035,4.6035,4.584,4.541,4.5156,4.4726,4.4121,4.3682,4.3346,4.3113,4.2719,4.2293,4.1859,4.1858,4.1732,4.1481,4.1648,4.1571,4.1378,4.1872,4.1682,4.1102,4.1102,4.1102,4.1102,4.1102,4.1102,4.1102,4.1102,4.1102,4.1102,4.1102,4.1102,4.1102,4.1102,4.1231,4.1488,4.2149,4.2527,4.2858,4.3151,4.3371,4.3499,4.3499,4.3499,4.3499,4.3499,4.3499,4.3499,4.3499,4.3499,4.3499,4.3499,4.3298,4.3206,4.3463,4.3279,4.3224,4.3463,4.3499,4.3499,4.3499,4.3499,4.3499,4.3499,4.3499,4.3499,4.3499,4.3499,4.3499,4.3499,4.3499,4.3499,4.3499,4.3499,4.3499,4.3499,4.3499,4.3499,4.3499,4.3499,4.3499,0.0,0.0,0.0,0.0,0.0,0.0,3.8281,3.8535,3.8887,0.0,4.1328,4.1465,4.1933,0.0,0.0,0.0,0.0,0.0,0.0,0.0,0.0,0.0,0.0,0.0,0.0,4.4879,4.4918,4.4918,4.4996,4.5254,4.5586,4.5644,4.5469,4.4996,4.4895,4.4486,4.3706,4.3253,4.3007,4.2949,4.2093,4.1492,4.1043,4.1039,4.1013,4.1066,4.1488,4.1629,4.1629,4.1629,4.139,4.1102,4.1102,4.1102,4.1102,4.1102,4.1102,4.1102,4.1102,4.1102,4.1102,4.1158,4.1176,4.1176,4.1176,4.1433,4.1776,4.2204,4.2839,4.3353,4.3067,4.3206,4.3499,4.3499,4.3499,4.3499,4.3499,4.3499,4.3499,4.3499,4.3499,4.3499,4.3499,4.3463,4.3444,4.3481,4.3444,4.3444,4.3481,4.3499,4.3499,4.3499,4.3499,4.3499,4.3499,4.3499,4.3499,4.3499,4.3499,4.3499,4.3499,4.3499,4.3499,4.3499,4.3499,4.3499,4.3499,4.3499,4.3499,4.3499,4.3499,4.3499,0.0,0.0,0.0,0.0,0.0,0.0,3.6094,3.6328,3.6934,0.0,3.8418,3.8516,3.9629,0.0,0.0,0.0,0.0,0.0,0.0,0.0,0.0,0.0,0.0,0.0,0.0,4.4297,4.4512,4.4512,4.5156,4.543,4.5176,4.5488,4.5469,4.4996,4.433,4.3848,4.3694,4.293,4.2356,4.1973,4.1466,4.1013,4.0633,4.0598,4.0635,4.0644,4.1047,4.1231,4.1231,4.1231,4.1176,4.1102,4.1102,4.1102,4.1102,4.1102,4.1102,4.1102,4.1102,4.1102,4.1158,4.1506,4.1574,4.1574,4.1574,4.1629,4.1776,4.2204,4.2663,4.3041,4.3298,4.3426,4.3499,4.3499,4.3499,4.3499,4.3499,4.3499,4.3499,4.3499,4.3499,4.3499,4.3499,4.3206,4.314,4.3444,4.3206,4.3114,4.3444,4.3499,4.3499,4.3499,4.3499,4.3499,4.3499,4.3499,4.3499,4.3499,4.3499,4.3499,4.3499,4.3499,4.3499,4.3499,4.3499,4.3499,4.3499,4.3499,4.3499,4.3499,4.3499,4.3499,0.0,0.0,0.0,3.5098,0.0,0.0,0.0,3.6191,3.6699,3.7988,3.7734,3.7617,3.8691,0.0,0.0,0.0,0.0,0.0,0.0,0.0,0.0,0.0,0.0,0.0,0.0,4.3281,4.3516,4.373,4.4336,4.4707,4.4707,4.5117,4.5125,4.4655,4.4234,4.381,4.3346,4.2507,4.1936,4.1688,4.1087,4.0676,4.0491,4.0506,4.0625,4.0809,4.1011,4.1341,4.1672,4.1268,4.1231,4.1396,4.1194,4.1102,4.1102,4.1102,4.1102,4.1139,4.1341,4.1286,4.1176,4.1555,4.1684,4.1647,4.1488,4.1666,4.2032,4.2216,4.2711,4.3188,4.3188,4.3334,4.3499,4.3499,4.3499,4.3499,4.3499,4.3499,4.3499,4.3499,4.3499,4.3499,4.3499,4.3316,4.3261,4.3463,4.3316,4.3261,4.3463,4.3499,4.3499,4.3499,4.3499,4.3499,4.3499,4.3499,4.3499,4.3499,4.3499,4.3499,4.3499,4.3499,4.3499,4.3499,4.3499,4.3499,4.3499,4.3499,4.3499,4.3499,4.3499,4.3499,0.0,0.0,0.0,0.0,0.0,3.6484,0.0,0.0,0.0,3.7809,0.0,0.0,0.0,0.0,0.0,0.0,0.0,0.0,0.0,0.0,0.0,0.0,0.0,0.0,0.0,4.2167,4.2305,4.291,4.3125,4.3496,4.4121,4.4551,4.4554,4.4087,4.3983,4.3556,4.2768,4.1966,4.1588,4.157,4.0865,4.0515,4.0515,4.0515,4.068,4.0992,4.1066,4.147,4.2039,4.1378,4.1304,4.1537,4.1231,4.1102,4.1121,4.1194,4.1231,4.1286,4.1666,4.1574,4.1396,4.1776,4.1922,4.1849,4.1561,4.1855,4.2332,4.2406,4.2858,4.3316,4.3103,4.3243,4.3499,4.3499,4.3499,4.3499,4.3499,4.3499,4.3499,4.3499,4.3499,4.3499,4.3499,4.3499,4.3499,4.3499,4.3499,4.3499,4.3499,4.3499,4.3499,4.3499,4.3499,4.3499,4.3499,4.3499,4.3499,4.3499,4.3499,4.3499,4.3499,4.3499,4.3499,4.3499,4.3499,4.3499,4.3499,4.3499,4.3499,4.3499,4.3499,4.3499,0.0,0.0,0.0,0.0,3.7168,0.0,0.0,0.0,3.6035,3.5801,0.0,0.0,0.0,0.0,0.0,0.0,0.0,0.0,0.0,0.0,0.0,0.0,0.0,0.0,0.0,0.0,4.123,4.2362,4.1855,4.2012,4.3164,4.3633,4.366,4.3244,4.2827,4.239,4.1854,4.1415,4.1187,4.1187,4.0699,4.0515,4.0515,4.0515,4.0533,4.0607,4.0956,4.1158,4.1231,4.1139,4.1121,4.1176,4.1121,4.1102,4.1139,4.1482,4.161,4.1666,4.2069,4.2179,4.2241,4.2644,4.2773,4.2773,4.2718,4.2516,4.2344,4.2736,4.2901,4.3048,4.3334,4.3463,4.3499,4.3499,4.3499,4.3499,4.3499,4.3499,4.3499,4.3499,4.3499,4.3499,4.3499,4.3499,4.3499,4.3499,4.3499,4.3499,4.3499,4.3499,4.3499,4.3499,4.3499,4.3499,4.3499,4.3499,4.3499,4.3499,4.3499,4.3499,4.3499,4.3499,4.3499,4.3499,4.3499,4.3499,4.3499,4.3499,4.3499,4.3499,4.3499,4.3499,0.0,0.0,0.0,0.0,0.0,0.0,0.0,0.0,3.5605,0.0,0.0,0.0,0.0,0.0,0.0,0.0,0.0,0.0,0.0,0.0,0.0,0.0,0.0,0.0,0.0,0.0,0.0,0.0,0.0,4.125,4.2274,4.299,4.3007,4.2299,4.2603,4.2414,4.1706,4.1555,4.1341,4.1102,4.0937,4.0864,4.0864,4.0864,4.0864,4.0864,4.1029,4.1231,4.1451,4.1194,4.1249,4.139,4.1194,4.1396,4.1892,4.2491,4.2582,4.2443,4.2608,4.2516,4.2387,4.2773,4.2755,4.2663,4.3122,4.2993,4.2755,4.3114,4.3224,4.3279,4.3444,4.3499,4.3499,4.3499,4.3499,4.3499,4.3499,4.3499,4.3573,4.3793,4.3646,4.3573,4.3793,4.3646,4.3499,4.3499,4.3499,4.3499,4.3499,4.3499,4.3499,4.3499,4.3499,4.3499,4.3499,4.3499,4.3499,4.3499,4.3499,4.3499,4.3499,4.3499,4.3499,4.3499,4.3499,4.3499,4.3499,4.3499,4.3499,4.3499,4.3499,4.3499,3.7851,0.0,0.0,0.0,0.0,0.0,0.0,0.0,0.0,0.0,0.0,0.0,0.0,0.0,0.0,0.0,0.0,0.0,0.0,0.0,0.0,0.0,0.0,0.0,0.0,0.0,0.0,0.0,0.0,0.0,4.1574,4.2226,4.2274,4.1736,4.2433,4.2376,4.1519,4.1739,4.1635,4.1102,4.1213,4.1213,4.1102,4.1102,4.1102,4.1102,4.1102,4.1268,4.15,4.1231,4.1286,4.1519,4.147,4.1929,4.2656,4.3023,4.3114,4.3085,4.3085,4.2858,4.2656,4.2993,4.2883,4.2729,4.3316,4.3279,4.314,4.3408,4.3499,4.3499,4.3499,4.3499,4.3499,4.3499,4.3499,4.3499,4.3499,4.3573,4.3701,4.3884,4.3774,4.3719,4.3884,4.3683,4.3499,4.3499,4.3499,4.3499,4.3499,4.3499,4.3499,4.3499,4.3499,4.3499,4.3499,4.3499,4.3499,4.3499,4.3499,4.3499,4.3499,4.3499,4.3499,4.3499,4.3499,4.3499,4.3499,4.3499,4.3499,4.3499,4.3499,4.3499,0.0,0.0,0.0,0.0,0.0,0.0,0.0,0.0,3.6421,0.0,0.0,0.0,0.0,0.0,0.0,0.0,0.0,0.0,0.0,0.0,0.0,0.0,0.0,0.0,0.0,0.0,0.0,0.0,0.0,0.0,4.1074,4.1188,4.1325,4.1676,4.2106,4.1949,4.1121,4.191,4.1892,4.1102,4.1464,4.1488,4.1102,4.1102,4.1102,4.1102,4.1102,4.1102,4.1121,4.1102,4.1121,4.1194,4.1984,4.2729,4.3371,4.2601,4.2803,4.3481,4.3481,4.3463,4.3463,4.3463,4.3463,4.3463,4.3481,4.3481,4.3481,4.3499,4.3499,4.3499,4.3499,4.3499,4.3499,4.3499,4.3499,4.3499,4.3499,4.3793,4.3958,4.3591,4.3811,4.3958,4.3573,4.3499,4.3499,4.3499,4.3499,4.3499,4.3499,4.3499,4.3499,4.3499,4.3499,4.3499,4.3499,4.3499,4.3499,4.3499,4.3499,4.3499,4.3499,4.3499,4.3499,4.3499,4.3499,4.3499,4.3499,4.3499,4.3499,4.3499,4.3499,4.3499,0.0,0.0,3.9961,3.8516,0.0,0.0,0.0,0.0,0.0,0.0,0.0,0.0,0.0,0.0,0.0,0.0,0.0,0.0,0.0,0.0,0.0,0.0,0.0,0.0,0.0,0.0,0.0,0.0,3.8241,0.0,0.0,4.0167,4.039,4.0525,4.1175,4.1358,4.1102,4.161,4.1653,4.1102,4.1249,4.1231,4.1102,4.1102,4.1102,4.1102,4.1102,4.1102,4.1102,4.1102,4.1268,4.1525,4.1506,4.2307,4.3518,4.3774,4.4215,4.4453,4.2817,4.2095,4.1657,4.0296,3.9866,3.9833,3.9645,3.9606,3.9606,3.9606,3.9606,3.988,4.1183,4.1499,4.1859,4.3169,4.3499,4.3499,4.3499,4.3609,4.3738,4.3866,4.3774,4.3738,4.3866,4.3664,4.3499,4.3499,4.3499,4.3499,4.3499,4.3499,4.3499,4.3499,4.3499,4.3499,4.3499,4.3499,4.3499,4.3499,4.3499,4.3499,4.3499,4.3499,4.3499,4.3499,4.3499,4.3499,4.3499,4.3499,4.3499,4.3499,4.3499,4.3499,4.0078,4.0312,0.0,0.0,3.8789,0.0,0.0,0.0,0.0,0.0,0.0,0.0,0.0,0.0,0.0,0.0,0.0,0.0,0.0,0.0,0.0,0.0,0.0,0.0,0.0,0.0,3.7611,3.8965,0.0,0.0,0.0,0.0,3.9804,4.0117,4.0764,4.1102,4.1102,4.1653,4.1653,4.1102,4.1249,4.1249,4.1102,4.1102,4.1102,4.1102,4.1102,4.1194,4.1323,4.1323,4.1561,4.1849,4.1488,4.1818,4.2622,4.2882,4.2923,4.2679,4.1211,4.0474,3.9879,3.8602,3.8101,3.7959,3.7783,3.7687,3.7575,3.7575,3.8081,3.8768,3.9333,4.0532,4.1724,4.2281,4.299,4.3499,4.3499,4.3609,4.3738,4.3848,4.3774,4.3738,4.3848,4.3664,4.3499,4.3499,4.3499,4.3499,4.3499,4.3499,4.3499,4.3499,4.3499,4.3499,4.3499,4.3499,4.3499,4.3499,4.3499,4.3499,4.3499,4.3499,4.3499,4.3499,4.3499,4.3499,4.3499,4.3499,4.3499,4.3499,4.3499,4.3499]},{"header":{"parameterUnit":"m.s-1","parameterCategory":1,"la1":30.6,"la2":29.2853,"lo1":-89.7004,"lo2":-87.6739,"dy":0.0162,"dx":0.0183,"nx":112,"ny":82,"refTime":"2024-10-16T12:00:00:Z","depth":0,"parameterNumber":3,"parameterNumberName":"V-component_of_WINDS"},"data":[0.0,0.0,0.0,0.0,0.0,0.0,0.0,0.0,0.0,0.0,0.0,0.0,0.0,0.0,0.0,0.0,0.0,0.0,0.0,0.0,0.0,0.0,0.0,0.0,0.0,0.0,0.0,0.0,0.0,0.0,0.0,0.0,0.0,0.0,0.0,0.0,0.0,0.0,0.0,0.0,0.0,0.0,0.0,0.0,0.0,0.0,0.0,0.0,0.0,0.0,0.0,0.0,0.0,0.0,0.0,0.0,0.0,0.0,0.0,0.0,0.0,0.0,0.0,0.0,0.0,0.0,0.0,0.0,0.0,0.0,0.0,0.0,0.0,0.0,0.0,0.0,0.0,0.0,0.0,0.0,0.0,0.0,0.0,0.0,0.0,0.0,0.0,0.0,0.0,0.0,0.0,3.1993,3.2184,3.2518,3.3163,3.3603,3.2872,3.052,0.0,0.0,0.0,0.0,0.0,0.0,0.0,0.0,0.0,0.0,0.0,0.0,0.0,0.0,0.0,0.0,0.0,0.0,0.0,0.0,0.0,0.0,0.0,0.0,0.0,0.0,0.0,0.0,0.0,0.0,0.0,0.0,0.0,0.0,0.0,0.0,0.0,0.0,0.0,0.0,0.0,0.0,0.0,0.0,0.0,0.0,0.0,0.0,0.0,0.0,0.0,0.0,0.0,0.0,0.0,0.0,0.0,0.0,0.0,0.0,0.0,0.0,0.0,0.0,0.0,0.0,0.0,0.0,0.0,0.0,0.0,0.0,0.0,0.0,0.0,0.0,0.0,0.0,0.0,0.0,0.0,0.0,0.0,0.0,0.0,0.0,0.0,0.0,0.0,0.0,0.0,0.0,0.0,0.0,0.0,0.0,0.0,0.0,0.0,0.0,0.0,0.0,0.0,0.0,3.1922,3.2164,3.2994,3.3458,3.3299,3.3799,3.3306,3.1341,0.0,0.0,0.0,0.0,0.0,0.0,0.0,0.0,0.0,0.0,0.0,0.0,0.0,0.0,0.0,0.0,0.0,0.0,0.0,0.0,0.0,0.0,0.0,0.0,0.0,0.0,0.0,0.0,0.0,0.0,0.0,0.0,0.0,0.0,0.0,0.0,0.0,0.0,0.0,0.0,0.0,0.0,0.0,0.0,0.0,0.0,0.0,0.0,0.0,0.0,0.0,0.0,0.0,0.0,0.0,0.0,0.0,0.0,0.0,0.0,0.0,0.0,0.0,0.0,0.0,0.0,0.0,0.0,0.0,0.0,0.0,0.0,0.0,0.0,0.0,0.0,0.0,0.0,0.0,0.0,0.0,0.0,0.0,0.0,0.0,0.0,0.0,0.0,0.0,0.0,0.0,0.0,0.0,0.0,0.0,0.0,0.0,0.0,0.0,0.0,0.0,0.0,0.0,3.1482,3.1785,3.3592,3.2905,3.2744,3.3705,3.3965,3.3162,3.1,3.0707,0.0,0.0,0.0,0.0,0.0,0.0,0.0,0.0,0.0,0.0,0.0,0.0,0.0,0.0,0.0,0.0,0.0,0.0,0.0,0.0,0.0,0.0,0.0,0.0,0.0,0.0,0.0,0.0,0.0,0.0,0.0,0.0,0.0,0.0,0.0,0.0,0.0,0.0,0.0,0.0,0.0,0.0,0.0,0.0,0.0,0.0,0.0,0.0,0.0,0.0,0.0,0.0,0.0,0.0,0.0,0.0,0.0,0.0,0.0,0.0,0.0,0.0,0.0,0.0,0.0,0.0,0.0,0.0,0.0,0.0,0.0,0.0,0.0,0.0,0.0,0.0,0.0,0.0,0.0,0.0,0.0,0.0,0.0,0.0,0.0,0.0,0.0,0.0,0.0,0.0,0.0,0.0,0.0,0.0,0.0,0.0,0.0,0.0,0.0,0.0,0.0,0.0,3.2695,3.2526,3.5114,3.3399,3.2704,3.4309,3.4044,3.2873,3.0661,3.0513,0.0,0.0,0.0,0.0,0.0,0.0,0.0,0.0,0.0,0.0,0.0,0.0,0.0,0.0,0.0,0.0,0.0,0.0,0.0,0.0,0.0,0.0,0.0,0.0,0.0,0.0,0.0,0.0,0.0,0.0,0.0,0.0,0.0,0.0,0.0,0.0,0.0,0.0,0.0,0.0,0.0,0.0,0.0,0.0,0.0,0.0,0.0,0.0,0.0,0.0,0.0,0.0,0.0,0.0,0.0,0.0,0.0,0.0,0.0,0.0,0.0,0.0,0.0,0.0,0.0,0.0,0.0,0.0,0.0,0.0,0.0,0.0,0.0,0.0,0.0,0.0,0.0,0.0,0.0,0.0,0.0,0.0,0.0,0.0,0.0,0.0,0.0,0.0,0.0,0.0,0.0,0.0,0.0,0.0,0.0,0.0,0.0,0.0,0.0,0.0,0.0,0.0,3.4899,3.5167,3.6191,3.5393,3.4925,3.5222,3.4007,3.2606,3.1049,2.9796,0.0,0.0,0.0,0.0,0.0,0.0,0.0,0.0,0.0,0.0,0.0,0.0,0.0,0.0,0.0,0.0,0.0,0.0,0.0,0.0,0.0,0.0,0.0,0.0,0.0,0.0,0.0,0.0,0.0,0.0,0.0,0.0,0.0,0.0,0.0,0.0,0.0,0.0,0.0,0.0,0.0,0.0,0.0,0.0,0.0,0.0,0.0,0.0,0.0,0.0,0.0,0.0,0.0,0.0,0.0,0.0,0.0,0.0,0.0,0.0,0.0,0.0,0.0,0.0,0.0,0.0,0.0,0.0,0.0,0.0,0.0,0.0,0.0,0.0,0.0,0.0,0.0,0.0,0.0,0.0,0.0,0.0,0.0,0.0,0.0,0.0,0.0,0.0,0.0,0.0,0.0,0.0,0.0,0.0,0.0,0.0,0.0,0.0,0.0,0.0,0.0,0.0,3.48,3.5469,0.0,3.6049,3.537,3.5405,3.4947,3.3612,3.1256,0.0,0.0,0.0,0.0,0.0,0.0,0.0,0.0,0.0,0.0,0.0,0.0,0.0,0.0,0.0,0.0,0.0,0.0,0.0,0.0,0.0,0.0,0.0,0.0,0.0,0.0,0.0,0.0,0.0,0.0,0.0,0.0,0.0,0.0,0.0,0.0,0.0,0.0,0.0,0.0,0.0,0.0,0.0,0.0,0.0,0.0,0.0,0.0,0.0,0.0,0.0,0.0,0.0,0.0,0.0,0.0,0.0,0.0,0.0,0.0,0.0,0.0,0.0,0.0,0.0,0.0,0.0,0.0,0.0,0.0,0.0,0.0,0.0,0.0,0.0,0.0,0.0,0.0,0.0,0.0,0.0,0.0,0.0,0.0,0.0,0.0,0.0,0.0,0.0,0.0,0.0,0.0,0.0,0.0,0.0,0.0,0.0,0.0,0.0,0.0,0.0,0.0,3.4451,3.5275,3.6313,0.0,3.6691,3.5877,3.5913,3.524,3.3777,3.136,0.0,0.0,0.0,0.0,0.0,0.0,0.0,0.0,0.0,0.0,0.0,0.0,0.0,0.0,0.0,0.0,0.0,0.0,0.0,0.0,0.0,0.0,0.0,0.0,0.0,0.0,0.0,0.0,0.0,0.0,0.0,0.0,0.0,0.0,0.0,0.0,0.0,0.0,0.0,0.0,0.0,0.0,0.0,0.0,0.0,0.0,0.0,0.0,0.0,0.0,0.0,0.0,0.0,0.0,0.0,0.0,0.0,0.0,0.0,0.0,0.0,0.0,0.0,0.0,0.0,0.0,0.0,0.0,0.0,0.0,0.0,0.0,0.0,0.0,0.0,0.0,0.0,0.0,0.0,0.0,0.0,0.0,0.0,0.0,0.0,0.0,0.0,0.0,0.0,0.0,0.0,0.0,0.0,0.0,0.0,0.0,0.0,0.0,0.0,0.0,0.0,0.0,3.5159,3.674,3.806,3.8925,3.759,3.6656,3.6784,3.4742,3.2814,0.0,0.0,0.0,0.0,0.0,0.0,0.0,0.0,0.0,0.0,0.0,0.0,0.0,0.0,0.0,0.0,0.0,0.0,0.0,0.0,0.0,0.0,0.0,0.0,0.0,0.0,0.0,0.0,0.0,0.0,0.0,0.0,0.0,0.0,0.0,0.0,0.0,0.0,0.0,0.0,0.0,0.0,0.0,0.0,0.0,0.0,0.0,0.0,0.0,0.0,0.0,0.0,0.0,0.0,0.0,0.0,0.0,0.0,0.0,0.0,0.0,0.0,0.0,0.0,0.0,0.0,0.0,0.0,0.0,0.0,0.0,0.0,0.0,0.0,0.0,0.0,0.0,0.0,0.0,0.0,0.0,0.0,0.0,0.0,0.0,0.0,0.0,0.0,0.0,0.0,0.0,0.0,0.0,0.0,0.0,0.0,0.0,0.0,0.0,0.0,0.0,0.0,0.0,0.0,3.8725,3.9487,3.9762,3.8891,3.7898,3.6885,3.6175,3.4483,3.1403,0.0,0.0,0.0,0.0,0.0,0.0,0.0,0.0,0.0,0.0,0.0,0.0,0.0,0.0,0.0,0.0,0.0,0.0,0.0,0.0,0.0,0.0,0.0,0.0,0.0,0.0,0.0,0.0,0.0,0.0,0.0,0.0,0.0,0.0,0.0,0.0,0.0,0.0,0.0,0.0,0.0,0.0,0.0,0.0,0.0,0.0,0.0,0.0,0.0,0.0,0.0,0.0,0.0,0.0,0.0,0.0,0.0,0.0,0.0,0.0,0.0,0.0,0.0,0.0,0.0,0.0,0.0,0.0,0.0,0.0,0.0,0.0,0.0,0.0,0.0,0.0,0.0,0.0,0.0,0.0,0.0,0.0,0.0,0.0,0.0,0.0,0.0,0.0,0.0,0.0,0.0,0.0,0.0,0.0,0.0,0.0,0.0,0.0,0.0,0.0,0.0,0.0,3.8596,4.0058,4.0844,4.0574,3.9897,3.8949,3.7765,3.7134,3.543,3.2273,0.0,0.0,0.0,0.0,0.0,0.0,0.0,0.0,0.0,0.0,0.0,0.0,0.0,0.0,0.0,0.0,0.0,0.0,0.0,0.0,0.0,0.0,0.0,0.0,0.0,0.0,0.0,0.0,0.0,0.0,0.0,0.0,0.0,0.0,0.0,0.0,0.0,0.0,0.0,0.0,0.0,0.0,0.0,0.0,0.0,0.0,0.0,0.0,0.0,0.0,0.0,0.0,0.0,0.0,0.0,0.0,0.0,0.0,0.0,0.0,0.0,0.0,0.0,0.0,0.0,0.0,0.0,0.0,0.0,0.0,0.0,0.0,0.0,0.0,0.0,0.0,0.0,0.0,0.0,0.0,0.0,0.0,0.0,0.0,0.0,0.0,0.0,0.0,0.0,0.0,0.0,0.0,0.0,0.0,0.0,0.0,0.0,0.0,0.0,0.0,0.0,0.0,3.9038,4.097,4.2049,4.1373,4.0641,3.9876,3.9085,3.7765,3.6005,3.366,0.0,0.0,0.0,0.0,0.0,0.0,0.0,0.0,0.0,0.0,0.0,0.0,0.0,0.0,0.0,0.0,0.0,0.0,0.0,0.0,0.0,0.0,0.0,0.0,0.0,0.0,0.0,0.0,0.0,0.0,0.0,0.0,0.0,0.0,0.0,0.0,0.0,0.0,0.0,0.0,0.0,0.0,0.0,0.0,0.0,0.0,0.0,0.0,0.0,0.0,0.0,0.0,0.0,0.0,0.0,0.0,0.0,0.0,0.0,0.0,3.9608,0.0,0.0,0.0,0.0,0.0,0.0,0.0,0.0,0.0,0.0,0.0,0.0,0.0,0.0,0.0,0.0,0.0,0.0,0.0,0.0,0.0,0.0,0.0,0.0,0.0,0.0,0.0,0.0,0.0,0.0,0.0,0.0,0.0,0.0,0.0,0.0,0.0,0.0,0.0,0.0,0.0,4.1313,4.1969,4.2232,4.2083,4.1407,4.0426,3.9106,3.8713,3.7325,3.4438,0.0,0.0,0.0,0.0,0.0,0.0,0.0,0.0,0.0,0.0,0.0,0.0,0.0,0.0,0.0,0.0,0.0,0.0,0.0,0.0,0.0,0.0,0.0,0.0,0.0,0.0,0.0,0.0,0.0,0.0,0.0,0.0,0.0,0.0,0.0,0.0,0.0,0.0,0.0,0.0,0.0,0.0,0.0,0.0,0.0,0.0,0.0,0.0,0.0,0.0,0.0,0.0,0.0,0.0,0.0,0.0,0.0,0.0,0.0,0.0,0.0,4.2082,0.0,0.0,0.0,0.0,0.0,0.0,0.0,0.0,0.0,0.0,0.0,0.0,0.0,0.0,0.0,0.0,0.0,0.0,0.0,0.0,0.0,0.0,0.0,0.0,0.0,0.0,0.0,0.0,0.0,0.0,0.0,0.0,0.0,0.0,0.0,0.0,0.0,0.0,0.0,0.0,4.213,4.2943,4.3247,4.2861,4.2185,4.1271,4.0155,3.9411,3.8159,3.6265,3.4742,0.0,0.0,0.0,0.0,0.0,0.0,0.0,0.0,0.0,0.0,0.0,0.0,0.0,0.0,0.0,0.0,0.0,0.0,0.0,0.0,0.0,0.0,0.0,0.0,0.0,0.0,0.0,0.0,0.0,0.0,0.0,0.0,0.0,0.0,0.0,0.0,0.0,0.0,0.0,0.0,0.0,0.0,0.0,0.0,0.0,0.0,0.0,0.0,0.0,0.0,0.0,0.0,0.0,4.8499,4.8571,4.8282,4.8427,4.8507,4.8522,4.7232,4.6695,4.6602,0.0,0.0,0.0,0.0,0.0,0.0,0.0,0.0,0.0,0.0,0.0,0.0,0.0,0.0,0.0,0.0,0.0,0.0,0.0,0.0,0.0,0.0,0.0,0.0,0.0,4.4973,4.4296,0.0,0.0,0.0,0.0,0.0,0.0,0.0,0.0,0.0,0.0,0.0,0.0,4.2388,4.3721,4.4296,4.349,4.2861,4.2185,4.1441,4.0269,3.9242,3.8519,3.6603,3.5081,0.0,0.0,0.0,0.0,0.0,0.0,0.0,0.0,0.0,0.0,0.0,0.0,0.0,0.0,0.0,0.0,0.0,0.0,0.0,0.0,0.0,0.0,0.0,0.0,0.0,0.0,0.0,0.0,0.0,0.0,0.0,0.0,4.591,4.6933,0.0,0.0,0.0,0.0,0.0,0.0,0.0,0.0,0.0,0.0,0.0,0.0,0.0,0.0,4.9597,5.0979,5.1365,5.0816,5.2916,5.3193,5.1866,5.2554,5.2879,5.2855,5.2686,0.0,4.7508,4.717,0.0,0.0,0.0,0.0,0.0,0.0,0.0,0.0,0.0,0.0,0.0,0.0,0.0,0.0,0.0,0.0,0.0,0.0,0.0,0.0,0.0,0.0,4.8368,4.6873,4.653,4.6394,0.0,4.3958,4.2063,4.1792,0.0,0.0,0.0,0.0,0.0,0.0,0.0,0.0,4.3152,4.4059,4.4296,4.349,4.3321,4.2949,4.2232,4.1995,4.1542,4.0798,3.9872,3.8756,3.7369,3.6615,0.0,0.0,0.0,0.0,0.0,0.0,0.0,0.0,0.0,0.0,0.0,0.0,0.0,0.0,0.0,0.0,0.0,0.0,0.0,0.0,0.0,0.0,0.0,0.0,0.0,0.0,0.0,0.0,0.0,4.5544,4.7111,4.7631,4.7797,4.7363,0.0,0.0,0.0,0.0,0.0,0.0,0.0,0.0,0.0,5.0875,5.1312,5.2108,5.3397,5.4508,5.4894,5.4629,5.5703,5.5812,5.5124,5.5064,5.5233,5.5631,5.4762,5.3603,5.2263,5.0878,4.9586,4.8496,0.0,0.0,0.0,0.0,0.0,4.9365,5.0633,0.0,0.0,0.0,0.0,0.0,0.0,0.0,0.0,0.0,0.0,0.0,0.0,0.0,0.0,4.8701,4.8273,4.8037,4.8037,4.6684,4.5196,0.0,4.3741,4.2841,4.1149,0.0,0.0,0.0,0.0,0.0,4.4012,4.4364,4.4465,4.4113,4.366,4.3288,4.2963,4.2523,4.2164,4.1847,4.1136,4.0413,3.9783,3.9051,3.8103,0.0,0.0,0.0,0.0,0.0,0.0,0.0,0.0,0.0,0.0,0.0,0.0,0.0,0.0,0.0,0.0,0.0,0.0,0.0,0.0,0.0,0.0,0.0,0.0,0.0,0.0,0.0,0.0,4.7334,4.8442,4.8583,4.9499,4.9427,0.0,0.0,0.0,0.0,0.0,0.0,5.0694,5.118,5.2254,5.3965,5.4581,5.5558,5.6899,5.7514,5.7804,5.7804,5.7804,5.7804,5.7804,5.7188,5.7261,5.7732,5.6609,5.6428,5.6717,5.3929,5.2093,5.1006,5.0789,5.0343,4.997,5.1393,5.19,5.2118,5.353,5.4001,5.382,5.2625,0.0,5.1249,4.9474,0.0,0.0,0.0,0.0,5.004,5.0859,0.0,5.0203,5.0218,4.9881,4.956,4.956,4.9138,4.8259,0.0,4.6413,4.5819,4.3572,0.0,0.0,0.0,0.0,4.4871,4.4871,4.4871,4.4804,4.4615,4.4045,4.3707,4.3707,4.32,4.2875,4.2875,4.2354,4.1982,4.1766,4.1238,4.0337,0.0,0.0,0.0,0.0,0.0,0.0,0.0,0.0,0.0,0.0,0.0,0.0,0.0,0.0,0.0,0.0,0.0,0.0,0.0,0.0,0.0,0.0,0.0,0.0,0.0,0.0,0.0,0.0,0.0,0.0,5.1115,5.2516,0.0,0.0,0.0,0.0,5.2082,5.2263,5.3277,5.5534,5.5667,5.6428,5.8058,5.813,5.8565,5.9434,5.947,5.947,5.947,5.947,5.947,5.947,5.9434,5.9434,5.9457,5.9384,5.9384,5.9108,5.5233,5.3603,5.3422,5.2661,5.2335,5.2408,5.3277,5.3566,5.3711,5.4544,5.4834,5.4834,5.475,5.3675,5.2408,5.2299,5.1719,0.0,0.0,5.239,5.2565,5.2795,5.2431,5.1825,5.1274,5.1116,5.11,5.11,5.1066,5.0389,0.0,4.6669,4.5703,4.5568,0.0,4.4804,4.5432,4.5602,4.5635,4.5635,4.5635,4.5365,4.4668,4.4567,4.4533,4.4533,4.4499,4.4479,4.4479,4.4432,4.4093,4.3321,4.3254,4.2848,4.2097,4.0032,0.0,0.0,0.0,0.0,0.0,0.0,0.0,0.0,0.0,0.0,0.0,0.0,0.0,0.0,0.0,0.0,0.0,0.0,0.0,0.0,0.0,0.0,0.0,0.0,0.0,0.0,0.0,0.0,5.5015,5.6066,0.0,5.4085,5.3904,5.4122,5.4701,5.5703,5.6645,5.7514,5.8058,5.8818,5.9891,5.9928,6.0326,6.1123,6.1123,6.1123,6.1123,6.1123,6.1123,6.1123,6.0616,6.0652,6.1086,6.0036,5.9891,6.0217,5.8298,5.7188,5.6754,5.6971,5.6754,5.6391,5.7188,5.7514,5.755,5.784,5.79,5.7768,5.6717,5.5305,5.4037,5.4037,5.3856,5.3784,5.4544,5.4447,5.4162,5.4318,5.3514,5.2546,5.192,5.1487,5.1201,5.1201,5.1201,5.0964,5.0186,4.9612,4.8935,4.8003,4.8409,4.8443,4.7278,4.7515,4.7496,4.6515,4.6007,4.5432,4.4668,4.4615,4.4615,4.4615,4.4615,4.4615,4.4615,4.4615,4.4465,4.4195,4.4181,4.3809,4.3017,4.2239,4.1405,0.0,0.0,0.0,0.0,0.0,0.0,0.0,0.0,0.0,0.0,0.0,0.0,0.0,0.0,0.0,0.0,0.0,0.0,0.0,0.0,0.0,0.0,0.0,0.0,0.0,0.0,5.6859,5.7152,5.8637,5.8891,5.6971,5.7297,5.7623,5.7623,5.8601,5.9312,5.9602,6.0109,6.0652,6.1195,6.1195,6.1448,6.1992,6.1992,6.1992,6.1992,6.1992,6.1992,6.1992,6.1448,6.1485,6.1955,6.0869,6.0724,6.1159,6.0616,6.0109,5.9602,5.9602,5.9289,5.8891,5.9384,5.9602,5.9602,5.9602,5.9602,5.9421,5.8347,5.7333,5.65,5.65,5.65,5.6609,5.708,5.6736,5.6165,5.6004,5.5112,5.4091,5.3466,5.2814,5.2367,5.2367,5.2148,5.1979,5.1979,5.1573,5.0897,4.9916,5.0558,5.0694,4.924,4.9221,4.8917,4.7699,4.6921,4.6061,4.5074,4.4973,4.4871,4.4615,4.4615,4.4615,4.4615,4.4615,4.4615,4.4615,4.433,4.3944,4.3423,4.3389,4.3003,4.2158,0.0,0.0,0.0,0.0,0.0,0.0,0.0,0.0,0.0,0.0,0.0,0.0,0.0,0.0,0.0,0.0,0.0,0.0,0.0,0.0,0.0,0.0,0.0,5.3929,5.6497,5.8275,5.755,6.0217,6.1195,5.8854,6.0,6.0905,6.0869,6.0869,6.1195,6.1955,6.1992,6.1992,6.1992,6.1992,6.1992,6.1992,6.1992,6.1992,6.1992,6.1992,6.1992,6.1992,6.1992,6.1992,6.1992,6.1992,6.1992,6.1992,6.1992,6.1992,6.1847,6.029,5.9674,5.9674,5.9674,5.9674,5.9674,5.9674,5.9651,5.9638,5.9638,5.9602,5.9602,5.9602,5.9602,5.9602,5.9589,5.9141,5.8531,5.7852,5.7184,5.6536,5.584,5.5141,5.4651,5.4651,5.4059,5.3585,5.3585,5.2351,5.1336,5.1269,5.1269,5.1269,5.1235,5.0642,0.0,4.912,4.836,4.738,4.5906,4.5722,4.5432,4.4736,4.4682,4.4668,4.4649,4.4635,4.4635,4.4635,4.391,4.349,4.3524,4.3538,4.4034,4.5009,0.0,0.0,0.0,0.0,0.0,0.0,0.0,0.0,0.0,0.0,0.0,0.0,0.0,0.0,0.0,0.0,0.0,0.0,0.0,0.0,0.0,0.0,5.8443,5.797,6.0217,6.2236,6.3164,6.407,6.4359,6.3671,6.349,6.3164,6.2585,6.2549,6.2367,6.2028,6.1992,6.1992,6.1992,6.1992,6.1992,6.1992,6.1992,6.1992,6.1992,6.1992,6.1992,6.1992,6.1992,6.1992,6.1992,6.1992,6.1992,6.1992,6.1992,6.1992,6.1955,6.1521,6.134,6.134,6.134,6.134,6.134,6.134,6.0978,6.0471,6.0471,6.0072,5.9602,5.9602,5.9602,5.9486,5.9003,5.878,5.8372,5.7197,5.6782,5.6469,5.584,5.553,5.5395,5.5395,5.5225,5.509,5.509,5.4752,5.4109,5.3027,5.2875,5.2655,5.2097,0.0,0.0,4.9221,4.8815,4.8139,4.665,4.6481,4.6428,4.6225,4.6191,4.5988,0.0,4.5399,4.5399,4.5399,4.5196,4.5331,4.5838,4.6209,4.6719,0.0,0.0,0.0,0.0,0.0,0.0,0.0,0.0,0.0,0.0,0.0,0.0,0.0,0.0,0.0,0.0,0.0,0.0,0.0,0.0,0.0,0.0,5.976,6.1716,6.2078,6.3309,6.4541,6.5482,6.5881,6.5953,6.5627,6.5192,6.4577,6.3758,6.3722,6.349,6.3042,6.3005,6.3005,6.3005,6.3005,6.3005,6.3005,6.3005,6.3005,6.3005,6.2657,6.2512,6.2476,6.2136,6.1992,0.0,6.1992,6.1992,6.1992,6.1992,6.1992,0.0,0.0,0.0,0.0,0.0,6.1992,6.1992,6.1992,6.1702,6.1304,6.1304,6.0978,6.0616,6.0616,6.0616,6.0458,5.9788,5.9616,5.9287,5.7911,5.7582,5.7397,5.6773,5.6393,5.6139,5.6139,5.5902,5.5699,5.5699,0.0,0.0,5.4549,5.416,5.3788,5.3315,5.2706,5.1826,0.0,5.0119,4.9476,4.8323,4.8173,4.8037,4.7733,4.7428,0.0,0.0,0.0,4.6143,4.6143,4.6481,0.0,0.0,0.0,0.0,0.0,0.0,0.0,0.0,5.1418,5.1174,0.0,0.0,0.0,0.0,0.0,0.0,0.0,0.0,0.0,0.0,0.0,0.0,0.0,0.0,0.0,0.0,6.3237,6.5084,6.5881,6.5989,6.5953,6.5881,6.6496,6.6641,6.5953,6.5881,6.5482,6.4577,6.4541,6.4504,6.4396,0.0,0.0,0.0,0.0,6.4396,6.4396,6.4396,6.4396,6.4396,6.3685,6.3359,6.3323,6.2621,6.2281,6.2281,6.2281,6.2281,6.2281,6.2281,6.2281,6.2245,6.2064,6.1992,6.1992,6.1992,6.1992,0.0,0.0,0.0,0.0,6.1992,6.1992,6.1992,6.1992,6.1937,6.1734,6.1075,6.0817,6.0468,5.9112,5.8789,5.8633,5.8029,5.7408,5.6934,5.6934,5.6409,5.5936,5.5936,5.5936,5.5936,5.5936,5.5277,5.4702,5.4702,5.3551,0.0,5.257,5.1911,5.1167,5.0439,0.0,0.0,4.9424,4.8868,4.8496,4.8394,4.7767,4.7443,4.7443,4.8139,4.9138,5.0455,5.1285,5.3062,5.5803,5.6541,5.7604,5.8858,5.4339,5.3095,0.0,0.0,0.0,0.0,0.0,0.0,0.0,0.0,0.0,0.0,0.0,0.0,0.0,0.0,0.0,6.3418,6.5736,6.7583,6.8395,6.8503,6.825,6.7619,6.7692,6.7713,6.7547,6.7532,6.6931,6.5482,6.5374,6.5084,6.4446,6.4396,0.0,6.4396,6.4396,6.4396,6.4396,6.4396,6.4396,6.4396,0.0,0.0,6.4156,6.3997,6.3925,6.3925,6.3925,6.3925,6.3925,6.3925,6.3925,6.3816,6.2499,6.1992,6.1992,6.1992,6.1992,6.1992,6.1992,6.1992,6.1992,6.1992,6.1992,6.1992,6.1992,6.1622,0.0,6.0375,5.9755,5.9112,5.8281,5.8083,5.8047,5.7936,5.7798,5.7697,5.7697,5.7595,5.7476,5.7476,5.7476,5.7476,5.7476,5.6359,5.5496,5.5496,5.5225,5.482,5.4228,5.3518,5.2739,5.1961,5.186,5.1826,5.1657,5.2131,5.2131,5.1488,5.1319,5.1251,5.1251,5.1995,5.257,5.2841,5.4143,5.5958,5.8213,5.896,6.039,6.2263,5.9409,5.8009,0.0,0.0,0.0,0.0,0.0,0.0,0.0,0.0,0.0,0.0,0.0,5.9651,6.1643,0.0,6.4939,6.6547,6.8141,6.9321,6.9735,7.0134,6.9901,6.8742,6.8597,6.8597,6.8597,6.8597,6.8286,6.7453,6.7417,6.7235,6.6837,6.6801,6.6801,6.6801,6.6801,6.662,6.6207,6.6207,6.5989,6.5591,6.5192,6.5011,6.4975,6.4577,6.4396,6.4396,6.4396,6.4396,6.4396,6.4396,6.4396,6.4323,6.3526,6.2947,6.2585,6.2585,6.2354,6.1992,6.1992,6.1992,6.1937,6.1622,6.1487,6.143,6.1089,6.0777,6.0359,5.966,5.9162,5.8755,5.8065,5.79,5.79,5.79,5.79,5.79,5.79,5.79,5.79,5.79,5.79,5.79,5.79,5.7273,5.6697,5.6325,5.5936,5.5564,5.5209,5.4837,5.4448,5.4042,5.4008,5.4008,5.4008,5.4025,5.3721,5.2942,5.2909,5.3078,5.345,5.4194,5.4972,5.5683,5.6781,5.8251,6.0037,6.0421,6.1523,6.3274,6.1701,6.0636,0.0,0.0,0.0,0.0,0.0,0.0,0.0,0.0,5.9651,6.1774,6.349,6.5207,6.7148,6.7728,6.838,6.9663,7.0568,7.1148,7.1293,7.182,7.1748,7.0496,7.0061,6.988,6.988,6.988,6.9808,6.9663,6.9518,6.9445,6.9445,6.9264,6.9192,6.9192,6.9192,6.8902,6.8235,6.8235,6.7909,6.7257,6.6605,6.6207,6.6025,6.541,6.5011,6.4867,6.4867,6.4867,6.4867,6.4867,6.4867,6.4867,6.4867,6.4359,6.3649,6.3504,6.3019,6.2462,6.2462,6.2379,6.2161,6.1613,6.134,6.1128,6.0598,6.0342,6.0114,5.9494,5.9254,5.901,5.8452,5.834,5.834,5.834,5.834,5.834,5.834,5.8186,5.8118,5.8118,5.8001,5.79,5.79,5.79,5.7697,5.7103,5.6528,5.6139,5.6139,5.6003,5.5902,5.5902,5.5902,5.5969,5.6105,5.5581,5.504,5.46,5.4431,5.4735,5.5615,5.6105,5.6968,5.8287,5.9066,6.0149,6.165,6.1788,6.2523,6.3764,6.3231,6.2476,5.3639,5.3965,5.516,5.7972,5.9348,6.0942,0.0,0.0,6.6025,6.6989,6.8452,6.9663,6.9952,7.1132,7.211,7.2291,7.2963,7.376,7.4484,7.4665,7.4629,7.4448,7.3181,7.2327,7.2327,7.2327,7.2001,7.1313,7.0641,7.0278,7.0278,6.959,6.9192,6.9192,6.9192,6.9155,6.9083,6.9083,6.9011,6.8938,6.8829,6.8431,6.7713,6.764,6.7221,6.6533,6.6533,6.6533,6.6533,6.6533,6.6533,6.6533,6.6533,6.6025,6.5229,6.4519,6.4215,6.4142,6.4142,6.3696,6.3137,6.3076,6.2604,6.2052,6.197,6.1551,6.1067,6.0978,6.0476,5.9956,5.9862,5.9844,5.9844,5.9844,5.9844,5.9844,5.9844,5.9336,5.8878,5.8878,5.8355,5.79,5.79,5.79,5.7866,5.7798,5.773,5.7645,5.7645,5.707,5.6697,5.6697,5.6697,5.6934,5.7577,5.7595,5.778,5.8337,5.778,5.8017,5.9438,5.8912,5.9013,5.9844,6.0655,6.1768,6.3236,6.3892,6.4653,6.5453,6.5359,6.4544,5.6862,5.8045,5.9348,6.0652,6.2643,6.4867,6.7003,6.8235,6.9249,7.0465,7.1639,7.2436,7.2436,7.3325,7.4086,0.0,7.5152,7.613,7.6456,7.6492,7.6311,7.5841,7.5189,7.4428,7.347,7.3398,7.3253,7.2927,7.2617,7.2436,7.2436,7.211,7.1712,7.1241,7.1241,7.0806,6.9916,6.988,6.9663,6.9192,6.9192,6.9011,6.8721,6.8721,6.8271,6.751,6.751,6.7221,6.6786,6.6786,6.6786,6.6858,6.7329,6.7002,6.6192,6.5409,6.4794,6.4396,6.4396,6.3904,6.3233,6.2856,6.2217,6.1537,6.1096,6.0789,6.0566,6.0566,6.0325,6.0114,6.0114,6.0114,6.0114,6.0114,6.0114,6.0114,6.0114,5.9877,5.9641,5.9641,5.9404,5.9167,5.9167,5.9167,5.9167,5.9167,5.8441,5.79,5.79,5.7629,5.7442,5.7442,5.7442,5.7543,5.7866,5.79,5.822,5.8945,5.8709,5.8998,6.0047,5.981,6.0013,6.0791,6.1535,6.2455,6.3499,6.4249,6.4965,6.5682,6.5272,6.4946,5.9674,6.1123,6.239,6.3911,6.6388,6.8706,6.9704,7.1386,7.2943,7.3849,7.4484,7.4955,7.5172,7.5534,7.5824,7.6041,7.7072,7.7833,7.7833,7.7833,7.7543,7.671,7.6637,7.6094,7.4718,7.4556,7.4629,7.4882,7.4484,7.4339,7.4573,7.4122,7.3615,7.3036,7.3036,7.2509,7.1386,7.1148,7.0749,7.017,6.9952,6.9735,6.9518,6.93,6.8866,6.8343,6.8343,6.7876,6.7116,6.7116,6.7009,6.6859,6.7433,6.7309,6.6721,6.6133,6.5566,6.5063,6.5063,6.4579,6.3865,6.3412,6.261,6.1763,6.1437,6.1197,6.1095,6.1298,6.1332,6.1332,6.1332,6.1332,6.1332,6.1332,6.1332,6.1332,6.1332,6.1028,6.0723,6.0723,6.0385,6.0114,6.0114,6.0114,6.0114,6.0114,5.9201,5.849,5.849,5.849,5.849,5.849,5.849,5.849,5.849,5.849,5.8829,5.9588,5.9419,5.9742,6.0689,6.0723,6.1095,6.1907,6.2618,6.3362,6.4106,6.4647,6.529,6.6,6.5459,6.5493,6.1485,6.1955,6.3295,6.8793,7.135,7.2927,7.452,7.6729,7.8231,7.7507,7.7362,7.7615,7.8412,7.7941,7.7688,7.8448,7.8629,7.8666,7.8666,7.8666,7.8376,7.7543,7.747,7.7144,0.0,7.622,7.6529,7.7326,7.5932,7.5389,7.6167,7.4754,7.3905,7.3868,7.3868,7.3832,7.3796,7.2999,7.2617,7.2565,7.182,7.106,7.0351,6.9554,6.9192,6.9155,6.9155,6.8697,6.7964,6.7964,6.7509,6.6795,6.683,6.6812,6.6794,6.6795,6.676,6.6725,6.6725,6.6237,6.5604,6.5619,6.4615,6.3551,6.4241,6.3971,6.3545,6.4275,6.4478,6.4478,6.4478,6.4478,6.4478,6.4478,6.4478,6.4478,6.4478,6.3328,6.2333,6.2333,6.1129,6.0114,6.0114,6.0114,6.0114,6.0114,6.0047,6.0047,6.0047,6.0047,6.0047,6.0047,6.0047,6.0047,6.0047,6.0047,6.0385,6.1197,6.0486,6.0757,6.2245,6.2333,6.2685,6.3409,6.4174,6.4884,6.5649,6.5683,6.6034,6.6757,6.6724,6.6757,6.3164,6.5917,6.8778,7.0661,7.3124,7.537,7.6456,7.7326,7.7833,7.7543,7.7072,7.6601,7.6367,7.6529,7.6963,7.776,7.881,7.968,8.0223,7.9825,7.8992,7.7651,7.7054,0.0,0.0,0.0,0.0,7.7434,7.7,7.7036,7.7833,7.7398,7.6601,7.5515,7.4968,7.4169,7.3094,7.2282,7.1835,7.1835,7.1073,7.031,6.9599,6.9848,6.937,6.8447,6.8926,6.838,6.7182,6.7182,6.7042,6.6829,6.7373,6.7273,6.6856,6.7395,6.7275,6.6804,6.678,6.6303,6.5719,6.5719,6.5021,6.4275,6.4512,6.4444,6.4275,6.4546,6.4613,6.4613,6.4613,6.4613,6.4613,6.4613,6.4613,6.4613,6.4613,6.4208,6.3869,6.3869,6.3429,6.3091,6.3091,6.3091,6.3091,6.3091,6.1366,6.0114,6.0114,6.0114,6.0114,6.0114,6.0114,6.0114,6.0114,6.0114,6.0452,6.1264,6.1501,6.2076,6.3091,6.3599,6.3971,6.4241,6.5405,6.6203,6.644,6.7455,6.8098,6.8335,6.8335,6.8335,6.6207,6.8959,7.1567,7.3595,7.5623,7.7362,7.8159,7.8376,7.8267,7.7977,7.6818,7.5804,7.557,7.5732,7.6227,7.7287,7.8816,7.9846,7.9711,7.9555,7.8837,7.7163,7.6521,7.5808,0.0,0.0,0.0,7.6607,7.6822,7.7216,7.7736,7.7753,7.7233,7.623,7.5451,7.4531,7.3501,7.2394,7.167,7.1371,7.0934,7.0426,6.9989,7.0497,7.0162,6.9215,6.946,6.8784,6.7615,6.7336,6.7064,6.6869,6.765,6.765,6.7289,6.8117,6.8075,6.7535,6.6986,6.6473,6.6077,6.6077,6.5601,6.5053,6.5324,6.5189,6.5053,6.5324,6.5595,6.5797,6.5797,6.6,6.6136,6.5865,6.5797,6.5696,6.5459,6.5189,6.4986,6.4986,6.4783,6.4613,6.4613,6.4613,6.4613,6.4613,6.2956,6.1603,6.1366,6.1332,6.1332,6.1332,6.1535,6.1704,6.1704,6.1704,6.1941,6.2448,6.2922,6.3396,6.3849,6.4613,6.5121,6.5392,6.6576,6.7332,6.7603,6.8876,6.9485,6.9485,6.9485,6.9485,7.0263,7.1205,7.2126,7.7398,7.8774,7.9028,7.9752,7.9789,7.9482,7.8577,7.648,7.5016,7.5754,7.5359,7.5413,7.6959,7.8638,7.9176,7.7565,7.8102,7.8015,0.0,0.0,0.0,0.0,0.0,0.0,7.4963,0.0,7.6126,7.6222,7.6161,7.6105,7.605,7.5349,7.4928,7.4893,7.3381,7.2186,7.1326,7.1326,7.1326,7.1291,7.1326,7.1326,7.1256,7.0575,6.9819,6.9072,6.8349,6.7625,6.7015,6.7692,6.7963,6.8064,6.8808,6.9113,6.8876,6.7455,6.6927,6.6893,6.6859,6.6373,6.5933,6.6609,6.6305,6.5899,6.6643,6.7354,6.7895,6.7963,6.8538,6.891,6.8132,6.7963,6.776,6.7062,6.6373,6.5886,6.5818,6.5222,6.4715,6.4749,6.4749,6.4715,6.4715,6.4681,6.441,6.3646,6.3545,6.3545,6.3545,6.4174,6.4613,6.4613,6.4613,6.4613,6.4613,6.4647,6.4647,6.4647,6.5392,6.6136,6.6825,6.7624,6.8402,6.9147,6.9925,7.0297,7.0297,7.0353,7.0353,7.1168,7.4428,7.7688,7.8484,7.9607,8.0404,8.0006,7.8549,7.6751,7.4795,7.2459,7.0646,7.0265,7.1409,0.0,7.4455,7.6505,0.0,7.8841,7.9107,0.0,7.7845,0.0,7.6357,7.5193,7.503,0.0,0.0,7.5748,7.7164,7.7767,7.7802,7.7535,7.6898,7.6118,7.543,7.4833,7.3236,7.1814,7.0516,7.0516,7.0243,6.973,7.0277,7.0209,6.973,7.0072,6.9808,6.9084,6.8914,6.8697,6.8538,6.8707,6.8808,6.8808,6.9011,6.9113,6.9045,6.8673,6.8504,6.8402,6.7827,6.7489,6.7252,6.6914,6.6656,6.6677,6.7421,6.776,6.803,6.8639,6.8944,6.9045,6.8842,6.8808,6.8741,6.8571,6.8368,6.8064,6.7455,6.6745,6.6406,6.6948,6.6609,6.6216,6.6216,6.5764,6.5155,6.441,6.4343,6.4343,6.4343,6.4478,6.4613,6.4613,6.4613,6.4613,6.4613,6.5121,6.5425,6.5425,6.6643,6.7421,6.7624,6.8944,6.9688,6.9925,7.121,7.1853,7.1853,7.2394,7.2383,7.4175,7.6963,7.9426,7.968,7.9865,7.9629,7.8225,7.6032,7.3578,7.0913,6.8982,6.7535,6.6763,6.8999,7.1236,0.0,0.0,0.0,7.8299,7.896,7.9083,0.0,7.7469,0.0,7.5823,7.5338,7.4897,0.0,7.5776,7.6619,7.671,7.7021,7.7021,7.6563,7.5798,7.5014,7.4239,7.3006,7.1988,7.1142,7.0838,7.0466,7.0094,7.05,7.0466,7.006,0.0,6.998,6.9553,6.9214,6.9113,6.9147,6.9451,6.9586,6.962,6.9958,7.006,7.006,7.006,7.006,6.9891,6.8774,6.8199,6.7895,6.7827,6.7557,6.7455,6.8199,6.8639,6.9011,6.9451,6.9823,6.9992,6.9654,6.9586,6.9485,6.918,6.9113,6.8977,6.8504,6.8098,6.7963,6.8368,6.8098,6.7827,6.7827,6.7455,6.7049,6.6643,6.5696,6.5087,6.5087,6.5358,6.5561,6.5561,6.5561,6.5561,6.5561,6.6271,6.6677,6.6677,6.7793,6.8571,6.891,7.006,7.0838,7.1176,7.2665,7.3375,7.3375,7.3781,7.3747,7.7709,7.8689,7.8999,8.0406,7.9497,7.7664,7.5332,7.2789,7.008,6.7112,6.5637,6.476,6.4321,6.7211,6.9788,7.0159,0.0,7.7623,7.7134,7.8316,7.8974,7.8234,7.757,7.7164,7.7063,7.642,7.6014,7.6014,7.5912,7.554,7.4796,7.5337,7.5709,7.5709,7.51,7.439,7.3646,7.3003,7.2631,7.2529,7.1921,7.1594,7.1594,7.1594,7.1526,7.1391,0.0,0.0,7.0297,6.9654,6.9383,6.9451,7.0094,7.0353,7.0398,7.1075,7.1289,7.1289,7.1289,7.1289,7.1052,6.9688,6.8774,6.8335,6.891,6.8605,6.8233,6.9011,6.9688,7.0217,7.0297,7.0804,7.112,7.05,7.0353,7.0161,6.9519,6.9316,6.9282,6.9383,6.9248,6.9147,6.9214,6.918,6.9113,6.9113,6.9113,6.9113,6.9113,6.7354,6.6136,6.6136,6.6711,6.7117,6.7117,6.7117,6.7117,6.7117,6.7726,6.8064,6.8064,6.8808,6.9586,7.0331,7.1075,7.1819,7.2563,7.395,7.4603,7.4603,7.4695,7.4671,7.8098,7.8592,7.8538,7.8941,7.7841,7.5854,7.3006,6.9521,6.6203,6.3793,6.1626,6.0492,6.162,6.4382,6.7318,6.9797,7.3052,7.585,7.7551,7.8563,7.9063,0.0,7.8822,7.8483,0.0,0.0,0.0,0.0,0.0,7.6352,7.554,7.5642,7.5709,7.5709,7.5574,7.5168,7.4424,7.4289,7.3916,7.3308,7.3172,7.3105,7.3105,7.3105,7.28,7.2191,0.0,0.0,7.1109,7.0973,7.0939,7.0917,7.1075,7.1109,7.112,7.1255,7.1289,7.1289,7.1289,7.1289,7.1176,7.0297,6.9891,6.9688,6.9248,6.9011,6.9045,6.9789,7.0094,7.0331,7.0973,7.1188,7.1255,7.112,7.1109,7.1052,7.0951,7.0432,7.0195,7.0804,6.9925,6.9282,6.9891,6.9485,6.9113,6.9113,6.9113,6.9113,6.9113,6.8741,6.8504,6.8504,6.8639,6.8707,6.8707,6.8707,6.8707,6.8707,6.8808,6.8876,6.8876,6.962,7.0364,7.1086,7.1853,7.2563,7.3308,7.4187,7.4603,7.4603,7.5236,7.5202,7.8183,7.8468,7.8312,7.7998,7.6122,7.3345,6.952,6.6267,6.3213,6.0152,5.9243,5.9109,5.9409,6.2586,6.5603,6.7046,7.0425,7.3815,7.642,7.7468,7.8382,7.9532,7.9329,7.8957,0.0,0.0,0.0,0.0,0.0,7.713,7.6352,7.5912,7.5709,7.5709,7.5709,7.554,7.5168,7.4796,7.4424,7.4052,7.368,7.35,7.35,7.35,7.3331,7.2969,7.2969,0.0,7.2428,7.2428,7.2225,7.1887,7.1887,7.165,7.1289,7.1289,7.1289,7.1357,7.1751,7.1887,7.1887,7.1909,7.1165,7.0217,7.0229,6.9992,6.9823,7.0567,7.077,7.0872,7.1188,7.1289,7.1289,7.1289,7.1289,7.1289,7.1289,7.1041,7.0872,7.1222,7.1041,7.0804,7.077,7.0804,7.0703,7.0297,7.0241,7.0241,7.0241,7.0241,6.9958,6.918,6.9113,6.9113,6.9113,6.9113,6.9113,6.9113,6.9451,6.9654,6.9654,7.0737,7.1515,7.1887,7.2969,7.3713,7.4086,7.483,7.5168,7.5202,7.554,7.5506,7.8084,7.8125,7.7647,7.695,7.4413,7.0911,6.6396,6.3591,6.0926,5.7509,5.7712,5.849,5.8389,6.14,6.414,6.4952,6.8436,7.2157,7.527,7.6657,7.8145,8.0175,8.0073,0.0,7.9811,0.0,0.0,0.0,0.0,0.0,7.6961,7.6284,7.5879,7.5709,7.5709,7.5709,7.5709,7.5134,7.4864,7.483,7.4255,7.395,7.395,7.395,7.3906,7.3713,7.3713,0.0,0.0,7.35,7.3161,7.2631,7.2631,7.2293,7.1785,7.1785,7.1785,7.1853,7.2428,7.2631,7.2732,7.3308,7.2214,7.077,7.1379,7.1007,7.0567,7.1345,7.1526,7.156,7.1751,7.1785,7.1785,7.1785,7.1785,7.1785,7.1785,7.1785,7.1785,7.1785,7.2225,7.2462,7.1887,7.2259,7.2428,7.1853,7.1785,7.1785,7.1785,7.1785,7.1345,7.0161,6.9755,6.9654,6.9789,6.9823,6.9857,7.0026,7.0567,7.0928,7.0928,7.2022,7.2699,7.2868,7.4018,7.4695,7.4864,7.5439,7.5709,7.5709,7.5709,7.5709,7.7767,7.7194,7.5796,7.5192,7.2707,6.9231,6.4735,6.1966,5.9641,5.7306,5.69,5.7611,5.9539,6.0825,6.2719,6.6047,6.8673,7.1548,7.5202,7.757,7.9464,8.1046,0.0,0.0,8.2103,0.0,0.0,0.0,0.0,0.0,7.6995,7.6826,7.6454,7.5709,7.5709,7.5709,7.5709,7.5642,7.5608,7.5608,7.554,7.5506,7.5506,7.5506,7.5134,7.4502,0.0,0.0,0.0,7.35,7.3466,7.3398,7.3398,7.3364,7.3297,7.3297,7.3297,7.3331,7.3398,7.3398,7.3432,7.35,7.2902,7.2225,7.2293,7.1785,7.1323,7.209,7.2293,7.2462,7.3105,7.3297,7.3297,7.3297,7.3297,7.3297,7.3297,7.3297,7.3297,7.3297,7.3364,7.3398,7.3308,7.3364,7.3398,7.3308,7.3297,7.3297,7.3297,7.3297,7.3263,7.3128,7.1887,7.1379,7.2022,7.209,7.236,7.3037,7.3161,7.3195,7.3195,7.3331,7.3713,7.439,7.4536,7.4931,7.5608,7.5676,7.5709,7.5709,7.5709,7.5709,7.5731,7.5912,7.5432,7.4287,7.21,6.9011,6.4525,6.211,6.0047,5.7374,5.7137,5.7881,5.9201,6.008,6.1501,6.4356,6.5967,6.8132,7.1853,7.395,7.6115,7.8982,8.0344,0.0,0.0,0.0,0.0,0.0,0.0,0.0,7.7638,7.713,7.6521,7.5709,7.5709,7.5709,7.5709,7.5709,7.5709,7.5709,7.5709,7.5709,7.5709,7.5709,7.554,7.527,0.0,0.0,0.0,7.4796,7.4559,7.4153,7.4153,7.3883,7.35,7.35,7.35,7.3567,7.4018,7.4153,7.4255,7.4661,7.4322,7.3646,7.3206,7.2868,7.2699,7.2969,7.3037,7.3105,7.3432,7.35,7.35,7.35,7.35,7.35,7.35,7.35,7.35,7.35,7.3849,7.4018,7.3601,7.3849,7.4018,7.3567,7.35,7.35,7.35,7.35,7.35,7.35,7.2969,7.2732,7.3037,7.3037,7.3172,7.35,7.35,7.35,7.35,7.3916,7.4289,7.457,7.5033,7.5405,7.5709,7.5709,7.5709,7.5709,7.5709,7.5709,7.3916,7.483,7.5067,7.3815,7.1672,6.8741,6.4458,6.2158,6.0148,5.7374,5.7374,5.8186,5.9167,5.9742,6.0858,6.3139,6.4309,6.6237,6.9992,7.1988,7.4356,7.7908,0.0,0.0,0.0,0.0,0.0,0.0,0.0,0.0,0.0,7.7638,7.6758,7.5743,7.5709,7.5709,7.5709,7.5709,7.5709,7.5709,7.5709,7.5709,7.5709,7.5709,7.5709,7.5709,0.0,0.0,0.0,7.5709,7.5405,7.4931,7.4931,7.4627,7.4177,7.4177,7.4177,7.4221,7.4762,7.4931,7.4999,7.554,7.5337,7.4796,7.4052,7.3646,7.3567,7.3747,7.3984,7.4177,7.4177,7.4177,7.4177,7.4177,7.4177,7.4177,7.4177,7.4177,7.4177,7.4177,7.4559,7.4762,7.4221,7.4593,7.4762,7.4221,7.4177,7.4177,7.4177,7.4177,7.4052,7.3849,7.3815,7.3815,7.3815,7.3815,7.3916,7.4119,7.4177,7.4177,7.4177,7.4661,7.4931,7.4931,7.5439,7.5709,7.5709,7.5709,7.5709,7.5709,7.5709,7.5709,7.2699,7.4052,7.4424,7.368,7.1278,6.8132,6.4356,6.1719,5.9471,5.7273,5.7374,5.8355,5.981,6.008,6.0858,6.3139,6.4715,6.6981,7.0748,7.3183,7.5709,0.0,0.0,8.0784,0.0,0.0,0.0,0.0,0.0,0.0,0.0,7.8382,7.7266,7.5743,7.5709,7.5709,7.5709,7.5709,7.5709,7.5709,7.5709,7.5709,7.5709,7.5709,7.5709,0.0,0.0,0.0,0.0,7.5709,7.5709,7.5676,7.5676,7.5676,7.5676,7.5676,7.5676,7.5676,7.5676,7.5676,7.5676,7.5709,7.5676,7.554,7.483,7.4086,7.3646,7.439,7.51,7.5676,7.5676,7.5676,7.5676,7.5676,7.5676,7.5676,7.5676,7.5676,7.5676,7.5676,7.5676,7.5676,7.5676,7.5676,7.5676,7.5676,7.5676,7.5676,7.5676,7.5676,7.5405,7.4671,7.4593,7.4593,7.4593,7.4593,7.4897,7.5642,7.5676,7.5676,7.5676,7.5676,7.5676,7.5676,7.5709,7.5709,7.5709,7.5709,7.5709,7.5709,7.5709,7.5709,6.7286,6.8707,6.9586,6.7861,6.6711,6.5324,6.2618,6.1839,6.1028,5.8795,5.8896,5.9708,6.0723,6.0926,6.1975,6.5236,6.617,6.759,7.0816,7.3183,7.554,7.8044,8.0784,8.2644,0.0,0.0,0.0,0.0,0.0,0.0,0.0,7.8382,7.7536,7.6555,7.598,7.5709,7.5709,7.5709,7.5709,7.5709,7.5709,7.5709,7.5709,7.5709,0.0,0.0,0.0,0.0,0.0,7.5709,7.5709,7.5709,7.5709,7.5709,7.5709,7.5709,7.5709,7.5709,7.5709,7.5709,7.5709,7.5709,7.5709,7.5676,7.5439,7.5202,7.5033,7.5303,7.4796,7.4424,7.5439,7.4931,7.4424,7.5473,7.5303,7.51,7.5574,7.5709,7.5709,7.5709,7.5709,7.5709,7.5709,7.5709,7.5709,7.5709,7.5709,7.5709,7.5709,7.5709,7.5608,7.5371,7.5337,7.5168,7.4661,7.4603,7.4931,7.5642,7.5709,7.5709,7.5709,7.5709,7.5709,7.5709,7.5709,7.598,7.6521,7.598,7.5709,7.5709,7.5709,7.5709,6.3599,6.5392,6.6677,6.5019,6.441,6.37,6.1738,6.1434,6.1061,5.9351,5.9607,6.0351,6.1163,6.1298,6.2245,6.5067,6.6034,6.7455,7.0466,7.3037,0.0,7.8483,0.0,0.0,0.0,0.0,0.0,0.0,0.0,0.0,0.0,7.8551,7.7773,7.7333,7.6251,7.5709,7.5709,7.5709,7.5709,7.5709,7.5709,7.5709,7.5709,7.5709,0.0,0.0,0.0,0.0,0.0,7.5709,7.5709,7.5709,7.5709,7.5709,7.5709,7.5709,7.5709,7.5709,7.5709,7.5709,7.5709,7.5709,7.5506,7.5337,7.5608,7.5709,7.5709,7.5709,7.5033,7.4458,7.5134,7.4593,7.4153,7.5067,7.4931,7.4796,7.554,7.5709,7.5709,7.5709,7.5709,7.5709,7.5709,7.5709,7.5709,7.5709,7.5709,7.5709,7.5709,7.5709,7.5574,7.5303,7.527,7.51,7.4661,7.4864,7.5202,7.5676,7.5709,7.5709,7.5709,7.598,7.6149,7.6149,7.642,7.6792,7.7299,7.6521,7.598,7.5709,7.5709,7.5709,0.0,6.3531,6.5019,6.4241,6.3565,6.2733,6.1366,6.0554,0.0,5.9216,5.9674,6.0452,6.1366,6.1467,6.1941,6.3612,6.5053,6.7003,7.0014,7.3071,0.0,0.0,8.1629,0.0,0.0,0.0,0.0,0.0,0.0,0.0,0.0,7.8788,7.8,7.8,7.6487,7.5709,7.5709,7.5709,7.5709,7.5709,7.5709,7.5709,7.5709,7.5709,0.0,0.0,0.0,0.0,0.0,7.5709,7.5709,7.5709,7.5709,7.5709,7.5709,7.5709,7.5709,7.5709,7.5709,7.5709,7.5709,7.5709,7.5236,7.483,7.5506,7.5642,7.5574,7.5676,7.5608,7.5405,7.483,7.4603,7.4536,7.4637,7.4661,7.4796,7.554,7.5709,7.5709,7.5709,7.5709,7.5709,7.5709,7.5709,7.5709,7.5709,7.5709,7.5709,7.5709,7.5709,7.5439,7.4762,7.4695,7.4695,7.4695,7.527,7.5642,7.5709,7.5709,7.5709,7.5777,7.6487,7.6927,7.6961,7.7705,7.8034,7.7908,7.7299,7.6555,7.5709,7.5709,7.5709,5.6871,0.0,6.0283,5.8964,5.893,5.9133,0.0,5.9438,6.0047,5.9877,6.0486,6.1603,6.3463,6.2888,6.3362,6.7184,6.8064,6.935,7.2315,7.6284,0.0,8.2408,0.0,0.0,0.0,0.0,0.0,0.0,0.0,0.0,0.0,7.8788,7.8,7.8,7.6487,7.5709,7.5709,7.5709,7.5709,7.5709,7.5709,7.5709,7.5709,7.5709,0.0,0.0,0.0,0.0,7.5709,7.5709,7.5709,7.5709,7.5709,7.5709,7.5709,7.5709,7.5709,7.5709,7.5709,7.5709,7.5709,7.5709,7.5574,7.5473,7.5642,7.4897,7.4244,7.5371,7.4897,7.4221,7.5202,7.4593,7.4018,7.5168,7.4999,7.4796,7.554,7.5709,7.5709,7.5709,7.5709,7.5709,7.5709,7.5709,7.5709,7.5709,7.5709,7.5709,7.5709,7.5709,7.5642,7.5473,7.5439,7.5439,7.5439,7.51,7.51,7.5676,7.5709,7.598,7.6589,7.6792,7.7164,7.7705,7.8483,7.828,7.7164,7.7536,7.7029,7.5709,7.5709,7.5709,5.5974,5.7919,5.9776,5.8626,5.8896,5.9471,5.9471,5.9776,6.0114,6.0114,6.0994,6.2279,6.3802,6.3734,6.4546,6.7996,6.9147,7.1007,7.5023,7.8542,8.1257,8.2813,0.0,0.0,0.0,0.0,0.0,0.0,0.0,0.0,0.0,7.9126,7.8348,7.8034,7.686,7.6082,7.5709,7.5709,7.5709,7.5709,7.5709,7.5709,7.5709,7.5709,0.0,0.0,0.0,0.0,7.5709,7.5709,7.5709,7.5709,7.5709,7.5709,7.5709,7.5709,7.5709,7.5709,7.5709,7.5709,7.5709,7.5709,7.5709,7.5709,7.5709,7.5134,7.4661,7.5473,7.5134,7.4627,7.5067,7.4593,7.4221,7.4999,7.4897,7.4796,7.554,7.5709,7.5709,7.5709,7.5709,7.5709,7.5709,7.5709,7.5709,7.5709,7.5709,7.5709,7.5709,7.5709,7.5709,7.5709,7.5709,7.5709,7.5709,7.5337,7.527,7.5676,7.5709,7.6048,7.686,7.7232,7.7908,7.8991,7.9397,7.8889,7.7401,7.8145,7.7739,7.6251,7.6589,7.6758,5.7119,5.9456,6.1501,6.025,6.0723,6.14,6.1163,6.0588,6.0148,6.025,6.14,6.2753,6.3951,6.4681,6.5933,6.8504,7.0297,7.3094,7.7976,8.0276,8.1765,8.2618,0.0,0.0,0.0,0.0,0.0,0.0,0.0,0.0,0.0,7.9634,7.8923,7.8179,7.7435,7.669,7.5879,7.5743,7.5709,7.5709,7.5709,7.5709,7.5709,7.5709,7.5709,0.0,0.0,0.0,7.5709,7.5709,7.5709,7.5709,7.5709,7.5709,7.5709,7.5709,7.5709,7.5709,7.5709,7.5709,7.5709,7.5709,7.5709,7.5709,7.5709,7.5709,7.5709,7.5709,7.5709,7.5574,7.4931,7.4796,7.4796,7.4796,7.4796,7.4931,7.5574,7.5709,7.5709,7.5709,7.5709,7.5709,7.5709,7.5709,7.5709,7.5709,7.5709,7.5709,7.5709,7.5709,7.5709,7.5709,7.5709,7.5709,7.5709,7.5811,7.5845,7.5709,7.5709,7.6115,7.7029,7.7874,7.8923,8.0175,8.0209,7.9532,7.8145,7.8822,7.8416,7.7063,7.7705,7.8,5.9626,6.2156,6.3294,5.9994,6.0723,6.1873,6.0588,6.0182,6.0283,6.0994,6.1806,6.3396,6.6643,6.732,6.8741,7.2902,7.5371,7.7942,0.0,0.0,8.2746,0.0,0.0,0.0,0.0,0.0,0.0,0.0,0.0,0.0,0.0,0.0,7.9701,7.8957,7.8213,7.7468,7.6724,7.6048,7.5709,7.5709,7.5709,7.5709,7.5709,7.5709,7.5709,0.0,0.0,7.5709,7.5709,7.5709,7.5709,7.5709,7.5709,7.5709,7.5709,7.5709,7.5709,7.5709,7.5709,7.5709,7.5709,7.5709,7.5709,7.5709,7.5709,7.5709,7.5709,7.5709,7.5709,7.5676,7.5574,7.554,7.554,7.554,7.554,7.5574,7.5676,7.5709,7.5709,7.5709,7.5709,7.5709,7.5709,7.5709,7.5709,7.5709,7.5709,7.5709,7.5709,7.5709,7.5709,7.5709,7.5709,7.5709,7.5709,7.6318,7.642,7.5743,7.5709,7.6318,7.7797,7.9126,7.9972,8.0209,8.0209,7.9769,7.8923,7.9058,7.8653,7.7807,7.7967,7.8,5.9422,6.193,6.37,6.2381,6.37,6.5189,6.4478,6.37,6.3226,6.3599,6.4275,6.5662,6.8605,6.9789,7.1819,7.6294,0.0,7.9803,8.1562,0.0,0.0,0.0,0.0,0.0,0.0,0.0,0.0,0.0,0.0,0.0,0.0,0.0,8.0276,7.916,7.8788,7.8247,7.7502,7.6724,7.6115,7.5709,7.5709,7.5709,7.5709,7.5709,7.5709,7.5709,0.0,7.5709,7.5709,7.5709,7.5709,7.5709,7.5709,7.5709,7.5709,7.5709,7.5709,7.5709,7.5709,7.5709,7.5709,7.5709,7.5709,7.5709,7.5709,7.5709,7.5709,7.5709,7.5709,7.5709,7.5709,7.5709,7.5709,7.5709,7.5709,7.5709,7.5709,7.5709,7.5709,7.5709,7.5709,7.5709,7.5709,7.5709,7.5709,7.5709,7.5709,7.5709,7.5709,7.6082,7.6352,7.6352,7.669,7.6927,7.6927,7.7266,7.7333,7.6961,7.6927,7.7435,7.8551,7.9634,8.0209,8.0209,8.0209,7.9837,7.9101,7.9498,7.9329,7.8585,7.8991,7.9194,5.9453,6.1617,6.3748,6.485,6.6271,6.7557,6.8267,6.7151,6.6136,6.6846,6.7455,6.8504,7.0567,7.2597,7.5168,7.8788,8.0276,8.1156,0.0,0.0,0.0,0.0,0.0,0.0,0.0,0.0,0.0,0.0,0.0,0.0,0.0,0.0,8.0885,7.9397,7.9363,7.8923,7.8034,7.7435,7.6758,7.598,7.5777,7.5709,7.5709,7.5709,7.5709,7.5709,7.5709,7.5709,7.5709,7.5709,7.5709,7.5709,7.5709,7.5709,7.5709,7.5709,7.5709,7.5709,7.5709,7.5709,7.5709,7.5709,7.5709,7.5709,7.5709,7.5709,7.5709,7.5709,7.5845,7.5946,7.5743,7.5709,7.5709,7.5709,7.5709,7.5709,7.5709,7.5709,7.5709,7.5709,7.5709,7.5709,7.5709,7.5709,7.5709,7.5709,7.5709,7.5709,7.5709,7.6251,7.669,7.6893,7.7401,7.7874,7.8213,7.8102,7.817,7.8483,7.8348,7.8517,7.9067,7.9803,8.0209,8.0209,8.0209,7.9938,7.9363,7.9938,7.9904,7.9397,7.9938,8.0209,6.1327,6.2821,6.4018,6.6115,6.6237,6.6596,6.9405,6.8335,6.7501,7.0308,7.0917,7.1447,7.2969,7.6183,7.8957,7.9972,8.19,8.3287,0.0,0.0,0.0,0.0,0.0,0.0,0.0,0.0,0.0,0.0,0.0,0.0,0.0,0.0,0.0,8.0175,8.0107,7.9431,7.8034,7.7967,7.7536,7.6792,7.6048,7.5709,7.5709,7.5709,7.5709,7.5709,7.5709,7.5709,7.5709,7.5709,7.5709,7.5709,7.5709,7.5709,7.5709,7.5709,7.5709,7.5709,7.5709,7.5709,7.5709,7.5709,7.5709,7.5709,7.5709,7.5709,7.5709,7.5709,7.6251,7.6657,7.5879,7.5709,7.5709,7.5709,7.5709,7.5709,7.5709,7.5709,7.5709,7.5709,7.5709,7.5709,7.5709,7.5709,7.5709,7.5709,7.5709,7.5709,7.5709,7.5743,7.6082,7.6826,7.6961,7.7536,7.8923,7.8382,7.8585,7.9972,7.9397,7.9058,7.9101,7.9803,8.0209,8.0209,8.0209,8.0175,8.0107,8.0175,8.0175,8.0107,8.0175,8.0209,5.9825,6.2212,6.4512,6.5797,6.6981,6.847,7.0973,7.1616,7.2394,7.4931,7.51,7.51,7.6105,7.7841,7.9498,8.0682,8.1968,8.2983,0.0,0.0,0.0,0.0,0.0,0.0,0.0,0.0,0.0,0.0,0.0,0.0,0.0,0.0,0.0,8.0242,7.9769,7.9261,7.8686,7.7773,7.7164,7.6893,7.6082,7.5709,7.5709,7.5709,7.5709,7.5709,7.5709,7.5709,7.5743,7.6251,7.6149,7.5709,7.5709,7.5709,7.5709,7.5709,7.5709,7.5709,7.5709,7.5709,7.5709,7.5709,7.5709,7.5709,7.5709,7.5709,7.5811,7.6318,7.6657,7.6826,7.6521,7.6792,7.6995,7.6555,7.6454,7.6318,7.5811,7.5709,7.5845,7.6352,7.6048,7.5845,7.6352,7.6014,7.5709,7.5709,7.5709,7.5879,7.6386,7.6826,7.7401,7.8213,7.8835,7.9442,7.9985,7.993,8.0096,8.0675,7.9673,7.9329,7.9769,8.004,8.0209,8.0209,8.0209,8.0209,8.0209,8.0209,8.0209,8.0209,8.0209,8.0209,5.9877,6.2448,6.5189,6.6136,6.8098,7.05,7.3206,7.4221,7.5405,7.8111,7.7908,7.7401,7.7933,7.8585,0.0,0.0,0.0,0.0,0.0,0.0,0.0,0.0,0.0,0.0,0.0,0.0,0.0,0.0,0.0,0.0,0.0,0.0,0.0,0.0,7.9701,7.9228,7.8754,7.7739,7.6995,7.6521,7.5946,7.5709,7.5709,7.5709,7.5709,7.5709,7.5709,7.5709,7.5743,7.6555,7.6589,7.6048,7.5811,7.5709,7.5709,7.5709,7.5709,7.5709,7.5709,7.5709,7.5709,7.5709,7.5709,7.5709,7.5709,7.5709,7.5879,7.6657,7.7063,7.7299,7.7536,7.7604,7.7435,7.669,7.6724,7.669,7.5879,7.5912,7.6183,7.6454,7.6082,7.5946,7.6758,7.6454,7.6149,7.6386,7.642,7.6671,7.7285,7.7745,7.833,7.9124,8.0143,8.0734,8.0734,8.0906,8.1005,8.1005,8.0183,7.9867,8.0301,8.0259,8.0209,8.0209,8.0209,8.0209,8.0209,8.0209,8.0209,8.0209,8.0209,8.0209,6.2178,6.3991,6.6034,6.7523,6.9654,7.2326,7.6048,7.5743,7.5686,7.9464,7.9025,7.8034,7.8034,7.8619,0.0,0.0,0.0,0.0,0.0,0.0,0.0,0.0,0.0,0.0,0.0,0.0,0.0,0.0,0.0,0.0,0.0,0.0,0.0,0.0,8.0175,7.9464,7.8034,7.7976,7.7198,7.5709,7.5709,7.5709,7.5709,7.5709,7.5709,7.5709,7.5709,7.5709,7.5777,7.6555,7.6893,7.6826,7.6014,7.5709,7.5709,7.5709,7.5709,7.5709,7.5709,7.5709,7.5709,7.5709,7.5709,7.5709,7.5709,7.5709,7.5879,7.669,7.7435,7.8179,7.8923,7.801,7.6724,7.5912,7.6318,7.669,7.5879,7.6318,7.6657,7.5845,7.5709,7.5946,7.6758,7.6893,7.7164,7.7899,7.8,7.8098,7.84,7.8206,7.8403,7.9429,8.0414,8.1005,8.1005,8.1005,8.1005,8.1005,8.1005,8.0882,8.0635,8.036,8.0209,8.0209,8.0209,8.0209,8.0209,8.0209,8.0209,8.0209,8.0209,8.0209,6.025,6.2787,6.5954,6.688,7.0804,7.4965,7.7164,7.8111,7.916,8.1325,8.0987,8.0166,7.9634,8.0141,0.0,0.0,0.0,0.0,0.0,0.0,0.0,0.0,0.0,0.0,0.0,0.0,0.0,0.0,0.0,0.0,0.0,0.0,0.0,0.0,7.9701,7.8957,7.8034,7.7468,7.669,7.5709,7.5709,7.5709,7.5709,7.6284,7.6251,7.5743,7.6284,7.6555,7.6555,7.6792,7.6893,7.6826,7.6014,7.5709,7.5709,7.5709,7.5709,7.5709,7.5709,7.5709,7.5709,7.5709,7.5709,7.5811,7.6352,7.6555,7.6826,7.8111,7.8619,7.8822,7.9058,7.8788,7.828,7.7502,7.7096,7.669,7.5879,7.5879,7.6149,7.6487,7.6082,7.5946,7.6758,7.6893,7.6961,7.7198,7.7671,7.8277,7.9089,7.9722,8.0229,8.0541,8.099,8.1273,8.1273,8.1442,8.1538,8.1538,8.1369,8.1151,8.0906,8.0808,8.0759,8.0759,8.0585,8.0485,8.0485,8.0485,8.0485,8.051,8.0684,8.0684,6.2956,6.5425,6.8402,7.0331,7.351,7.6893,7.9566,8.0412,8.0885,8.1765,8.1359,8.0818,8.0648,8.1224,0.0,0.0,0.0,0.0,0.0,0.0,0.0,0.0,0.0,0.0,0.0,0.0,0.0,0.0,0.0,0.0,0.0,0.0,0.0,0.0,7.9769,7.9058,7.8034,7.7536,7.6792,7.5709,7.5709,7.5709,7.5743,7.6521,7.6657,7.6183,7.669,7.7063,7.7299,7.7029,7.7266,7.7671,7.6589,7.6183,7.6183,7.6183,7.598,7.5709,7.5709,7.5709,7.5709,7.5709,7.5709,7.5845,7.6657,7.6893,7.7198,7.8686,7.9101,7.9169,7.9464,7.9167,7.8641,7.8102,7.7638,7.7198,7.6724,7.6589,7.6806,7.7377,7.7096,7.7052,7.7954,7.8114,7.8191,7.8463,7.9002,7.9518,8.0043,8.0804,8.1273,8.1175,8.1393,8.1538,8.1538,8.1715,8.181,8.181,8.1668,8.1466,8.1321,8.1127,8.1005,8.1005,8.0857,8.0759,8.0759,8.0759,8.0759,8.0759,8.0931,8.0931,6.803,6.9992,7.2124,7.5946,7.7198,7.8551,8.2577,8.2441,8.1486,8.1418,8.0818,8.0513,8.1257,8.2002,0.0,0.0,0.0,0.0,0.0,0.0,0.0,0.0,0.0,0.0,0.0,0.0,0.0,0.0,0.0,0.0,0.0,0.0,0.0,0.0,8.0209,7.9498,7.8111,7.8102,7.7333,0.0,7.5811,7.5811,7.5845,7.6555,7.6893,7.6893,7.6961,7.7333,7.7841,7.7232,7.7807,7.8855,7.7468,7.6927,7.6995,7.6927,7.6454,7.5811,7.5709,7.5709,7.5709,7.5777,7.5743,7.5879,7.6826,7.7063,7.7299,7.8788,7.9194,7.9363,8.0065,7.9349,7.8385,7.8268,7.8083,7.7982,7.8074,7.8006,7.8021,7.8288,7.8312,7.8613,7.9536,7.9823,8.0141,8.0902,8.1224,8.1297,8.1078,8.1466,8.1715,8.1442,8.1633,8.181,8.181,8.181,8.181,8.181,8.181,8.181,8.181,8.1321,8.1078,8.1078,8.1054,8.1029,8.1029,8.1029,8.1029,8.1029,8.1054,8.1054,6.6102,6.8368,7.1481,7.5811,7.9498,8.234,8.3287,8.3253,8.2847,8.2272,8.1562,8.1291,8.2035,8.278,0.0,0.0,0.0,0.0,0.0,0.0,0.0,0.0,0.0,0.0,0.0,0.0,0.0,0.0,0.0,0.0,0.0,0.0,0.0,8.0209,8.0209,7.9769,7.8889,7.8855,7.8111,0.0,7.6657,7.6657,7.6657,7.6826,7.6893,7.6927,7.7502,7.7502,7.7164,7.757,7.7942,7.8145,7.7266,7.7232,7.7671,7.7096,7.6792,7.6555,7.5912,7.5709,7.5811,7.6454,7.6217,7.6082,7.8044,7.8213,7.8044,7.9566,7.9972,8.0056,8.0392,7.988,7.941,8.0194,7.8992,7.7832,7.8436,7.8071,7.7686,7.7733,7.7757,7.7848,7.8066,7.9081,8.0141,8.0902,8.1224,8.1369,8.1321,8.1585,8.1787,8.1739,8.1787,8.181,8.181,8.181,8.181,8.181,8.181,8.181,8.181,8.1715,8.1644,8.1644,8.1417,8.1297,8.1297,8.1297,8.1297,8.1321,8.1514,8.1514,6.6745,6.9485,7.2958,7.7807,8.1257,8.349,8.349,8.349,8.3186,8.2103,8.1832,8.1934,8.234,0.0,0.0,0.0,0.0,0.0,0.0,0.0,0.0,0.0,0.0,0.0,0.0,0.0,0.0,0.0,0.0,0.0,0.0,8.0818,8.0209,8.0209,8.0209,7.987,7.9126,7.8754,7.801,7.6893,7.6893,7.6893,7.6893,7.6893,7.6893,7.6927,7.7299,7.7266,7.6961,7.7696,7.8213,7.8483,7.8111,7.8179,7.845,7.7705,7.7198,7.6792,7.598,7.5709,7.5845,7.6657,7.6623,7.6623,7.8551,7.8822,7.8779,8.0021,8.041,8.046,8.0734,8.0063,7.9638,8.0877,7.9358,7.7998,7.9467,7.8647,7.7874,7.8653,7.8847,7.8895,7.9012,8.002,8.0947,8.1335,8.149,8.1585,8.1585,8.1715,8.181,8.181,8.181,8.181,8.181,8.181,8.181,8.181,8.181,8.181,8.181,8.181,8.181,8.181,8.1633,8.1585,8.1585,8.1585,8.1585,8.1585,8.1739,8.1739,6.7421,7.0939,7.482,7.9557,8.1832,8.2949,8.3084,8.3118,8.2813,8.1723,8.1866,8.2205,8.2205,0.0,0.0,0.0,0.0,0.0,0.0,0.0,0.0,0.0,0.0,0.0,0.0,0.0,0.0,0.0,0.0,0.0,8.1351,8.0581,8.0141,8.0006,8.0141,7.9769,7.8923,7.8416,7.7739,7.6893,7.6758,7.669,7.669,7.669,7.669,7.669,7.6826,7.6893,7.6961,7.7696,7.8416,7.9101,7.9101,7.9101,7.9025,7.8247,7.7536,7.6792,7.598,7.5709,7.5845,7.6657,7.6826,7.6961,7.8499,7.8871,7.8988,8.0143,8.0455,8.0564,8.097,8.0094,7.9471,8.0926,7.9342,7.8184,8.0638,7.9371,7.8186,7.978,8.0102,8.0242,8.0729,8.1362,8.181,8.181,8.181,8.1845,8.1983,8.1879,8.1845,8.1983,8.1879,8.181,8.181,8.181,8.181,8.181,8.181,8.181,8.181,8.181,8.181,8.181,8.181,8.181,8.181,8.181,8.181,8.181,8.181,8.181,6.4715,6.9722,7.51,7.7773,7.9532,8.0818,8.1452,8.1587,8.1697,8.2171,8.1832,8.1452,0.0,0.0,0.0,0.0,0.0,0.0,0.0,0.0,0.0,0.0,0.0,0.0,0.0,0.0,0.0,0.0,0.0,0.0,8.1351,8.0581,7.9904,7.9295,7.987,7.9532,7.8145,7.8686,7.828,7.6893,7.6183,7.5845,7.5845,7.5845,7.5845,7.5912,7.6589,7.6893,7.6961,7.7696,7.8416,7.9101,7.9101,7.9101,7.9025,7.8247,7.7536,7.6792,7.598,7.5709,7.5845,7.6657,7.642,7.6197,7.7905,7.7978,7.7822,7.9459,7.9907,8.0126,8.1101,8.0213,7.9381,8.0452,7.8925,7.8075,8.1061,7.9924,7.8546,7.943,7.9568,8.0039,8.1373,8.1741,8.181,8.181,8.181,8.2052,8.2673,8.219,8.2052,8.2673,8.219,8.181,8.181,8.181,8.181,8.181,8.181,8.181,8.181,8.181,8.181,8.181,8.181,8.181,8.181,8.181,8.181,8.181,8.181,8.181,6.5899,6.9586,7.3071,7.6995,7.8483,7.916,7.9904,8.0378,8.0547,8.004,8.031,8.0784,0.0,0.0,0.0,0.0,0.0,0.0,0.0,0.0,0.0,0.0,0.0,0.0,0.0,0.0,0.0,0.0,0.0,8.146,8.0716,8.0378,7.987,7.9101,7.9837,7.9498,7.8034,7.8314,7.7942,7.6893,7.6082,7.5946,7.6352,7.5912,7.5709,7.5709,7.6082,7.6217,7.6284,7.7063,7.757,7.7908,7.8314,7.8754,7.9025,7.8247,7.7773,7.7425,7.6757,7.6262,7.6082,7.7006,7.7053,7.6975,7.816,7.8593,7.8743,7.9279,8.0035,8.0724,8.0919,8.014,7.9544,8.0384,7.8856,7.7925,8.0569,7.9707,7.8741,7.989,8.0097,8.0476,8.1603,8.181,8.181,8.181,8.181,8.1914,8.2259,8.2017,8.1914,8.2259,8.1983,8.181,8.181,8.181,8.181,8.181,8.181,8.181,8.181,8.181,8.181,8.181,8.181,8.181,8.181,8.181,8.181,8.181,8.181,8.181,6.5493,6.7793,6.9654,7.4525,7.6149,7.686,7.7976,7.8653,7.8855,0.0,7.8855,7.9803,0.0,0.0,0.0,0.0,0.0,0.0,0.0,0.0,0.0,0.0,0.0,0.0,0.0,0.0,0.0,0.0,0.0,8.0885,7.9972,8.0107,7.9701,7.8585,7.9431,7.9092,7.7435,7.7425,7.713,7.6589,7.598,7.6014,7.6555,7.598,7.5709,7.5709,7.5709,7.5709,7.5743,7.6555,7.6893,7.6961,7.7705,7.8213,7.8483,7.7982,7.7668,7.7479,7.7142,7.6658,7.6341,7.7097,7.7315,7.7441,7.8011,7.8753,7.9313,7.9231,8.016,8.1159,8.0947,8.0201,7.9683,8.0407,7.8994,7.7959,7.9649,7.9465,7.9293,8.0373,8.058,8.0856,8.1672,8.181,8.181,8.181,8.181,8.1879,8.2052,8.1914,8.1879,8.2052,8.1914,8.181,8.181,8.181,8.181,8.181,8.181,8.181,8.181,8.181,8.181,8.181,8.181,8.181,8.181,8.181,8.181,8.181,8.181,8.181,6.0655,6.2753,6.4762,6.8605,7.1142,7.324,7.5371,7.5912,7.6318,7.7705,7.8044,7.8136,0.0,0.0,0.0,0.0,0.0,0.0,0.0,0.0,0.0,0.0,0.0,0.0,0.0,0.0,0.0,0.0,0.0,8.0648,7.9228,7.9837,7.9228,7.7096,7.8416,7.8077,7.5845,7.5811,7.5811,7.5743,7.5709,7.5709,7.5743,7.5709,7.5709,7.5709,7.5709,7.5709,7.5743,7.6555,7.6893,7.6961,7.7705,7.7604,7.7019,7.7192,7.6812,7.6224,7.6447,7.6506,7.6472,7.6529,7.6563,7.6609,7.6839,7.748,7.8281,7.9235,8.0063,8.0821,8.1569,8.0638,7.9683,8.0407,7.9442,7.8361,7.8499,7.9545,8.0511,8.058,8.058,8.0856,8.1672,8.181,8.181,8.181,8.181,8.2052,8.2742,8.2224,8.2086,8.2776,8.2224,8.181,8.181,8.181,8.181,8.181,8.181,8.181,8.181,8.181,8.181,8.181,8.181,8.181,8.181,8.181,8.181,8.181,8.181,8.181,5.9047,6.0926,6.2888,6.6102,6.8605,7.0737,7.2496,7.3984,7.5168,7.5709,7.6623,7.7299,0.0,0.0,0.0,0.0,0.0,0.0,0.0,0.0,0.0,0.0,0.0,0.0,0.0,0.0,0.0,0.0,0.0,0.0,7.9837,8.0073,7.9634,7.8348,7.8797,7.8247,7.6487,7.5946,7.5709,7.5709,7.5709,7.5709,7.5709,7.5709,7.5805,7.5947,7.5947,7.5947,7.5981,7.6286,7.6483,7.6658,7.6954,7.7193,7.7363,7.7423,7.7276,7.7119,7.7352,7.7136,7.6714,7.6907,7.6953,7.6976,7.7009,7.7605,7.8316,7.8683,7.9649,8.0649,8.0959,8.0614,8.0132,7.9925,7.9856,7.9787,7.9787,8.0235,8.0752,8.1293,8.1397,8.1466,8.1741,8.181,8.181,8.181,8.181,8.1914,8.2155,8.1948,8.1914,8.219,8.1948,8.181,8.181,8.181,8.181,8.181,8.181,8.181,8.181,8.181,8.181,8.181,8.181,8.181,8.181,8.181,8.181,8.181,8.181,8.181,5.7424,5.9182,6.1298,6.4512,6.6474,6.8301,7.1075,7.2428,7.3409,7.4424,7.5405,7.6217,0.0,0.0,0.0,0.0,0.0,0.0,0.0,0.0,0.0,0.0,0.0,0.0,0.0,0.0,0.0,0.0,0.0,0.0,7.9837,8.0073,7.9735,7.8754,7.8483,7.7773,7.6521,7.598,7.5709,7.5709,7.5709,7.5757,7.5828,7.5828,7.597,7.6239,7.6512,7.6477,7.6239,7.6239,7.6332,7.6495,7.6495,7.6802,7.7236,7.7306,7.7352,7.7375,7.764,7.7388,7.6964,7.7156,7.7201,7.7201,7.7201,7.7925,7.8775,7.8775,7.9844,8.0994,8.0994,8.0994,8.0787,8.0028,8.0442,8.0994,8.0994,8.0994,8.1155,8.1707,8.181,8.181,8.181,8.181,8.181,8.181,8.181,8.181,8.181,8.181,8.181,8.181,8.181,8.181,8.181,8.181,8.181,8.181,8.181,8.181,8.181,8.181,8.181,8.181,8.181,8.181,8.181,8.181,8.181,8.181,8.181,8.181,0.0,0.0,0.0,6.3497,6.4444,6.5865,7.1007,7.1075,7.0939,7.3883,7.4502,7.4762,0.0,0.0,0.0,0.0,0.0,0.0,0.0,0.0,0.0,0.0,0.0,0.0,0.0,0.0,0.0,0.0,0.0,7.9904,7.9169,7.9803,7.9532,7.8102,7.7299,7.6555,7.5743,7.5709,7.5676,7.5676,7.5676,7.5852,7.6064,7.6122,7.6262,7.6552,7.727,7.7167,7.6518,7.6552,7.6552,7.6518,7.6518,7.6518,7.6541,7.6759,7.6793,7.6839,7.7133,7.7201,7.7201,7.7201,7.7201,7.7201,7.7201,7.8235,7.9442,7.95,8.0569,8.1741,8.1776,8.181,8.1603,8.0821,8.1235,8.181,8.181,8.181,8.181,8.181,8.181,8.181,8.181,8.1776,8.1776,8.181,8.1776,8.1776,8.181,8.181,8.181,8.181,8.181,8.181,8.181,8.181,8.181,8.181,8.181,8.181,8.181,8.181,8.181,8.181,8.181,8.181,8.181,8.181,8.181,8.181,8.181,8.181,5.5006,0.0,0.0,0.0,0.0,0.0,0.0,6.7286,6.8605,7.1594,7.2202,7.2743,0.0,0.0,0.0,0.0,0.0,0.0,0.0,0.0,0.0,0.0,0.0,0.0,0.0,0.0,0.0,0.0,7.9904,8.0107,7.9904,8.0073,7.9769,7.8822,7.8077,7.7333,7.6589,7.598,7.5439,7.4931,7.5638,7.5746,7.5329,7.6071,7.6518,7.6736,7.6942,7.7034,7.7033,7.7423,7.7343,7.7021,7.7021,7.7021,7.7021,7.7088,7.7111,7.7077,7.7178,7.7201,7.7201,7.7201,7.7201,7.7201,7.7201,7.7511,7.8063,7.9166,7.981,8.0396,8.15,8.181,8.1741,8.1535,8.1638,8.181,8.181,8.181,8.181,8.181,8.181,8.181,8.181,8.1328,8.1155,8.1707,8.1293,8.1155,8.1741,8.181,8.181,8.181,8.181,8.181,8.181,8.181,8.181,8.181,8.181,8.181,8.181,8.181,8.181,8.181,8.181,8.181,8.181,8.181,8.181,8.181,8.181,8.181,0.0,0.0,0.0,0.0,0.0,0.0,6.5256,6.6406,6.7738,0.0,7.1751,7.2259,0.0,0.0,0.0,0.0,0.0,0.0,0.0,0.0,0.0,0.0,0.0,0.0,0.0,0.0,0.0,7.8653,7.9025,7.9431,7.9735,7.9735,7.9397,7.8653,7.8213,7.7468,7.642,7.6042,7.5649,7.5242,7.5601,7.5617,7.5322,7.5903,7.6462,7.6998,7.7308,7.757,7.7718,7.803,7.7777,7.7201,7.7201,7.7201,7.7201,7.7201,7.7201,7.7201,7.7201,7.7201,7.7201,7.7201,7.7201,7.7201,7.7201,7.7442,7.7925,7.9166,7.9982,8.0603,8.1155,8.1569,8.181,8.181,8.181,8.181,8.181,8.181,8.181,8.181,8.181,8.181,8.181,8.1431,8.1259,8.1741,8.1397,8.1293,8.1741,8.181,8.181,8.181,8.181,8.181,8.181,8.181,8.181,8.181,8.181,8.181,8.181,8.181,8.181,8.181,8.181,8.181,8.181,8.181,8.181,8.181,8.181,8.181,0.0,0.0,0.0,0.0,0.0,0.0,6.6305,6.6745,6.7354,0.0,7.1582,7.1819,7.2721,0.0,0.0,0.0,0.0,0.0,0.0,0.0,0.0,0.0,0.0,0.0,0.0,7.7831,7.7899,7.7899,7.8034,7.8382,7.8957,7.9058,7.8754,7.8034,7.7957,7.7246,7.5892,7.6062,7.6111,7.6009,7.5549,7.5435,7.5592,7.5683,7.623,7.7132,7.7925,7.8292,7.8292,7.8292,7.7844,7.7201,7.7201,7.7201,7.7201,7.7201,7.7201,7.7201,7.7201,7.7201,7.7201,7.7304,7.7339,7.7339,7.7339,7.7821,7.8568,7.927,8.0569,8.1535,8.089,8.1259,8.181,8.181,8.181,8.181,8.181,8.181,8.181,8.181,8.181,8.181,8.181,8.1741,8.1707,8.1776,8.1707,8.1707,8.1776,8.181,8.181,8.181,8.181,8.181,8.181,8.181,8.181,8.181,8.181,8.181,8.181,8.181,8.181,8.181,8.181,8.181,8.181,8.181,8.181,8.181,8.181,8.181,0.0,0.0,0.0,0.0,0.0,0.0,6.2516,6.2922,6.3971,0.0,6.6542,6.6711,6.8639,0.0,0.0,0.0,0.0,0.0,0.0,0.0,0.0,0.0,0.0,0.0,0.0,7.6724,7.7096,7.7096,7.8213,7.8686,7.8247,7.8788,7.8754,7.8034,7.7561,7.7206,7.6935,7.6558,7.6118,7.5527,7.5583,7.5341,7.4837,7.5655,7.6122,7.6339,7.7097,7.7442,7.7442,7.7442,7.7339,7.7201,7.7201,7.7201,7.7201,7.7201,7.7201,7.7201,7.7201,7.7201,7.7304,7.7959,7.8189,7.8189,7.8189,7.8292,7.8568,7.927,8.0132,8.0948,8.1431,8.1672,8.181,8.181,8.181,8.181,8.181,8.181,8.181,8.181,8.181,8.181,8.181,8.1259,8.1028,8.1707,8.1259,8.1086,8.1707,8.181,8.181,8.181,8.181,8.181,8.181,8.181,8.181,8.181,8.181,8.181,8.181,8.181,8.181,8.181,8.181,8.181,8.181,8.181,8.181,8.181,8.181,8.181,0.0,0.0,0.0,6.0791,0.0,0.0,0.0,6.2685,6.3565,6.5797,6.5358,6.5155,6.7015,0.0,0.0,0.0,0.0,0.0,0.0,0.0,0.0,0.0,0.0,0.0,0.0,7.4965,7.5371,7.5743,7.6792,7.7435,7.7435,7.8145,7.8456,7.823,7.7886,7.7632,7.74,7.6883,7.6439,7.6085,7.5968,7.5701,7.5357,7.5881,7.6304,7.6649,7.7028,7.7649,7.827,7.7511,7.7442,7.7753,7.7373,7.7201,7.7201,7.7201,7.7201,7.727,7.7649,7.7546,7.7339,7.8154,7.8396,7.8327,7.7925,7.8361,7.9051,7.9396,8.0327,8.1224,8.1224,8.15,8.181,8.181,8.181,8.181,8.181,8.181,8.181,8.181,8.181,8.181,8.181,8.1466,8.1362,8.1741,8.1466,8.1362,8.1741,8.181,8.181,8.181,8.181,8.181,8.181,8.181,8.181,8.181,8.181,8.181,8.181,8.181,8.181,8.181,8.181,8.181,8.181,8.181,8.181,8.181,8.181,8.181,0.0,0.0,0.0,0.0,0.0,6.3193,0.0,0.0,0.0,6.5405,0.0,0.0,0.0,0.0,0.0,0.0,0.0,0.0,0.0,0.0,0.0,0.0,0.0,0.0,0.0,7.3128,7.3274,7.4322,7.4695,7.5337,7.642,7.7164,7.7658,7.7924,7.7938,7.7775,7.7453,7.7091,7.6896,7.6861,7.6353,7.6097,7.6097,7.6097,7.6408,7.6994,7.7132,7.789,7.8959,7.7718,7.758,7.812,7.7442,7.7201,7.7235,7.7373,7.7442,7.7546,7.8361,7.8189,7.7753,7.8568,7.8844,7.8706,7.8063,7.8615,7.9511,7.9649,8.0603,8.1466,8.0959,8.1328,8.181,8.181,8.181,8.181,8.181,8.181,8.181,8.181,8.181,8.181,8.181,8.181,8.181,8.181,8.181,8.181,8.181,8.181,8.181,8.181,8.181,8.181,8.181,8.181,8.181,8.181,8.181,8.181,8.181,8.181,8.181,8.181,8.181,8.181,8.181,8.181,8.181,8.181,8.181,8.181,0.0,0.0,0.0,0.0,6.4377,0.0,0.0,0.0,6.2415,6.2009,0.0,0.0,0.0,0.0,0.0,0.0,0.0,0.0,0.0,0.0,0.0,0.0,0.0,0.0,0.0,0.0,7.1413,7.3466,7.2496,7.2676,7.4762,7.5574,7.6099,7.6336,7.6571,7.6769,7.6885,7.7078,7.7156,7.7156,7.6442,7.6097,7.6097,7.6097,7.6132,7.627,7.6925,7.7304,7.7442,7.727,7.7235,7.7339,7.7235,7.7201,7.727,7.8017,7.8258,7.8361,7.912,7.9327,7.9339,8.0097,8.0339,8.0339,8.0235,7.9856,7.9638,8.027,8.058,8.0856,8.15,8.1741,8.181,8.181,8.181,8.181,8.181,8.181,8.181,8.181,8.181,8.181,8.181,8.181,8.181,8.181,8.181,8.181,8.181,8.181,8.181,8.181,8.181,8.181,8.181,8.181,8.181,8.181,8.181,8.181,8.181,8.181,8.181,8.181,8.181,8.181,8.181,8.181,8.181,8.181,8.181,8.181,0.0,0.0,0.0,0.0,0.0,0.0,0.0,0.0,6.167,0.0,0.0,0.0,0.0,0.0,0.0,0.0,0.0,0.0,0.0,0.0,0.0,0.0,0.0,0.0,0.0,0.0,0.0,0.0,0.0,7.1717,7.4057,7.5312,7.6111,7.6507,7.7455,7.7914,7.772,7.7845,7.7649,7.7201,7.6891,7.6753,7.6753,7.6753,7.6753,7.6753,7.7063,7.7442,7.7856,7.7373,7.7477,7.7844,7.7373,7.7753,7.8683,7.9913,8.0086,7.9718,8.0028,7.9856,7.9614,8.0339,8.0304,8.0132,8.0994,8.0752,8.0304,8.1086,8.1293,8.1397,8.1707,8.181,8.181,8.181,8.181,8.181,8.181,8.181,8.1948,8.2362,8.2086,8.1948,8.2362,8.2086,8.181,8.181,8.181,8.181,8.181,8.181,8.181,8.181,8.181,8.181,8.181,8.181,8.181,8.181,8.181,8.181,8.181,8.181,8.181,8.181,8.181,8.181,8.181,8.181,8.181,8.181,8.181,8.181,6.5561,0.0,0.0,0.0,0.0,0.0,0.0,0.0,0.0,0.0,0.0,0.0,0.0,0.0,0.0,0.0,0.0,0.0,0.0,0.0,0.0,0.0,0.0,0.0,0.0,0.0,0.0,0.0,0.0,0.0,7.3017,7.4444,7.5582,7.6371,7.7949,7.8557,7.8085,7.8499,7.8201,7.7201,7.7408,7.7408,7.7201,7.7201,7.7201,7.7201,7.7201,7.7511,7.8051,7.7442,7.7546,7.8085,7.789,7.8752,8.0224,8.0914,8.1086,8.0925,8.0925,8.0603,8.0224,8.0752,8.0545,8.0362,8.1466,8.1397,8.1028,8.1638,8.181,8.181,8.181,8.181,8.181,8.181,8.181,8.181,8.181,8.1948,8.219,8.2535,8.2328,8.2224,8.2535,8.2155,8.181,8.181,8.181,8.181,8.181,8.181,8.181,8.181,8.181,8.181,8.181,8.181,8.181,8.181,8.181,8.181,8.181,8.181,8.181,8.181,8.181,8.181,8.181,8.181,8.181,8.181,8.181,8.181,0.0,0.0,0.0,0.0,0.0,0.0,0.0,0.0,6.3004,0.0,0.0,0.0,0.0,0.0,0.0,0.0,0.0,0.0,0.0,0.0,0.0,0.0,0.0,0.0,0.0,0.0,0.0,0.0,0.0,0.0,7.1142,7.2338,7.3696,7.5379,7.7148,7.7766,7.7235,7.8718,7.8683,7.7201,7.7982,7.7925,7.7201,7.7201,7.7201,7.7201,7.7201,7.7201,7.7235,7.7201,7.7235,7.7373,7.8856,8.0362,8.1569,8.012,8.05,8.1776,8.1776,8.1741,8.1741,8.1741,8.1741,8.1741,8.1776,8.1776,8.1776,8.181,8.181,8.181,8.181,8.181,8.181,8.181,8.181,8.181,8.181,8.2362,8.2673,8.1983,8.2397,8.2673,8.1948,8.181,8.181,8.181,8.181,8.181,8.181,8.181,8.181,8.181,8.181,8.181,8.181,8.181,8.181,8.181,8.181,8.181,8.181,8.181,8.181,8.181,8.181,8.181,8.181,8.181,8.181,8.181,8.181,8.181,0.0,0.0,6.9214,6.6711,0.0,0.0,0.0,0.0,0.0,0.0,0.0,0.0,0.0,0.0,0.0,0.0,0.0,0.0,0.0,0.0,0.0,0.0,0.0,0.0,0.0,0.0,0.0,0.0,6.6824,0.0,0.0,7.2463,7.3812,7.5028,7.663,7.7375,7.7201,7.8258,7.8235,7.7201,7.7477,7.7442,7.7201,7.7201,7.7201,7.7201,7.7201,7.7201,7.7201,7.7201,7.7511,7.7994,7.7959,7.9569,8.1845,8.2328,8.3156,8.4046,8.4147,8.3855,8.355,8.4128,8.429,8.4219,8.3703,8.3505,8.3505,8.3505,8.3505,8.3375,8.2826,8.2668,8.2487,8.1941,8.181,8.181,8.181,8.2017,8.2259,8.25,8.2328,8.2259,8.25,8.2121,8.181,8.181,8.181,8.181,8.181,8.181,8.181,8.181,8.181,8.181,8.181,8.181,8.181,8.181,8.181,8.181,8.181,8.181,8.181,8.181,8.181,8.181,8.181,8.181,8.181,8.181,8.181,8.181,6.9417,6.9823,0.0,0.0,6.7184,0.0,0.0,0.0,0.0,0.0,0.0,0.0,0.0,0.0,0.0,0.0,0.0,0.0,0.0,0.0,0.0,0.0,0.0,0.0,0.0,0.0,6.5474,6.7489,0.0,0.0,0.0,0.0,7.3597,7.476,7.6363,7.7201,7.7201,7.8235,7.8235,7.7201,7.7477,7.7477,7.7201,7.7201,7.7201,7.7201,7.7201,7.7373,7.7615,7.7615,7.8063,7.8706,7.7925,7.9694,8.2755,8.3148,8.4356,8.5834,8.6159,8.5817,8.5277,8.5819,8.5829,8.5508,8.4987,8.4646,8.4396,8.4396,8.4169,8.3854,8.3634,8.3103,8.2555,8.2315,8.2035,8.181,8.181,8.2017,8.2259,8.2466,8.2328,8.2259,8.2466,8.2121,8.181,8.181,8.181,8.181,8.181,8.181,8.181,8.181,8.181,8.181,8.181,8.181,8.181,8.181,8.181,8.181,8.181,8.181,8.181,8.181,8.181,8.181,8.181,8.181,8.181,8.181,8.181,8.181]}]]